<?xml version="1.0" encoding="UTF-8" standalone="no" ?>
<gpx xmlns="http://www.topografix.com/GPX/1/1" xmlns:xsi="http://www.w3.org/2001/XMLSchema-instance" xsi:schemaLocation="http://www.topografix.com/GPX/1/1 http://www.topografix.com/GPX/1/1/gpx.xsd" version="1.1" creator="VisuGPX - https://www.visugpx.com">
  <metadata>
    <name> Diebling</name>
    <desc><![CDATA[rando autour de Diebling à la découverte de la forêt environnante]]></desc>
  </metadata>
  <trk>
    <name><![CDATA[ACTIVE LOG]]></name>
    <trkseg>
      <trkpt lat="49.10856" lon="6.94725">
        <ele>256.8093262</ele>
        <time>2009-04-15T11:39:11Z</time>
      </trkpt>
      <trkpt lat="49.10866" lon="6.94728">
        <ele>256.8093262</ele>
        <time>2009-04-15T11:39:19Z</time>
      </trkpt>
      <trkpt lat="49.10871" lon="6.94728">
        <ele>257.2900391</ele>
        <time>2009-04-15T11:39:23Z</time>
      </trkpt>
      <trkpt lat="49.10887" lon="6.94733">
        <ele>258.7319336</ele>
        <time>2009-04-15T11:39:44Z</time>
      </trkpt>
      <trkpt lat="49.10878" lon="6.94731">
        <ele>257.2900391</ele>
        <time>2009-04-15T11:40:12Z</time>
      </trkpt>
      <trkpt lat="49.10868" lon="6.94734">
        <ele>256.3287354</ele>
        <time>2009-04-15T11:40:19Z</time>
      </trkpt>
      <trkpt lat="49.10859" lon="6.94731">
        <ele>255.8480225</ele>
        <time>2009-04-15T11:40:25Z</time>
      </trkpt>
      <trkpt lat="49.10848" lon="6.94727">
        <ele>255.8480225</ele>
        <time>2009-04-15T11:40:31Z</time>
      </trkpt>
      <trkpt lat="49.10839" lon="6.94726">
        <ele>254.8865967</ele>
        <time>2009-04-15T11:40:36Z</time>
      </trkpt>
      <trkpt lat="49.1083" lon="6.94723">
        <ele>253.925415</ele>
        <time>2009-04-15T11:40:42Z</time>
      </trkpt>
      <trkpt lat="49.1082" lon="6.94719">
        <ele>253.925415</ele>
        <time>2009-04-15T11:40:50Z</time>
      </trkpt>
      <trkpt lat="49.1081" lon="6.94716">
        <ele>252.9639893</ele>
        <time>2009-04-15T11:40:57Z</time>
      </trkpt>
      <trkpt lat="49.108" lon="6.94714">
        <ele>252.4833984</ele>
        <time>2009-04-15T11:41:05Z</time>
      </trkpt>
      <trkpt lat="49.10788" lon="6.94717">
        <ele>251.5220947</ele>
        <time>2009-04-15T11:41:11Z</time>
      </trkpt>
      <trkpt lat="49.10779" lon="6.94717">
        <ele>251.0413818</ele>
        <time>2009-04-15T11:41:18Z</time>
      </trkpt>
      <trkpt lat="49.1077" lon="6.94715">
        <ele>249.5994873</ele>
        <time>2009-04-15T11:41:26Z</time>
      </trkpt>
      <trkpt lat="49.1076" lon="6.94711">
        <ele>248.6381836</ele>
        <time>2009-04-15T11:41:37Z</time>
      </trkpt>
      <trkpt lat="49.1075" lon="6.94709">
        <ele>247.6767578</ele>
        <time>2009-04-15T11:41:47Z</time>
      </trkpt>
      <trkpt lat="49.1074" lon="6.94706">
        <ele>247.1960449</ele>
        <time>2009-04-15T11:41:55Z</time>
      </trkpt>
      <trkpt lat="49.10731" lon="6.94703">
        <ele>246.2348633</ele>
        <time>2009-04-15T11:42:02Z</time>
      </trkpt>
      <trkpt lat="49.10721" lon="6.94701">
        <ele>246.2348633</ele>
        <time>2009-04-15T11:42:09Z</time>
      </trkpt>
      <trkpt lat="49.10712" lon="6.94699">
        <ele>245.2734375</ele>
        <time>2009-04-15T11:42:15Z</time>
      </trkpt>
      <trkpt lat="49.10703" lon="6.94697">
        <ele>244.7928467</ele>
        <time>2009-04-15T11:42:22Z</time>
      </trkpt>
      <trkpt lat="49.10693" lon="6.94695">
        <ele>244.3122559</ele>
        <time>2009-04-15T11:42:30Z</time>
      </trkpt>
      <trkpt lat="49.10684" lon="6.94694">
        <ele>243.3508301</ele>
        <time>2009-04-15T11:42:37Z</time>
      </trkpt>
      <trkpt lat="49.10676" lon="6.94689">
        <ele>242.3896484</ele>
        <time>2009-04-15T11:42:45Z</time>
      </trkpt>
      <trkpt lat="49.10666" lon="6.94687">
        <ele>241.9089355</ele>
        <time>2009-04-15T11:42:53Z</time>
      </trkpt>
      <trkpt lat="49.10656" lon="6.94684">
        <ele>241.4282227</ele>
        <time>2009-04-15T11:43:01Z</time>
      </trkpt>
      <trkpt lat="49.10647" lon="6.94681">
        <ele>240.467041</ele>
        <time>2009-04-15T11:43:17Z</time>
      </trkpt>
      <trkpt lat="49.10637" lon="6.94679">
        <ele>239.9862061</ele>
        <time>2009-04-15T11:43:26Z</time>
      </trkpt>
      <trkpt lat="49.10627" lon="6.94678">
        <ele>239.0249023</ele>
        <time>2009-04-15T11:43:35Z</time>
      </trkpt>
      <trkpt lat="49.10616" lon="6.94683">
        <ele>237.5828857</ele>
        <time>2009-04-15T11:43:44Z</time>
      </trkpt>
      <trkpt lat="49.10605" lon="6.94691">
        <ele>236.6217041</ele>
        <time>2009-04-15T11:43:53Z</time>
      </trkpt>
      <trkpt lat="49.10596" lon="6.94697">
        <ele>236.1409912</ele>
        <time>2009-04-15T11:44:00Z</time>
      </trkpt>
      <trkpt lat="49.10587" lon="6.94702">
        <ele>235.1796875</ele>
        <time>2009-04-15T11:44:06Z</time>
      </trkpt>
      <trkpt lat="49.10577" lon="6.94706">
        <ele>234.2183838</ele>
        <time>2009-04-15T11:44:13Z</time>
      </trkpt>
      <trkpt lat="49.10568" lon="6.94708">
        <ele>233.2570801</ele>
        <time>2009-04-15T11:44:20Z</time>
      </trkpt>
      <trkpt lat="49.10559" lon="6.94714">
        <ele>233.2570801</ele>
        <time>2009-04-15T11:44:27Z</time>
      </trkpt>
      <trkpt lat="49.1055" lon="6.94715">
        <ele>232.2957764</ele>
        <time>2009-04-15T11:44:33Z</time>
      </trkpt>
      <trkpt lat="49.10541" lon="6.9472">
        <ele>232.2957764</ele>
        <time>2009-04-15T11:44:40Z</time>
      </trkpt>
      <trkpt lat="49.10534" lon="6.94722">
        <ele>231.3343506</ele>
        <time>2009-04-15T11:44:47Z</time>
      </trkpt>
      <trkpt lat="49.10526" lon="6.9473">
        <ele>230.8537598</ele>
        <time>2009-04-15T11:44:54Z</time>
      </trkpt>
      <trkpt lat="49.10517" lon="6.94738">
        <ele>230.8537598</ele>
        <time>2009-04-15T11:45:01Z</time>
      </trkpt>
      <trkpt lat="49.10506" lon="6.94744">
        <ele>230.8537598</ele>
        <time>2009-04-15T11:45:08Z</time>
      </trkpt>
      <trkpt lat="49.10497" lon="6.94748">
        <ele>229.892334</ele>
        <time>2009-04-15T11:45:14Z</time>
      </trkpt>
      <trkpt lat="49.10488" lon="6.94746">
        <ele>229.892334</ele>
        <time>2009-04-15T11:45:20Z</time>
      </trkpt>
      <trkpt lat="49.10478" lon="6.94747">
        <ele>230.3730469</ele>
        <time>2009-04-15T11:45:26Z</time>
      </trkpt>
      <trkpt lat="49.1047" lon="6.94745">
        <ele>230.3730469</ele>
        <time>2009-04-15T11:45:33Z</time>
      </trkpt>
      <trkpt lat="49.10463" lon="6.94738">
        <ele>231.3343506</ele>
        <time>2009-04-15T11:45:41Z</time>
      </trkpt>
      <trkpt lat="49.10458" lon="6.94728">
        <ele>231.8149414</ele>
        <time>2009-04-15T11:45:49Z</time>
      </trkpt>
      <trkpt lat="49.10452" lon="6.94719">
        <ele>232.2957764</ele>
        <time>2009-04-15T11:45:56Z</time>
      </trkpt>
      <trkpt lat="49.10445" lon="6.94709">
        <ele>232.7764893</ele>
        <time>2009-04-15T11:46:03Z</time>
      </trkpt>
      <trkpt lat="49.1044" lon="6.94699">
        <ele>234.2183838</ele>
        <time>2009-04-15T11:46:10Z</time>
      </trkpt>
      <trkpt lat="49.10434" lon="6.94689">
        <ele>234.6990967</ele>
        <time>2009-04-15T11:46:18Z</time>
      </trkpt>
      <trkpt lat="49.10428" lon="6.9468">
        <ele>236.1409912</ele>
        <time>2009-04-15T11:46:26Z</time>
      </trkpt>
      <trkpt lat="49.1042" lon="6.94673">
        <ele>236.1409912</ele>
        <time>2009-04-15T11:46:34Z</time>
      </trkpt>
      <trkpt lat="49.10411" lon="6.94667">
        <ele>237.1022949</ele>
        <time>2009-04-15T11:46:41Z</time>
      </trkpt>
      <trkpt lat="49.10403" lon="6.94662">
        <ele>238.5443115</ele>
        <time>2009-04-15T11:46:49Z</time>
      </trkpt>
      <trkpt lat="49.10395" lon="6.94661">
        <ele>239.5054932</ele>
        <time>2009-04-15T11:46:57Z</time>
      </trkpt>
      <trkpt lat="49.10385" lon="6.94659">
        <ele>239.9862061</ele>
        <time>2009-04-15T11:47:05Z</time>
      </trkpt>
      <trkpt lat="49.10377" lon="6.94658">
        <ele>241.4282227</ele>
        <time>2009-04-15T11:47:13Z</time>
      </trkpt>
      <trkpt lat="49.10368" lon="6.94656">
        <ele>241.9089355</ele>
        <time>2009-04-15T11:47:21Z</time>
      </trkpt>
      <trkpt lat="49.10359" lon="6.94654">
        <ele>242.3896484</ele>
        <time>2009-04-15T11:47:29Z</time>
      </trkpt>
      <trkpt lat="49.1035" lon="6.94653">
        <ele>243.3508301</ele>
        <time>2009-04-15T11:47:37Z</time>
      </trkpt>
      <trkpt lat="49.10341" lon="6.94653">
        <ele>243.831543</ele>
        <time>2009-04-15T11:47:44Z</time>
      </trkpt>
      <trkpt lat="49.10332" lon="6.94652">
        <ele>244.3122559</ele>
        <time>2009-04-15T11:47:51Z</time>
      </trkpt>
      <trkpt lat="49.10322" lon="6.94653">
        <ele>245.2734375</ele>
        <time>2009-04-15T11:47:59Z</time>
      </trkpt>
      <trkpt lat="49.10312" lon="6.94654">
        <ele>244.3122559</ele>
        <time>2009-04-15T11:48:06Z</time>
      </trkpt>
      <trkpt lat="49.10301" lon="6.94653">
        <ele>244.3122559</ele>
        <time>2009-04-15T11:48:13Z</time>
      </trkpt>
      <trkpt lat="49.10294" lon="6.94652">
        <ele>242.8702393</ele>
        <time>2009-04-15T11:48:20Z</time>
      </trkpt>
      <trkpt lat="49.10284" lon="6.94653">
        <ele>241.4282227</ele>
        <time>2009-04-15T11:48:26Z</time>
      </trkpt>
      <trkpt lat="49.10275" lon="6.94652">
        <ele>240.9476318</ele>
        <time>2009-04-15T11:48:34Z</time>
      </trkpt>
      <trkpt lat="49.10265" lon="6.9465">
        <ele>239.9862061</ele>
        <time>2009-04-15T11:48:42Z</time>
      </trkpt>
      <trkpt lat="49.10257" lon="6.94647">
        <ele>239.0249023</ele>
        <time>2009-04-15T11:48:49Z</time>
      </trkpt>
      <trkpt lat="49.10247" lon="6.94646">
        <ele>238.5443115</ele>
        <time>2009-04-15T11:48:56Z</time>
      </trkpt>
      <trkpt lat="49.10237" lon="6.94646">
        <ele>238.5443115</ele>
        <time>2009-04-15T11:49:03Z</time>
      </trkpt>
      <trkpt lat="49.10227" lon="6.94647">
        <ele>237.5828857</ele>
        <time>2009-04-15T11:49:11Z</time>
      </trkpt>
      <trkpt lat="49.10218" lon="6.94653">
        <ele>236.1409912</ele>
        <time>2009-04-15T11:49:19Z</time>
      </trkpt>
      <trkpt lat="49.10211" lon="6.94659">
        <ele>235.1796875</ele>
        <time>2009-04-15T11:49:27Z</time>
      </trkpt>
      <trkpt lat="49.10201" lon="6.94664">
        <ele>234.2183838</ele>
        <time>2009-04-15T11:49:34Z</time>
      </trkpt>
      <trkpt lat="49.10192" lon="6.94669">
        <ele>233.2570801</ele>
        <time>2009-04-15T11:49:42Z</time>
      </trkpt>
      <trkpt lat="49.10184" lon="6.94677">
        <ele>232.7764893</ele>
        <time>2009-04-15T11:49:49Z</time>
      </trkpt>
      <trkpt lat="49.10175" lon="6.94681">
        <ele>232.2957764</ele>
        <time>2009-04-15T11:49:55Z</time>
      </trkpt>
      <trkpt lat="49.10167" lon="6.94688">
        <ele>231.3343506</ele>
        <time>2009-04-15T11:50:02Z</time>
      </trkpt>
      <trkpt lat="49.10159" lon="6.94696">
        <ele>231.3343506</ele>
        <time>2009-04-15T11:50:10Z</time>
      </trkpt>
      <trkpt lat="49.10149" lon="6.94703">
        <ele>231.8149414</ele>
        <time>2009-04-15T11:50:17Z</time>
      </trkpt>
      <trkpt lat="49.1014" lon="6.94706">
        <ele>231.8149414</ele>
        <time>2009-04-15T11:50:24Z</time>
      </trkpt>
      <trkpt lat="49.10131" lon="6.94707">
        <ele>232.2957764</ele>
        <time>2009-04-15T11:50:31Z</time>
      </trkpt>
      <trkpt lat="49.10122" lon="6.9471">
        <ele>232.7764893</ele>
        <time>2009-04-15T11:50:38Z</time>
      </trkpt>
      <trkpt lat="49.10113" lon="6.94712">
        <ele>233.2570801</ele>
        <time>2009-04-15T11:50:46Z</time>
      </trkpt>
      <trkpt lat="49.10103" lon="6.94713">
        <ele>234.2183838</ele>
        <time>2009-04-15T11:50:56Z</time>
      </trkpt>
      <trkpt lat="49.10091" lon="6.94716">
        <ele>234.6990967</ele>
        <time>2009-04-15T11:51:04Z</time>
      </trkpt>
      <trkpt lat="49.10081" lon="6.94718">
        <ele>235.6602783</ele>
        <time>2009-04-15T11:51:11Z</time>
      </trkpt>
      <trkpt lat="49.10071" lon="6.9472">
        <ele>235.6602783</ele>
        <time>2009-04-15T11:51:18Z</time>
      </trkpt>
      <trkpt lat="49.10061" lon="6.94724">
        <ele>236.1409912</ele>
        <time>2009-04-15T11:51:24Z</time>
      </trkpt>
      <trkpt lat="49.10053" lon="6.94731">
        <ele>236.1409912</ele>
        <time>2009-04-15T11:51:31Z</time>
      </trkpt>
      <trkpt lat="49.10045" lon="6.9474">
        <ele>236.6217041</ele>
        <time>2009-04-15T11:51:39Z</time>
      </trkpt>
      <trkpt lat="49.10036" lon="6.94748">
        <ele>236.6217041</ele>
        <time>2009-04-15T11:51:47Z</time>
      </trkpt>
      <trkpt lat="49.10028" lon="6.94757">
        <ele>236.6217041</ele>
        <time>2009-04-15T11:51:54Z</time>
      </trkpt>
      <trkpt lat="49.10019" lon="6.94766">
        <ele>237.5828857</ele>
        <time>2009-04-15T11:52:01Z</time>
      </trkpt>
      <trkpt lat="49.1001" lon="6.94773">
        <ele>239.0249023</ele>
        <time>2009-04-15T11:52:08Z</time>
      </trkpt>
      <trkpt lat="49.1" lon="6.94778">
        <ele>240.467041</ele>
        <time>2009-04-15T11:52:16Z</time>
      </trkpt>
      <trkpt lat="49.0999" lon="6.94775">
        <ele>239.9862061</ele>
        <time>2009-04-15T11:52:24Z</time>
      </trkpt>
      <trkpt lat="49.09981" lon="6.94771">
        <ele>241.4282227</ele>
        <time>2009-04-15T11:52:31Z</time>
      </trkpt>
      <trkpt lat="49.09971" lon="6.94766">
        <ele>241.4282227</ele>
        <time>2009-04-15T11:52:38Z</time>
      </trkpt>
      <trkpt lat="49.09961" lon="6.94766">
        <ele>242.8702393</ele>
        <time>2009-04-15T11:52:47Z</time>
      </trkpt>
      <trkpt lat="49.09952" lon="6.94765">
        <ele>243.3508301</ele>
        <time>2009-04-15T11:52:57Z</time>
      </trkpt>
      <trkpt lat="49.0994" lon="6.94766">
        <ele>243.831543</ele>
        <time>2009-04-15T11:53:09Z</time>
      </trkpt>
      <trkpt lat="49.09927" lon="6.94765">
        <ele>244.7928467</ele>
        <time>2009-04-15T11:53:18Z</time>
      </trkpt>
      <trkpt lat="49.09916" lon="6.94758">
        <ele>245.2734375</ele>
        <time>2009-04-15T11:53:26Z</time>
      </trkpt>
      <trkpt lat="49.09904" lon="6.94751">
        <ele>245.7541504</ele>
        <time>2009-04-15T11:53:33Z</time>
      </trkpt>
      <trkpt lat="49.09894" lon="6.94746">
        <ele>246.2348633</ele>
        <time>2009-04-15T11:53:39Z</time>
      </trkpt>
      <trkpt lat="49.09884" lon="6.9474">
        <ele>246.7154541</ele>
        <time>2009-04-15T11:53:45Z</time>
      </trkpt>
      <trkpt lat="49.09875" lon="6.94731">
        <ele>247.1960449</ele>
        <time>2009-04-15T11:53:53Z</time>
      </trkpt>
      <trkpt lat="49.09868" lon="6.94723">
        <ele>247.6767578</ele>
        <time>2009-04-15T11:54:02Z</time>
      </trkpt>
      <trkpt lat="49.09858" lon="6.94718">
        <ele>247.6767578</ele>
        <time>2009-04-15T11:54:10Z</time>
      </trkpt>
      <trkpt lat="49.09847" lon="6.94717">
        <ele>248.1575928</ele>
        <time>2009-04-15T11:54:17Z</time>
      </trkpt>
      <trkpt lat="49.09836" lon="6.94717">
        <ele>248.1575928</ele>
        <time>2009-04-15T11:54:24Z</time>
      </trkpt>
      <trkpt lat="49.09826" lon="6.94715">
        <ele>248.6381836</ele>
        <time>2009-04-15T11:54:31Z</time>
      </trkpt>
      <trkpt lat="49.09815" lon="6.94713">
        <ele>249.1187744</ele>
        <time>2009-04-15T11:54:38Z</time>
      </trkpt>
      <trkpt lat="49.09805" lon="6.94713">
        <ele>248.6381836</ele>
        <time>2009-04-15T11:54:45Z</time>
      </trkpt>
      <trkpt lat="49.09794" lon="6.94713">
        <ele>249.5994873</ele>
        <time>2009-04-15T11:54:52Z</time>
      </trkpt>
      <trkpt lat="49.09785" lon="6.94712">
        <ele>249.5994873</ele>
        <time>2009-04-15T11:54:59Z</time>
      </trkpt>
      <trkpt lat="49.09773" lon="6.94712">
        <ele>250.560791</ele>
        <time>2009-04-15T11:55:17Z</time>
      </trkpt>
      <trkpt lat="49.09763" lon="6.94701">
        <ele>251.0413818</ele>
        <time>2009-04-15T11:55:27Z</time>
      </trkpt>
      <trkpt lat="49.09754" lon="6.94698">
        <ele>252.0028076</ele>
        <time>2009-04-15T11:55:34Z</time>
      </trkpt>
      <trkpt lat="49.09742" lon="6.94699">
        <ele>252.9639893</ele>
        <time>2009-04-15T11:55:41Z</time>
      </trkpt>
      <trkpt lat="49.09733" lon="6.94694">
        <ele>253.4447021</ele>
        <time>2009-04-15T11:55:48Z</time>
      </trkpt>
      <trkpt lat="49.09725" lon="6.94689">
        <ele>254.8865967</ele>
        <time>2009-04-15T11:55:56Z</time>
      </trkpt>
      <trkpt lat="49.09716" lon="6.94685">
        <ele>255.3673096</ele>
        <time>2009-04-15T11:56:05Z</time>
      </trkpt>
      <trkpt lat="49.09706" lon="6.94686">
        <ele>256.3287354</ele>
        <time>2009-04-15T11:56:13Z</time>
      </trkpt>
      <trkpt lat="49.09695" lon="6.94688">
        <ele>256.8093262</ele>
        <time>2009-04-15T11:56:20Z</time>
      </trkpt>
      <trkpt lat="49.09685" lon="6.94689">
        <ele>257.2900391</ele>
        <time>2009-04-15T11:56:27Z</time>
      </trkpt>
      <trkpt lat="49.09675" lon="6.94692">
        <ele>256.8093262</ele>
        <time>2009-04-15T11:56:35Z</time>
      </trkpt>
      <trkpt lat="49.09669" lon="6.94704">
        <ele>256.8093262</ele>
        <time>2009-04-15T11:56:45Z</time>
      </trkpt>
      <trkpt lat="49.0967" lon="6.9472">
        <ele>255.8480225</ele>
        <time>2009-04-15T11:56:52Z</time>
      </trkpt>
      <trkpt lat="49.09672" lon="6.94737">
        <ele>255.3673096</ele>
        <time>2009-04-15T11:56:59Z</time>
      </trkpt>
      <trkpt lat="49.09675" lon="6.94755">
        <ele>255.3673096</ele>
        <time>2009-04-15T11:57:06Z</time>
      </trkpt>
      <trkpt lat="49.09678" lon="6.9477">
        <ele>254.8865967</ele>
        <time>2009-04-15T11:57:12Z</time>
      </trkpt>
      <trkpt lat="49.09675" lon="6.94782">
        <ele>255.3673096</ele>
        <time>2009-04-15T11:57:18Z</time>
      </trkpt>
      <trkpt lat="49.09673" lon="6.94796">
        <ele>254.4060059</ele>
        <time>2009-04-15T11:57:25Z</time>
      </trkpt>
      <trkpt lat="49.09671" lon="6.94811">
        <ele>253.925415</ele>
        <time>2009-04-15T11:57:34Z</time>
      </trkpt>
      <trkpt lat="49.09669" lon="6.94827">
        <ele>253.4447021</ele>
        <time>2009-04-15T11:57:42Z</time>
      </trkpt>
      <trkpt lat="49.09666" lon="6.94842">
        <ele>253.4447021</ele>
        <time>2009-04-15T11:57:50Z</time>
      </trkpt>
      <trkpt lat="49.09664" lon="6.94855">
        <ele>253.925415</ele>
        <time>2009-04-15T11:57:57Z</time>
      </trkpt>
      <trkpt lat="49.09662" lon="6.9487">
        <ele>253.4447021</ele>
        <time>2009-04-15T11:58:05Z</time>
      </trkpt>
      <trkpt lat="49.09653" lon="6.94879">
        <ele>252.9639893</ele>
        <time>2009-04-15T11:58:23Z</time>
      </trkpt>
      <trkpt lat="49.09639" lon="6.94884">
        <ele>251.5220947</ele>
        <time>2009-04-15T11:58:43Z</time>
      </trkpt>
      <trkpt lat="49.09628" lon="6.94882">
        <ele>251.0413818</ele>
        <time>2009-04-15T11:58:53Z</time>
      </trkpt>
      <trkpt lat="49.09616" lon="6.94879">
        <ele>250.0802002</ele>
        <time>2009-04-15T11:59:01Z</time>
      </trkpt>
      <trkpt lat="49.09607" lon="6.94883">
        <ele>248.6381836</ele>
        <time>2009-04-15T11:59:08Z</time>
      </trkpt>
      <trkpt lat="49.09603" lon="6.94886">
        <ele>247.6767578</ele>
        <time>2009-04-15T11:59:12Z</time>
      </trkpt>
      <trkpt lat="49.0959" lon="6.94899">
        <ele>245.7541504</ele>
        <time>2009-04-15T11:59:23Z</time>
      </trkpt>
      <trkpt lat="49.09583" lon="6.9491">
        <ele>244.7928467</ele>
        <time>2009-04-15T11:59:31Z</time>
      </trkpt>
      <trkpt lat="49.09571" lon="6.94909">
        <ele>244.7928467</ele>
        <time>2009-04-15T11:59:41Z</time>
      </trkpt>
      <trkpt lat="49.0956" lon="6.94906">
        <ele>243.3508301</ele>
        <time>2009-04-15T11:59:51Z</time>
      </trkpt>
      <trkpt lat="49.09552" lon="6.94906">
        <ele>241.9089355</ele>
        <time>2009-04-15T11:59:58Z</time>
      </trkpt>
      <trkpt lat="49.09542" lon="6.94899">
        <ele>241.4282227</ele>
        <time>2009-04-15T12:00:04Z</time>
      </trkpt>
      <trkpt lat="49.09533" lon="6.94892">
        <ele>240.9476318</ele>
        <time>2009-04-15T12:00:10Z</time>
      </trkpt>
      <trkpt lat="49.09525" lon="6.94882">
        <ele>239.9862061</ele>
        <time>2009-04-15T12:00:17Z</time>
      </trkpt>
      <trkpt lat="49.09516" lon="6.94876">
        <ele>239.0249023</ele>
        <time>2009-04-15T12:00:25Z</time>
      </trkpt>
      <trkpt lat="49.09506" lon="6.94869">
        <ele>238.0635986</ele>
        <time>2009-04-15T12:00:34Z</time>
      </trkpt>
      <trkpt lat="49.09496" lon="6.94865">
        <ele>237.1022949</ele>
        <time>2009-04-15T12:00:42Z</time>
      </trkpt>
      <trkpt lat="49.09488" lon="6.94854">
        <ele>236.1409912</ele>
        <time>2009-04-15T12:00:50Z</time>
      </trkpt>
      <trkpt lat="49.09479" lon="6.94849">
        <ele>234.2183838</ele>
        <time>2009-04-15T12:00:58Z</time>
      </trkpt>
      <trkpt lat="49.09469" lon="6.94846">
        <ele>233.7376709</ele>
        <time>2009-04-15T12:01:05Z</time>
      </trkpt>
      <trkpt lat="49.09459" lon="6.94844">
        <ele>233.7376709</ele>
        <time>2009-04-15T12:01:12Z</time>
      </trkpt>
      <trkpt lat="49.09448" lon="6.94845">
        <ele>232.7764893</ele>
        <time>2009-04-15T12:01:20Z</time>
      </trkpt>
      <trkpt lat="49.0944" lon="6.94834">
        <ele>230.3730469</ele>
        <time>2009-04-15T12:01:38Z</time>
      </trkpt>
      <trkpt lat="49.09433" lon="6.94827">
        <ele>227.4891357</ele>
        <time>2009-04-15T12:01:52Z</time>
      </trkpt>
      <trkpt lat="49.09422" lon="6.94825">
        <ele>226.527832</ele>
        <time>2009-04-15T12:02:00Z</time>
      </trkpt>
      <trkpt lat="49.09411" lon="6.9482">
        <ele>226.0471191</ele>
        <time>2009-04-15T12:02:08Z</time>
      </trkpt>
      <trkpt lat="49.09398" lon="6.94817">
        <ele>226.0471191</ele>
        <time>2009-04-15T12:02:18Z</time>
      </trkpt>
      <trkpt lat="49.09392" lon="6.94806">
        <ele>225.5665283</ele>
        <time>2009-04-15T12:02:28Z</time>
      </trkpt>
      <trkpt lat="49.09384" lon="6.94797">
        <ele>225.5665283</ele>
        <time>2009-04-15T12:02:36Z</time>
      </trkpt>
      <trkpt lat="49.09375" lon="6.94795">
        <ele>225.0859375</ele>
        <time>2009-04-15T12:02:42Z</time>
      </trkpt>
      <trkpt lat="49.09366" lon="6.94789">
        <ele>225.5665283</ele>
        <time>2009-04-15T12:02:53Z</time>
      </trkpt>
      <trkpt lat="49.09357" lon="6.94782">
        <ele>225.5665283</ele>
        <time>2009-04-15T12:03:06Z</time>
      </trkpt>
      <trkpt lat="49.09349" lon="6.94774">
        <ele>225.0859375</ele>
        <time>2009-04-15T12:03:15Z</time>
      </trkpt>
      <trkpt lat="49.09341" lon="6.94764">
        <ele>225.0859375</ele>
        <time>2009-04-15T12:03:23Z</time>
      </trkpt>
      <trkpt lat="49.09335" lon="6.94753">
        <ele>226.527832</ele>
        <time>2009-04-15T12:03:31Z</time>
      </trkpt>
      <trkpt lat="49.0933" lon="6.94741">
        <ele>227.0085449</ele>
        <time>2009-04-15T12:03:41Z</time>
      </trkpt>
      <trkpt lat="49.09323" lon="6.9473">
        <ele>226.527832</ele>
        <time>2009-04-15T12:03:52Z</time>
      </trkpt>
      <trkpt lat="49.09311" lon="6.9473">
        <ele>226.527832</ele>
        <time>2009-04-15T12:04:05Z</time>
      </trkpt>
      <trkpt lat="49.093" lon="6.94726">
        <ele>226.0471191</ele>
        <time>2009-04-15T12:04:15Z</time>
      </trkpt>
      <trkpt lat="49.09289" lon="6.94724">
        <ele>226.527832</ele>
        <time>2009-04-15T12:04:26Z</time>
      </trkpt>
      <trkpt lat="49.09275" lon="6.94721">
        <ele>226.0471191</ele>
        <time>2009-04-15T12:04:36Z</time>
      </trkpt>
      <trkpt lat="49.09264" lon="6.9472">
        <ele>227.0085449</ele>
        <time>2009-04-15T12:04:44Z</time>
      </trkpt>
      <trkpt lat="49.09253" lon="6.94716">
        <ele>226.527832</ele>
        <time>2009-04-15T12:04:52Z</time>
      </trkpt>
      <trkpt lat="49.09242" lon="6.9472">
        <ele>227.0085449</ele>
        <time>2009-04-15T12:04:59Z</time>
      </trkpt>
      <trkpt lat="49.09235" lon="6.94716">
        <ele>226.527832</ele>
        <time>2009-04-15T12:05:06Z</time>
      </trkpt>
      <trkpt lat="49.09227" lon="6.94721">
        <ele>226.527832</ele>
        <time>2009-04-15T12:05:13Z</time>
      </trkpt>
      <trkpt lat="49.09218" lon="6.9472">
        <ele>228.4504395</ele>
        <time>2009-04-15T12:05:20Z</time>
      </trkpt>
      <trkpt lat="49.0921" lon="6.9472">
        <ele>229.892334</ele>
        <time>2009-04-15T12:05:27Z</time>
      </trkpt>
      <trkpt lat="49.09201" lon="6.9472">
        <ele>231.8149414</ele>
        <time>2009-04-15T12:05:35Z</time>
      </trkpt>
      <trkpt lat="49.09194" lon="6.94722">
        <ele>231.8149414</ele>
        <time>2009-04-15T12:05:42Z</time>
      </trkpt>
      <trkpt lat="49.09183" lon="6.94724">
        <ele>231.8149414</ele>
        <time>2009-04-15T12:05:52Z</time>
      </trkpt>
      <trkpt lat="49.09174" lon="6.94724">
        <ele>234.2183838</ele>
        <time>2009-04-15T12:06:02Z</time>
      </trkpt>
      <trkpt lat="49.09163" lon="6.94727">
        <ele>234.6990967</ele>
        <time>2009-04-15T12:06:12Z</time>
      </trkpt>
      <trkpt lat="49.09152" lon="6.94727">
        <ele>236.1409912</ele>
        <time>2009-04-15T12:06:24Z</time>
      </trkpt>
      <trkpt lat="49.09139" lon="6.94726">
        <ele>236.1409912</ele>
        <time>2009-04-15T12:06:38Z</time>
      </trkpt>
      <trkpt lat="49.09124" lon="6.94726">
        <ele>236.1409912</ele>
        <time>2009-04-15T12:06:47Z</time>
      </trkpt>
      <trkpt lat="49.09115" lon="6.94722">
        <ele>235.1796875</ele>
        <time>2009-04-15T12:06:55Z</time>
      </trkpt>
      <trkpt lat="49.09106" lon="6.94718">
        <ele>234.2183838</ele>
        <time>2009-04-15T12:07:03Z</time>
      </trkpt>
      <trkpt lat="49.091" lon="6.94713">
        <ele>233.7376709</ele>
        <time>2009-04-15T12:07:10Z</time>
      </trkpt>
      <trkpt lat="49.09099" lon="6.947">
        <ele>233.2570801</ele>
        <time>2009-04-15T12:07:16Z</time>
      </trkpt>
      <trkpt lat="49.09092" lon="6.94688">
        <ele>231.8149414</ele>
        <time>2009-04-15T12:07:23Z</time>
      </trkpt>
      <trkpt lat="49.09079" lon="6.94683">
        <ele>231.3343506</ele>
        <time>2009-04-15T12:07:29Z</time>
      </trkpt>
      <trkpt lat="49.09069" lon="6.94684">
        <ele>230.3730469</ele>
        <time>2009-04-15T12:07:35Z</time>
      </trkpt>
      <trkpt lat="49.09059" lon="6.94681">
        <ele>230.3730469</ele>
        <time>2009-04-15T12:07:42Z</time>
      </trkpt>
      <trkpt lat="49.09049" lon="6.94677">
        <ele>229.892334</ele>
        <time>2009-04-15T12:07:49Z</time>
      </trkpt>
      <trkpt lat="49.09039" lon="6.94676">
        <ele>229.892334</ele>
        <time>2009-04-15T12:07:56Z</time>
      </trkpt>
      <trkpt lat="49.09024" lon="6.94674">
        <ele>229.4117432</ele>
        <time>2009-04-15T12:08:03Z</time>
      </trkpt>
      <trkpt lat="49.09015" lon="6.94676">
        <ele>228.9311523</ele>
        <time>2009-04-15T12:08:10Z</time>
      </trkpt>
      <trkpt lat="49.09004" lon="6.94675">
        <ele>228.4504395</ele>
        <time>2009-04-15T12:08:17Z</time>
      </trkpt>
      <trkpt lat="49.08995" lon="6.94676">
        <ele>228.4504395</ele>
        <time>2009-04-15T12:08:24Z</time>
      </trkpt>
      <trkpt lat="49.08986" lon="6.94677">
        <ele>227.9697266</ele>
        <time>2009-04-15T12:08:31Z</time>
      </trkpt>
      <trkpt lat="49.08978" lon="6.94676">
        <ele>228.9311523</ele>
        <time>2009-04-15T12:08:41Z</time>
      </trkpt>
      <trkpt lat="49.08969" lon="6.94678">
        <ele>228.9311523</ele>
        <time>2009-04-15T12:08:51Z</time>
      </trkpt>
      <trkpt lat="49.08959" lon="6.94679">
        <ele>229.4117432</ele>
        <time>2009-04-15T12:09:01Z</time>
      </trkpt>
      <trkpt lat="49.08952" lon="6.94677">
        <ele>229.892334</ele>
        <time>2009-04-15T12:09:11Z</time>
      </trkpt>
      <trkpt lat="49.08941" lon="6.94667">
        <ele>229.892334</ele>
        <time>2009-04-15T12:09:18Z</time>
      </trkpt>
      <trkpt lat="49.08933" lon="6.9466">
        <ele>230.3730469</ele>
        <time>2009-04-15T12:09:24Z</time>
      </trkpt>
      <trkpt lat="49.08925" lon="6.94651">
        <ele>231.8149414</ele>
        <time>2009-04-15T12:09:30Z</time>
      </trkpt>
      <trkpt lat="49.08917" lon="6.94642">
        <ele>232.2957764</ele>
        <time>2009-04-15T12:09:37Z</time>
      </trkpt>
      <trkpt lat="49.0891" lon="6.94635">
        <ele>232.2957764</ele>
        <time>2009-04-15T12:09:44Z</time>
      </trkpt>
      <trkpt lat="49.08902" lon="6.94625">
        <ele>232.2957764</ele>
        <time>2009-04-15T12:09:51Z</time>
      </trkpt>
      <trkpt lat="49.08894" lon="6.94615">
        <ele>232.2957764</ele>
        <time>2009-04-15T12:09:59Z</time>
      </trkpt>
      <trkpt lat="49.08887" lon="6.94606">
        <ele>232.2957764</ele>
        <time>2009-04-15T12:10:10Z</time>
      </trkpt>
      <trkpt lat="49.08876" lon="6.94605">
        <ele>231.8149414</ele>
        <time>2009-04-15T12:10:22Z</time>
      </trkpt>
      <trkpt lat="49.08867" lon="6.94601">
        <ele>230.8537598</ele>
        <time>2009-04-15T12:10:29Z</time>
      </trkpt>
      <trkpt lat="49.08858" lon="6.94595">
        <ele>231.3343506</ele>
        <time>2009-04-15T12:10:36Z</time>
      </trkpt>
      <trkpt lat="49.08847" lon="6.94594">
        <ele>230.8537598</ele>
        <time>2009-04-15T12:10:44Z</time>
      </trkpt>
      <trkpt lat="49.08837" lon="6.94597">
        <ele>230.8537598</ele>
        <time>2009-04-15T12:10:52Z</time>
      </trkpt>
      <trkpt lat="49.08827" lon="6.94602">
        <ele>229.892334</ele>
        <time>2009-04-15T12:11:04Z</time>
      </trkpt>
      <trkpt lat="49.08817" lon="6.94604">
        <ele>230.8537598</ele>
        <time>2009-04-15T12:11:15Z</time>
      </trkpt>
      <trkpt lat="49.08805" lon="6.94606">
        <ele>230.8537598</ele>
        <time>2009-04-15T12:11:26Z</time>
      </trkpt>
      <trkpt lat="49.08796" lon="6.94602">
        <ele>230.3730469</ele>
        <time>2009-04-15T12:11:36Z</time>
      </trkpt>
      <trkpt lat="49.08787" lon="6.94598">
        <ele>230.3730469</ele>
        <time>2009-04-15T12:11:47Z</time>
      </trkpt>
      <trkpt lat="49.08778" lon="6.9459">
        <ele>230.3730469</ele>
        <time>2009-04-15T12:11:56Z</time>
      </trkpt>
      <trkpt lat="49.08769" lon="6.94586">
        <ele>230.8537598</ele>
        <time>2009-04-15T12:12:06Z</time>
      </trkpt>
      <trkpt lat="49.08753" lon="6.94597">
        <ele>230.3730469</ele>
        <time>2009-04-15T12:12:39Z</time>
      </trkpt>
      <trkpt lat="49.08752" lon="6.94591">
        <ele>230.8537598</ele>
        <time>2009-04-15T12:12:46Z</time>
      </trkpt>
      <trkpt lat="49.08746" lon="6.94603">
        <ele>230.3730469</ele>
        <time>2009-04-15T12:13:06Z</time>
      </trkpt>
      <trkpt lat="49.08736" lon="6.94607">
        <ele>230.3730469</ele>
        <time>2009-04-15T12:13:21Z</time>
      </trkpt>
      <trkpt lat="49.08726" lon="6.94626">
        <ele>233.7376709</ele>
        <time>2009-04-15T12:14:10Z</time>
      </trkpt>
      <trkpt lat="49.08717" lon="6.94628">
        <ele>236.1409912</ele>
        <time>2009-04-15T12:14:25Z</time>
      </trkpt>
      <trkpt lat="49.08706" lon="6.94635">
        <ele>239.0249023</ele>
        <time>2009-04-15T12:14:40Z</time>
      </trkpt>
      <trkpt lat="49.08697" lon="6.94643">
        <ele>241.4282227</ele>
        <time>2009-04-15T12:14:56Z</time>
      </trkpt>
      <trkpt lat="49.08658" lon="6.94731">
        <ele>248.1575928</ele>
        <time>2009-04-15T12:15:48Z</time>
      </trkpt>
      <trkpt lat="49.08643" lon="6.94742">
        <ele>248.1575928</ele>
        <time>2009-04-15T12:16:00Z</time>
      </trkpt>
      <trkpt lat="49.08633" lon="6.94741">
        <ele>246.7154541</ele>
        <time>2009-04-15T12:16:13Z</time>
      </trkpt>
      <trkpt lat="49.08622" lon="6.94745">
        <ele>245.7541504</ele>
        <time>2009-04-15T12:16:23Z</time>
      </trkpt>
      <trkpt lat="49.08606" lon="6.94751">
        <ele>243.831543</ele>
        <time>2009-04-15T12:16:33Z</time>
      </trkpt>
      <trkpt lat="49.08598" lon="6.94762">
        <ele>242.3896484</ele>
        <time>2009-04-15T12:16:43Z</time>
      </trkpt>
      <trkpt lat="49.08592" lon="6.94776">
        <ele>240.467041</ele>
        <time>2009-04-15T12:16:52Z</time>
      </trkpt>
      <trkpt lat="49.08585" lon="6.94798">
        <ele>239.5054932</ele>
        <time>2009-04-15T12:17:03Z</time>
      </trkpt>
      <trkpt lat="49.08579" lon="6.94805">
        <ele>238.0635986</ele>
        <time>2009-04-15T12:17:15Z</time>
      </trkpt>
      <trkpt lat="49.08569" lon="6.94809">
        <ele>237.1022949</ele>
        <time>2009-04-15T12:17:30Z</time>
      </trkpt>
      <trkpt lat="49.0856" lon="6.94815">
        <ele>236.1409912</ele>
        <time>2009-04-15T12:17:45Z</time>
      </trkpt>
      <trkpt lat="49.08545" lon="6.94825">
        <ele>234.6990967</ele>
        <time>2009-04-15T12:18:17Z</time>
      </trkpt>
      <trkpt lat="49.08522" lon="6.94828">
        <ele>235.1796875</ele>
        <time>2009-04-15T12:18:50Z</time>
      </trkpt>
      <trkpt lat="49.08505" lon="6.94827">
        <ele>235.1796875</ele>
        <time>2009-04-15T12:19:05Z</time>
      </trkpt>
      <trkpt lat="49.08494" lon="6.94819">
        <ele>235.1796875</ele>
        <time>2009-04-15T12:19:19Z</time>
      </trkpt>
      <trkpt lat="49.08482" lon="6.94825">
        <ele>236.1409912</ele>
        <time>2009-04-15T12:19:29Z</time>
      </trkpt>
      <trkpt lat="49.08471" lon="6.94818">
        <ele>237.1022949</ele>
        <time>2009-04-15T12:19:40Z</time>
      </trkpt>
      <trkpt lat="49.08467" lon="6.94802">
        <ele>238.0635986</ele>
        <time>2009-04-15T12:19:50Z</time>
      </trkpt>
      <trkpt lat="49.08461" lon="6.94788">
        <ele>238.5443115</ele>
        <time>2009-04-15T12:20:01Z</time>
      </trkpt>
      <trkpt lat="49.08445" lon="6.94776">
        <ele>238.5443115</ele>
        <time>2009-04-15T12:20:21Z</time>
      </trkpt>
      <trkpt lat="49.08436" lon="6.94759">
        <ele>239.0249023</ele>
        <time>2009-04-15T12:20:34Z</time>
      </trkpt>
      <trkpt lat="49.08425" lon="6.94752">
        <ele>239.9862061</ele>
        <time>2009-04-15T12:20:49Z</time>
      </trkpt>
      <trkpt lat="49.08413" lon="6.94745">
        <ele>240.467041</ele>
        <time>2009-04-15T12:21:00Z</time>
      </trkpt>
      <trkpt lat="49.08403" lon="6.94738">
        <ele>240.467041</ele>
        <time>2009-04-15T12:21:09Z</time>
      </trkpt>
      <trkpt lat="49.08392" lon="6.94731">
        <ele>241.9089355</ele>
        <time>2009-04-15T12:21:18Z</time>
      </trkpt>
      <trkpt lat="49.08383" lon="6.94719">
        <ele>242.3896484</ele>
        <time>2009-04-15T12:21:31Z</time>
      </trkpt>
      <trkpt lat="49.08375" lon="6.94708">
        <ele>242.8702393</ele>
        <time>2009-04-15T12:21:39Z</time>
      </trkpt>
      <trkpt lat="49.08366" lon="6.94701">
        <ele>242.8702393</ele>
        <time>2009-04-15T12:21:48Z</time>
      </trkpt>
      <trkpt lat="49.08356" lon="6.9469">
        <ele>243.3508301</ele>
        <time>2009-04-15T12:21:57Z</time>
      </trkpt>
      <trkpt lat="49.08346" lon="6.94684">
        <ele>243.831543</ele>
        <time>2009-04-15T12:22:09Z</time>
      </trkpt>
      <trkpt lat="49.08337" lon="6.94678">
        <ele>244.3122559</ele>
        <time>2009-04-15T12:22:18Z</time>
      </trkpt>
      <trkpt lat="49.08322" lon="6.94665">
        <ele>245.2734375</ele>
        <time>2009-04-15T12:22:39Z</time>
      </trkpt>
      <trkpt lat="49.08323" lon="6.94646">
        <ele>243.3508301</ele>
        <time>2009-04-15T12:22:50Z</time>
      </trkpt>
      <trkpt lat="49.08323" lon="6.94629">
        <ele>242.3896484</ele>
        <time>2009-04-15T12:23:02Z</time>
      </trkpt>
      <trkpt lat="49.0832" lon="6.94615">
        <ele>242.3896484</ele>
        <time>2009-04-15T12:23:13Z</time>
      </trkpt>
      <trkpt lat="49.08316" lon="6.94605">
        <ele>242.8702393</ele>
        <time>2009-04-15T12:23:36Z</time>
      </trkpt>
      <trkpt lat="49.08313" lon="6.94591">
        <ele>242.8702393</ele>
        <time>2009-04-15T12:23:47Z</time>
      </trkpt>
      <trkpt lat="49.08312" lon="6.94577">
        <ele>241.9089355</ele>
        <time>2009-04-15T12:23:59Z</time>
      </trkpt>
      <trkpt lat="49.0831" lon="6.94557">
        <ele>241.9089355</ele>
        <time>2009-04-15T12:24:14Z</time>
      </trkpt>
      <trkpt lat="49.08303" lon="6.94543">
        <ele>242.3896484</ele>
        <time>2009-04-15T12:24:29Z</time>
      </trkpt>
      <trkpt lat="49.08324" lon="6.94519">
        <ele>239.9862061</ele>
        <time>2009-04-15T12:25:37Z</time>
      </trkpt>
      <trkpt lat="49.08331" lon="6.94534">
        <ele>240.9476318</ele>
        <time>2009-04-15T12:25:55Z</time>
      </trkpt>
      <trkpt lat="49.08335" lon="6.9455">
        <ele>240.9476318</ele>
        <time>2009-04-15T12:26:09Z</time>
      </trkpt>
      <trkpt lat="49.08339" lon="6.94574">
        <ele>240.9476318</ele>
        <time>2009-04-15T12:26:23Z</time>
      </trkpt>
      <trkpt lat="49.08345" lon="6.94587">
        <ele>241.4282227</ele>
        <time>2009-04-15T12:26:36Z</time>
      </trkpt>
      <trkpt lat="49.08345" lon="6.94606">
        <ele>241.9089355</ele>
        <time>2009-04-15T12:26:47Z</time>
      </trkpt>
      <trkpt lat="49.0834" lon="6.94624">
        <ele>242.3896484</ele>
        <time>2009-04-15T12:27:01Z</time>
      </trkpt>
      <trkpt lat="49.08342" lon="6.94639">
        <ele>242.8702393</ele>
        <time>2009-04-15T12:27:14Z</time>
      </trkpt>
      <trkpt lat="49.08349" lon="6.94653">
        <ele>243.3508301</ele>
        <time>2009-04-15T12:27:30Z</time>
      </trkpt>
      <trkpt lat="49.08355" lon="6.94666">
        <ele>242.8702393</ele>
        <time>2009-04-15T12:27:48Z</time>
      </trkpt>
      <trkpt lat="49.08353" lon="6.94665">
        <ele>240.467041</ele>
        <time>2009-04-15T12:28:08Z</time>
      </trkpt>
      <trkpt lat="49.08361" lon="6.9465">
        <ele>239.5054932</ele>
        <time>2009-04-15T12:28:20Z</time>
      </trkpt>
      <trkpt lat="49.08374" lon="6.94648">
        <ele>239.5054932</ele>
        <time>2009-04-15T12:28:28Z</time>
      </trkpt>
      <trkpt lat="49.08387" lon="6.94656">
        <ele>238.5443115</ele>
        <time>2009-04-15T12:28:36Z</time>
      </trkpt>
      <trkpt lat="49.08399" lon="6.94661">
        <ele>238.0635986</ele>
        <time>2009-04-15T12:28:44Z</time>
      </trkpt>
      <trkpt lat="49.08409" lon="6.94664">
        <ele>237.1022949</ele>
        <time>2009-04-15T12:28:56Z</time>
      </trkpt>
      <trkpt lat="49.0842" lon="6.94681">
        <ele>237.5828857</ele>
        <time>2009-04-15T12:31:08Z</time>
      </trkpt>
      <trkpt lat="49.08416" lon="6.94678">
        <ele>238.5443115</ele>
        <time>2009-04-15T12:32:08Z</time>
      </trkpt>
      <trkpt lat="49.08408" lon="6.94683">
        <ele>239.5054932</ele>
        <time>2009-04-15T12:32:21Z</time>
      </trkpt>
      <trkpt lat="49.08395" lon="6.94676">
        <ele>239.9862061</ele>
        <time>2009-04-15T12:32:37Z</time>
      </trkpt>
      <trkpt lat="49.08387" lon="6.94671">
        <ele>240.467041</ele>
        <time>2009-04-15T12:32:45Z</time>
      </trkpt>
      <trkpt lat="49.08378" lon="6.94677">
        <ele>240.9476318</ele>
        <time>2009-04-15T12:32:54Z</time>
      </trkpt>
      <trkpt lat="49.0837" lon="6.94685">
        <ele>236.6217041</ele>
        <time>2009-04-15T12:33:03Z</time>
      </trkpt>
      <trkpt lat="49.08362" lon="6.94692">
        <ele>242.8702393</ele>
        <time>2009-04-15T12:33:12Z</time>
      </trkpt>
      <trkpt lat="49.08353" lon="6.94698">
        <ele>243.831543</ele>
        <time>2009-04-15T12:33:21Z</time>
      </trkpt>
      <trkpt lat="49.08342" lon="6.94702">
        <ele>244.3122559</ele>
        <time>2009-04-15T12:33:28Z</time>
      </trkpt>
      <trkpt lat="49.08332" lon="6.94703">
        <ele>244.3122559</ele>
        <time>2009-04-15T12:33:35Z</time>
      </trkpt>
      <trkpt lat="49.08323" lon="6.947">
        <ele>244.3122559</ele>
        <time>2009-04-15T12:33:43Z</time>
      </trkpt>
      <trkpt lat="49.08314" lon="6.94693">
        <ele>244.7928467</ele>
        <time>2009-04-15T12:33:51Z</time>
      </trkpt>
      <trkpt lat="49.08304" lon="6.94689">
        <ele>245.7541504</ele>
        <time>2009-04-15T12:33:59Z</time>
      </trkpt>
      <trkpt lat="49.08293" lon="6.94678">
        <ele>247.1960449</ele>
        <time>2009-04-15T12:34:08Z</time>
      </trkpt>
      <trkpt lat="49.08285" lon="6.94667">
        <ele>248.1575928</ele>
        <time>2009-04-15T12:34:18Z</time>
      </trkpt>
      <trkpt lat="49.08275" lon="6.94662">
        <ele>249.5994873</ele>
        <time>2009-04-15T12:34:26Z</time>
      </trkpt>
      <trkpt lat="49.08267" lon="6.94655">
        <ele>250.0802002</ele>
        <time>2009-04-15T12:34:34Z</time>
      </trkpt>
      <trkpt lat="49.08258" lon="6.94651">
        <ele>251.0413818</ele>
        <time>2009-04-15T12:34:42Z</time>
      </trkpt>
      <trkpt lat="49.08249" lon="6.94652">
        <ele>252.0028076</ele>
        <time>2009-04-15T12:34:51Z</time>
      </trkpt>
      <trkpt lat="49.0824" lon="6.94651">
        <ele>253.4447021</ele>
        <time>2009-04-15T12:35:01Z</time>
      </trkpt>
      <trkpt lat="49.0823" lon="6.94652">
        <ele>254.4060059</ele>
        <time>2009-04-15T12:35:11Z</time>
      </trkpt>
      <trkpt lat="49.08221" lon="6.9465">
        <ele>256.3287354</ele>
        <time>2009-04-15T12:35:21Z</time>
      </trkpt>
      <trkpt lat="49.08209" lon="6.9466">
        <ele>257.770752</ele>
        <time>2009-04-15T12:35:33Z</time>
      </trkpt>
      <trkpt lat="49.08199" lon="6.9466">
        <ele>259.2126465</ele>
        <time>2009-04-15T12:35:44Z</time>
      </trkpt>
      <trkpt lat="49.08188" lon="6.9467">
        <ele>259.6933594</ele>
        <time>2009-04-15T12:36:02Z</time>
      </trkpt>
      <trkpt lat="49.08178" lon="6.9468">
        <ele>260.654541</ele>
        <time>2009-04-15T12:36:15Z</time>
      </trkpt>
      <trkpt lat="49.08166" lon="6.94689">
        <ele>261.1352539</ele>
        <time>2009-04-15T12:36:24Z</time>
      </trkpt>
      <trkpt lat="49.08154" lon="6.94696">
        <ele>262.0965576</ele>
        <time>2009-04-15T12:36:34Z</time>
      </trkpt>
      <trkpt lat="49.08142" lon="6.94705">
        <ele>262.5771484</ele>
        <time>2009-04-15T12:36:43Z</time>
      </trkpt>
      <trkpt lat="49.08131" lon="6.94714">
        <ele>262.5771484</ele>
        <time>2009-04-15T12:36:51Z</time>
      </trkpt>
      <trkpt lat="49.08123" lon="6.94724">
        <ele>263.5385742</ele>
        <time>2009-04-15T12:36:57Z</time>
      </trkpt>
      <trkpt lat="49.08114" lon="6.94733">
        <ele>263.5385742</ele>
        <time>2009-04-15T12:37:05Z</time>
      </trkpt>
      <trkpt lat="49.08106" lon="6.94739">
        <ele>264.4998779</ele>
        <time>2009-04-15T12:37:19Z</time>
      </trkpt>
      <trkpt lat="49.08096" lon="6.94735">
        <ele>264.4998779</ele>
        <time>2009-04-15T12:37:27Z</time>
      </trkpt>
      <trkpt lat="49.08087" lon="6.94726">
        <ele>265.4613037</ele>
        <time>2009-04-15T12:37:34Z</time>
      </trkpt>
      <trkpt lat="49.08079" lon="6.94715">
        <ele>264.4998779</ele>
        <time>2009-04-15T12:37:41Z</time>
      </trkpt>
      <trkpt lat="49.0807" lon="6.94704">
        <ele>264.4998779</ele>
        <time>2009-04-15T12:37:49Z</time>
      </trkpt>
      <trkpt lat="49.08062" lon="6.94695">
        <ele>264.9805908</ele>
        <time>2009-04-15T12:37:57Z</time>
      </trkpt>
      <trkpt lat="49.08055" lon="6.94684">
        <ele>264.9805908</ele>
        <time>2009-04-15T12:38:04Z</time>
      </trkpt>
      <trkpt lat="49.08048" lon="6.94671">
        <ele>264.9805908</ele>
        <time>2009-04-15T12:38:11Z</time>
      </trkpt>
      <trkpt lat="49.08042" lon="6.9466">
        <ele>264.4998779</ele>
        <time>2009-04-15T12:38:17Z</time>
      </trkpt>
      <trkpt lat="49.08034" lon="6.94649">
        <ele>264.4998779</ele>
        <time>2009-04-15T12:38:24Z</time>
      </trkpt>
      <trkpt lat="49.08026" lon="6.94639">
        <ele>264.9805908</ele>
        <time>2009-04-15T12:38:31Z</time>
      </trkpt>
      <trkpt lat="49.08019" lon="6.94627">
        <ele>264.9805908</ele>
        <time>2009-04-15T12:38:38Z</time>
      </trkpt>
      <trkpt lat="49.08012" lon="6.94617">
        <ele>264.9805908</ele>
        <time>2009-04-15T12:38:45Z</time>
      </trkpt>
      <trkpt lat="49.08005" lon="6.94606">
        <ele>264.4998779</ele>
        <time>2009-04-15T12:38:52Z</time>
      </trkpt>
      <trkpt lat="49.07998" lon="6.94596">
        <ele>265.9418945</ele>
        <time>2009-04-15T12:38:59Z</time>
      </trkpt>
      <trkpt lat="49.07991" lon="6.94585">
        <ele>264.9805908</ele>
        <time>2009-04-15T12:39:06Z</time>
      </trkpt>
      <trkpt lat="49.07984" lon="6.94575">
        <ele>265.4613037</ele>
        <time>2009-04-15T12:39:13Z</time>
      </trkpt>
      <trkpt lat="49.07978" lon="6.94564">
        <ele>265.4613037</ele>
        <time>2009-04-15T12:39:20Z</time>
      </trkpt>
      <trkpt lat="49.07972" lon="6.94553">
        <ele>266.4224854</ele>
        <time>2009-04-15T12:39:27Z</time>
      </trkpt>
      <trkpt lat="49.07965" lon="6.94543">
        <ele>267.864502</ele>
        <time>2009-04-15T12:39:34Z</time>
      </trkpt>
      <trkpt lat="49.07959" lon="6.94531">
        <ele>267.3839111</ele>
        <time>2009-04-15T12:39:41Z</time>
      </trkpt>
      <trkpt lat="49.07953" lon="6.9452">
        <ele>267.3839111</ele>
        <time>2009-04-15T12:39:48Z</time>
      </trkpt>
      <trkpt lat="49.07947" lon="6.94509">
        <ele>267.3839111</ele>
        <time>2009-04-15T12:39:55Z</time>
      </trkpt>
      <trkpt lat="49.0794" lon="6.94507">
        <ele>267.3839111</ele>
        <time>2009-04-15T12:40:03Z</time>
      </trkpt>
      <trkpt lat="49.07934" lon="6.94522">
        <ele>266.4224854</ele>
        <time>2009-04-15T12:40:10Z</time>
      </trkpt>
      <trkpt lat="49.07928" lon="6.94536">
        <ele>265.4613037</ele>
        <time>2009-04-15T12:40:18Z</time>
      </trkpt>
      <trkpt lat="49.07924" lon="6.9455">
        <ele>264.4998779</ele>
        <time>2009-04-15T12:40:25Z</time>
      </trkpt>
      <trkpt lat="49.07923" lon="6.94564">
        <ele>263.5385742</ele>
        <time>2009-04-15T12:40:32Z</time>
      </trkpt>
      <trkpt lat="49.07923" lon="6.94578">
        <ele>264.0192871</ele>
        <time>2009-04-15T12:40:39Z</time>
      </trkpt>
      <trkpt lat="49.07923" lon="6.94593">
        <ele>263.5385742</ele>
        <time>2009-04-15T12:40:46Z</time>
      </trkpt>
      <trkpt lat="49.07921" lon="6.94607">
        <ele>263.0578613</ele>
        <time>2009-04-15T12:40:53Z</time>
      </trkpt>
      <trkpt lat="49.07919" lon="6.9462">
        <ele>262.5771484</ele>
        <time>2009-04-15T12:41:00Z</time>
      </trkpt>
      <trkpt lat="49.07916" lon="6.94636">
        <ele>261.6159668</ele>
        <time>2009-04-15T12:41:08Z</time>
      </trkpt>
      <trkpt lat="49.07915" lon="6.94649">
        <ele>261.6159668</ele>
        <time>2009-04-15T12:41:15Z</time>
      </trkpt>
      <trkpt lat="49.07913" lon="6.94663">
        <ele>261.6159668</ele>
        <time>2009-04-15T12:41:22Z</time>
      </trkpt>
      <trkpt lat="49.07911" lon="6.94677">
        <ele>261.1352539</ele>
        <time>2009-04-15T12:41:29Z</time>
      </trkpt>
      <trkpt lat="49.07908" lon="6.9469">
        <ele>260.654541</ele>
        <time>2009-04-15T12:41:35Z</time>
      </trkpt>
      <trkpt lat="49.07904" lon="6.94704">
        <ele>261.1352539</ele>
        <time>2009-04-15T12:41:42Z</time>
      </trkpt>
      <trkpt lat="49.079" lon="6.94718">
        <ele>260.654541</ele>
        <time>2009-04-15T12:41:49Z</time>
      </trkpt>
      <trkpt lat="49.07895" lon="6.9473">
        <ele>261.1352539</ele>
        <time>2009-04-15T12:41:56Z</time>
      </trkpt>
      <trkpt lat="49.0789" lon="6.94745">
        <ele>260.654541</ele>
        <time>2009-04-15T12:42:04Z</time>
      </trkpt>
      <trkpt lat="49.07883" lon="6.94756">
        <ele>261.1352539</ele>
        <time>2009-04-15T12:42:10Z</time>
      </trkpt>
      <trkpt lat="49.07877" lon="6.94765">
        <ele>261.1352539</ele>
        <time>2009-04-15T12:42:16Z</time>
      </trkpt>
      <trkpt lat="49.0787" lon="6.94774">
        <ele>261.1352539</ele>
        <time>2009-04-15T12:42:22Z</time>
      </trkpt>
      <trkpt lat="49.07863" lon="6.94785">
        <ele>260.654541</ele>
        <time>2009-04-15T12:42:29Z</time>
      </trkpt>
      <trkpt lat="49.07854" lon="6.9479">
        <ele>260.654541</ele>
        <time>2009-04-15T12:42:37Z</time>
      </trkpt>
      <trkpt lat="49.07846" lon="6.94801">
        <ele>260.654541</ele>
        <time>2009-04-15T12:42:44Z</time>
      </trkpt>
      <trkpt lat="49.07839" lon="6.94811">
        <ele>260.1739502</ele>
        <time>2009-04-15T12:42:51Z</time>
      </trkpt>
      <trkpt lat="49.07831" lon="6.9482">
        <ele>260.654541</ele>
        <time>2009-04-15T12:42:59Z</time>
      </trkpt>
      <trkpt lat="49.07823" lon="6.94827">
        <ele>260.654541</ele>
        <time>2009-04-15T12:43:07Z</time>
      </trkpt>
      <trkpt lat="49.07814" lon="6.94835">
        <ele>260.654541</ele>
        <time>2009-04-15T12:43:14Z</time>
      </trkpt>
      <trkpt lat="49.07806" lon="6.94843">
        <ele>260.1739502</ele>
        <time>2009-04-15T12:43:21Z</time>
      </trkpt>
      <trkpt lat="49.07798" lon="6.94852">
        <ele>260.654541</ele>
        <time>2009-04-15T12:43:28Z</time>
      </trkpt>
      <trkpt lat="49.0779" lon="6.94859">
        <ele>260.1739502</ele>
        <time>2009-04-15T12:43:35Z</time>
      </trkpt>
      <trkpt lat="49.07781" lon="6.94866">
        <ele>260.1739502</ele>
        <time>2009-04-15T12:43:42Z</time>
      </trkpt>
      <trkpt lat="49.07773" lon="6.94872">
        <ele>260.1739502</ele>
        <time>2009-04-15T12:43:49Z</time>
      </trkpt>
      <trkpt lat="49.07765" lon="6.94878">
        <ele>260.654541</ele>
        <time>2009-04-15T12:43:57Z</time>
      </trkpt>
      <trkpt lat="49.07757" lon="6.94885">
        <ele>260.1739502</ele>
        <time>2009-04-15T12:44:03Z</time>
      </trkpt>
      <trkpt lat="49.07749" lon="6.94893">
        <ele>260.654541</ele>
        <time>2009-04-15T12:44:09Z</time>
      </trkpt>
      <trkpt lat="49.07741" lon="6.94902">
        <ele>260.654541</ele>
        <time>2009-04-15T12:44:16Z</time>
      </trkpt>
      <trkpt lat="49.07732" lon="6.94911">
        <ele>259.6933594</ele>
        <time>2009-04-15T12:44:24Z</time>
      </trkpt>
      <trkpt lat="49.07724" lon="6.94917">
        <ele>260.1739502</ele>
        <time>2009-04-15T12:44:32Z</time>
      </trkpt>
      <trkpt lat="49.07717" lon="6.94926">
        <ele>259.2126465</ele>
        <time>2009-04-15T12:44:41Z</time>
      </trkpt>
      <trkpt lat="49.07708" lon="6.94935">
        <ele>260.1739502</ele>
        <time>2009-04-15T12:44:49Z</time>
      </trkpt>
      <trkpt lat="49.077" lon="6.94942">
        <ele>258.7319336</ele>
        <time>2009-04-15T12:44:56Z</time>
      </trkpt>
      <trkpt lat="49.07691" lon="6.94951">
        <ele>258.7319336</ele>
        <time>2009-04-15T12:45:02Z</time>
      </trkpt>
      <trkpt lat="49.07684" lon="6.94958">
        <ele>258.7319336</ele>
        <time>2009-04-15T12:45:09Z</time>
      </trkpt>
      <trkpt lat="49.07676" lon="6.94969">
        <ele>258.2513428</ele>
        <time>2009-04-15T12:45:17Z</time>
      </trkpt>
      <trkpt lat="49.07668" lon="6.94979">
        <ele>258.2513428</ele>
        <time>2009-04-15T12:45:24Z</time>
      </trkpt>
      <trkpt lat="49.07659" lon="6.94988">
        <ele>258.2513428</ele>
        <time>2009-04-15T12:45:31Z</time>
      </trkpt>
      <trkpt lat="49.07651" lon="6.94998">
        <ele>258.2513428</ele>
        <time>2009-04-15T12:45:37Z</time>
      </trkpt>
      <trkpt lat="49.07643" lon="6.95007">
        <ele>257.2900391</ele>
        <time>2009-04-15T12:45:44Z</time>
      </trkpt>
      <trkpt lat="49.07634" lon="6.95017">
        <ele>255.8480225</ele>
        <time>2009-04-15T12:45:51Z</time>
      </trkpt>
      <trkpt lat="49.07625" lon="6.95025">
        <ele>255.8480225</ele>
        <time>2009-04-15T12:45:58Z</time>
      </trkpt>
      <trkpt lat="49.07617" lon="6.95034">
        <ele>254.8865967</ele>
        <time>2009-04-15T12:46:04Z</time>
      </trkpt>
      <trkpt lat="49.0761" lon="6.95042">
        <ele>255.3673096</ele>
        <time>2009-04-15T12:46:09Z</time>
      </trkpt>
      <trkpt lat="49.07602" lon="6.95051">
        <ele>254.8865967</ele>
        <time>2009-04-15T12:46:15Z</time>
      </trkpt>
      <trkpt lat="49.07594" lon="6.95057">
        <ele>254.8865967</ele>
        <time>2009-04-15T12:46:21Z</time>
      </trkpt>
      <trkpt lat="49.07585" lon="6.95063">
        <ele>254.4060059</ele>
        <time>2009-04-15T12:46:27Z</time>
      </trkpt>
      <trkpt lat="49.07577" lon="6.95072">
        <ele>254.4060059</ele>
        <time>2009-04-15T12:46:34Z</time>
      </trkpt>
      <trkpt lat="49.07569" lon="6.9508">
        <ele>253.4447021</ele>
        <time>2009-04-15T12:46:42Z</time>
      </trkpt>
      <trkpt lat="49.07569" lon="6.9509">
        <ele>254.4060059</ele>
        <time>2009-04-15T12:46:47Z</time>
      </trkpt>
      <trkpt lat="49.07561" lon="6.95098">
        <ele>254.4060059</ele>
        <time>2009-04-15T12:46:54Z</time>
      </trkpt>
      <trkpt lat="49.07553" lon="6.95107">
        <ele>254.4060059</ele>
        <time>2009-04-15T12:47:01Z</time>
      </trkpt>
      <trkpt lat="49.07545" lon="6.95117">
        <ele>253.925415</ele>
        <time>2009-04-15T12:47:08Z</time>
      </trkpt>
      <trkpt lat="49.07538" lon="6.95127">
        <ele>253.925415</ele>
        <time>2009-04-15T12:47:15Z</time>
      </trkpt>
      <trkpt lat="49.07531" lon="6.95136">
        <ele>254.4060059</ele>
        <time>2009-04-15T12:47:23Z</time>
      </trkpt>
      <trkpt lat="49.07524" lon="6.95147">
        <ele>253.925415</ele>
        <time>2009-04-15T12:47:31Z</time>
      </trkpt>
      <trkpt lat="49.07517" lon="6.9516">
        <ele>254.8865967</ele>
        <time>2009-04-15T12:47:38Z</time>
      </trkpt>
      <trkpt lat="49.07511" lon="6.95172">
        <ele>255.8480225</ele>
        <time>2009-04-15T12:47:44Z</time>
      </trkpt>
      <trkpt lat="49.07508" lon="6.95186">
        <ele>255.8480225</ele>
        <time>2009-04-15T12:47:51Z</time>
      </trkpt>
      <trkpt lat="49.07504" lon="6.95199">
        <ele>255.8480225</ele>
        <time>2009-04-15T12:47:58Z</time>
      </trkpt>
      <trkpt lat="49.07503" lon="6.95214">
        <ele>255.3673096</ele>
        <time>2009-04-15T12:48:05Z</time>
      </trkpt>
      <trkpt lat="49.07504" lon="6.95229">
        <ele>255.8480225</ele>
        <time>2009-04-15T12:48:12Z</time>
      </trkpt>
      <trkpt lat="49.07504" lon="6.95244">
        <ele>256.8093262</ele>
        <time>2009-04-15T12:48:20Z</time>
      </trkpt>
      <trkpt lat="49.07504" lon="6.95259">
        <ele>256.8093262</ele>
        <time>2009-04-15T12:48:27Z</time>
      </trkpt>
      <trkpt lat="49.07505" lon="6.95274">
        <ele>257.2900391</ele>
        <time>2009-04-15T12:48:34Z</time>
      </trkpt>
      <trkpt lat="49.07505" lon="6.95289">
        <ele>257.2900391</ele>
        <time>2009-04-15T12:48:41Z</time>
      </trkpt>
      <trkpt lat="49.07506" lon="6.95304">
        <ele>257.770752</ele>
        <time>2009-04-15T12:48:48Z</time>
      </trkpt>
      <trkpt lat="49.07504" lon="6.9532">
        <ele>258.2513428</ele>
        <time>2009-04-15T12:48:55Z</time>
      </trkpt>
      <trkpt lat="49.07498" lon="6.95335">
        <ele>257.770752</ele>
        <time>2009-04-15T12:49:03Z</time>
      </trkpt>
      <trkpt lat="49.07494" lon="6.9535">
        <ele>257.770752</ele>
        <time>2009-04-15T12:49:10Z</time>
      </trkpt>
      <trkpt lat="49.07487" lon="6.95362">
        <ele>257.770752</ele>
        <time>2009-04-15T12:49:18Z</time>
      </trkpt>
      <trkpt lat="49.0748" lon="6.95371">
        <ele>257.2900391</ele>
        <time>2009-04-15T12:49:25Z</time>
      </trkpt>
      <trkpt lat="49.07471" lon="6.95379">
        <ele>256.8093262</ele>
        <time>2009-04-15T12:49:33Z</time>
      </trkpt>
      <trkpt lat="49.07472" lon="6.9539">
        <ele>256.3287354</ele>
        <time>2009-04-15T12:49:42Z</time>
      </trkpt>
      <trkpt lat="49.07478" lon="6.95401">
        <ele>256.3287354</ele>
        <time>2009-04-15T12:49:50Z</time>
      </trkpt>
      <trkpt lat="49.07483" lon="6.95413">
        <ele>255.3673096</ele>
        <time>2009-04-15T12:49:57Z</time>
      </trkpt>
      <trkpt lat="49.07487" lon="6.95427">
        <ele>253.925415</ele>
        <time>2009-04-15T12:50:04Z</time>
      </trkpt>
      <trkpt lat="49.07492" lon="6.95441">
        <ele>252.9639893</ele>
        <time>2009-04-15T12:50:12Z</time>
      </trkpt>
      <trkpt lat="49.07497" lon="6.95453">
        <ele>252.0028076</ele>
        <time>2009-04-15T12:50:18Z</time>
      </trkpt>
      <trkpt lat="49.07503" lon="6.95462">
        <ele>251.5220947</ele>
        <time>2009-04-15T12:50:24Z</time>
      </trkpt>
      <trkpt lat="49.07512" lon="6.95464">
        <ele>251.0413818</ele>
        <time>2009-04-15T12:50:31Z</time>
      </trkpt>
      <trkpt lat="49.0752" lon="6.9546">
        <ele>252.4833984</ele>
        <time>2009-04-15T12:50:38Z</time>
      </trkpt>
      <trkpt lat="49.07529" lon="6.95454">
        <ele>252.4833984</ele>
        <time>2009-04-15T12:50:45Z</time>
      </trkpt>
      <trkpt lat="49.07536" lon="6.95445">
        <ele>252.4833984</ele>
        <time>2009-04-15T12:50:52Z</time>
      </trkpt>
      <trkpt lat="49.07546" lon="6.95444">
        <ele>252.9639893</ele>
        <time>2009-04-15T12:50:58Z</time>
      </trkpt>
      <trkpt lat="49.07554" lon="6.95438">
        <ele>252.9639893</ele>
        <time>2009-04-15T12:51:05Z</time>
      </trkpt>
      <trkpt lat="49.07563" lon="6.95431">
        <ele>252.4833984</ele>
        <time>2009-04-15T12:51:12Z</time>
      </trkpt>
      <trkpt lat="49.0757" lon="6.95427">
        <ele>251.0413818</ele>
        <time>2009-04-15T12:51:18Z</time>
      </trkpt>
      <trkpt lat="49.07577" lon="6.95419">
        <ele>249.5994873</ele>
        <time>2009-04-15T12:51:25Z</time>
      </trkpt>
      <trkpt lat="49.07584" lon="6.95412">
        <ele>248.6381836</ele>
        <time>2009-04-15T12:51:32Z</time>
      </trkpt>
      <trkpt lat="49.07592" lon="6.95403">
        <ele>247.6767578</ele>
        <time>2009-04-15T12:51:39Z</time>
      </trkpt>
      <trkpt lat="49.07596" lon="6.95394">
        <ele>246.2348633</ele>
        <time>2009-04-15T12:51:51Z</time>
      </trkpt>
      <trkpt lat="49.07605" lon="6.95398">
        <ele>245.7541504</ele>
        <time>2009-04-15T12:51:59Z</time>
      </trkpt>
      <trkpt lat="49.07613" lon="6.95412">
        <ele>245.7541504</ele>
        <time>2009-04-15T12:52:06Z</time>
      </trkpt>
      <trkpt lat="49.07617" lon="6.95428">
        <ele>244.7928467</ele>
        <time>2009-04-15T12:52:13Z</time>
      </trkpt>
      <trkpt lat="49.07622" lon="6.95444">
        <ele>244.7928467</ele>
        <time>2009-04-15T12:52:20Z</time>
      </trkpt>
      <trkpt lat="49.07626" lon="6.95456">
        <ele>244.3122559</ele>
        <time>2009-04-15T12:52:27Z</time>
      </trkpt>
      <trkpt lat="49.07629" lon="6.95472">
        <ele>243.831543</ele>
        <time>2009-04-15T12:52:34Z</time>
      </trkpt>
      <trkpt lat="49.07632" lon="6.95488">
        <ele>243.831543</ele>
        <time>2009-04-15T12:52:41Z</time>
      </trkpt>
      <trkpt lat="49.07633" lon="6.95503">
        <ele>243.3508301</ele>
        <time>2009-04-15T12:52:47Z</time>
      </trkpt>
      <trkpt lat="49.07633" lon="6.95519">
        <ele>242.8702393</ele>
        <time>2009-04-15T12:52:54Z</time>
      </trkpt>
      <trkpt lat="49.07634" lon="6.95534">
        <ele>242.8702393</ele>
        <time>2009-04-15T12:53:01Z</time>
      </trkpt>
      <trkpt lat="49.07634" lon="6.9555">
        <ele>242.8702393</ele>
        <time>2009-04-15T12:53:08Z</time>
      </trkpt>
      <trkpt lat="49.07635" lon="6.95567">
        <ele>241.9089355</ele>
        <time>2009-04-15T12:53:16Z</time>
      </trkpt>
      <trkpt lat="49.07634" lon="6.95582">
        <ele>241.9089355</ele>
        <time>2009-04-15T12:53:23Z</time>
      </trkpt>
      <trkpt lat="49.07634" lon="6.95598">
        <ele>241.9089355</ele>
        <time>2009-04-15T12:53:31Z</time>
      </trkpt>
      <trkpt lat="49.07636" lon="6.95615">
        <ele>239.9862061</ele>
        <time>2009-04-15T12:53:39Z</time>
      </trkpt>
      <trkpt lat="49.07637" lon="6.95631">
        <ele>240.9476318</ele>
        <time>2009-04-15T12:53:46Z</time>
      </trkpt>
      <trkpt lat="49.07638" lon="6.95645">
        <ele>240.9476318</ele>
        <time>2009-04-15T12:53:52Z</time>
      </trkpt>
      <trkpt lat="49.07637" lon="6.95659">
        <ele>240.467041</ele>
        <time>2009-04-15T12:53:58Z</time>
      </trkpt>
      <trkpt lat="49.07634" lon="6.95673">
        <ele>240.9476318</ele>
        <time>2009-04-15T12:54:05Z</time>
      </trkpt>
      <trkpt lat="49.07627" lon="6.95686">
        <ele>240.9476318</ele>
        <time>2009-04-15T12:54:13Z</time>
      </trkpt>
      <trkpt lat="49.0762" lon="6.95696">
        <ele>240.467041</ele>
        <time>2009-04-15T12:54:20Z</time>
      </trkpt>
      <trkpt lat="49.07609" lon="6.95703">
        <ele>240.9476318</ele>
        <time>2009-04-15T12:54:28Z</time>
      </trkpt>
      <trkpt lat="49.07599" lon="6.95708">
        <ele>240.9476318</ele>
        <time>2009-04-15T12:54:35Z</time>
      </trkpt>
      <trkpt lat="49.07589" lon="6.95716">
        <ele>240.467041</ele>
        <time>2009-04-15T12:54:42Z</time>
      </trkpt>
      <trkpt lat="49.07584" lon="6.95729">
        <ele>240.467041</ele>
        <time>2009-04-15T12:54:50Z</time>
      </trkpt>
      <trkpt lat="49.07581" lon="6.95741">
        <ele>239.5054932</ele>
        <time>2009-04-15T12:54:58Z</time>
      </trkpt>
      <trkpt lat="49.07582" lon="6.95758">
        <ele>239.0249023</ele>
        <time>2009-04-15T12:55:06Z</time>
      </trkpt>
      <trkpt lat="49.07581" lon="6.95772">
        <ele>238.5443115</ele>
        <time>2009-04-15T12:55:13Z</time>
      </trkpt>
      <trkpt lat="49.07578" lon="6.95787">
        <ele>239.0249023</ele>
        <time>2009-04-15T12:55:20Z</time>
      </trkpt>
      <trkpt lat="49.07576" lon="6.95802">
        <ele>238.0635986</ele>
        <time>2009-04-15T12:55:27Z</time>
      </trkpt>
      <trkpt lat="49.07575" lon="6.95815">
        <ele>238.5443115</ele>
        <time>2009-04-15T12:55:34Z</time>
      </trkpt>
      <trkpt lat="49.07573" lon="6.95829">
        <ele>238.5443115</ele>
        <time>2009-04-15T12:55:42Z</time>
      </trkpt>
      <trkpt lat="49.07574" lon="6.95844">
        <ele>238.5443115</ele>
        <time>2009-04-15T12:55:50Z</time>
      </trkpt>
      <trkpt lat="49.07578" lon="6.95858">
        <ele>238.5443115</ele>
        <time>2009-04-15T12:55:58Z</time>
      </trkpt>
      <trkpt lat="49.07586" lon="6.95865">
        <ele>239.5054932</ele>
        <time>2009-04-15T12:56:05Z</time>
      </trkpt>
      <trkpt lat="49.07593" lon="6.95873">
        <ele>238.5443115</ele>
        <time>2009-04-15T12:56:13Z</time>
      </trkpt>
      <trkpt lat="49.07602" lon="6.95881">
        <ele>239.5054932</ele>
        <time>2009-04-15T12:56:21Z</time>
      </trkpt>
      <trkpt lat="49.07611" lon="6.9589">
        <ele>239.0249023</ele>
        <time>2009-04-15T12:56:29Z</time>
      </trkpt>
      <trkpt lat="49.0762" lon="6.95897">
        <ele>239.0249023</ele>
        <time>2009-04-15T12:56:36Z</time>
      </trkpt>
      <trkpt lat="49.07628" lon="6.95906">
        <ele>238.5443115</ele>
        <time>2009-04-15T12:56:43Z</time>
      </trkpt>
      <trkpt lat="49.07639" lon="6.95913">
        <ele>239.0249023</ele>
        <time>2009-04-15T12:56:50Z</time>
      </trkpt>
      <trkpt lat="49.07647" lon="6.9592">
        <ele>239.0249023</ele>
        <time>2009-04-15T12:56:56Z</time>
      </trkpt>
      <trkpt lat="49.07656" lon="6.95926">
        <ele>238.5443115</ele>
        <time>2009-04-15T12:57:04Z</time>
      </trkpt>
      <trkpt lat="49.07665" lon="6.95924">
        <ele>238.0635986</ele>
        <time>2009-04-15T12:57:11Z</time>
      </trkpt>
      <trkpt lat="49.07675" lon="6.95927">
        <ele>238.0635986</ele>
        <time>2009-04-15T12:57:17Z</time>
      </trkpt>
      <trkpt lat="49.07684" lon="6.95927">
        <ele>237.5828857</ele>
        <time>2009-04-15T12:57:25Z</time>
      </trkpt>
      <trkpt lat="49.0769" lon="6.95917">
        <ele>238.0635986</ele>
        <time>2009-04-15T12:57:45Z</time>
      </trkpt>
      <trkpt lat="49.07694" lon="6.95902">
        <ele>237.5828857</ele>
        <time>2009-04-15T12:57:53Z</time>
      </trkpt>
      <trkpt lat="49.07699" lon="6.95886">
        <ele>238.0635986</ele>
        <time>2009-04-15T12:58:01Z</time>
      </trkpt>
      <trkpt lat="49.07703" lon="6.95871">
        <ele>237.5828857</ele>
        <time>2009-04-15T12:58:10Z</time>
      </trkpt>
      <trkpt lat="49.07709" lon="6.95857">
        <ele>237.5828857</ele>
        <time>2009-04-15T12:58:18Z</time>
      </trkpt>
      <trkpt lat="49.07714" lon="6.95844">
        <ele>237.5828857</ele>
        <time>2009-04-15T12:58:26Z</time>
      </trkpt>
      <trkpt lat="49.0772" lon="6.95833">
        <ele>237.5828857</ele>
        <time>2009-04-15T12:58:35Z</time>
      </trkpt>
      <trkpt lat="49.07727" lon="6.95824">
        <ele>237.5828857</ele>
        <time>2009-04-15T12:58:42Z</time>
      </trkpt>
      <trkpt lat="49.07729" lon="6.95815">
        <ele>238.0635986</ele>
        <time>2009-04-15T12:58:51Z</time>
      </trkpt>
      <trkpt lat="49.0772" lon="6.95805">
        <ele>237.1022949</ele>
        <time>2009-04-15T12:59:02Z</time>
      </trkpt>
      <trkpt lat="49.07711" lon="6.95794">
        <ele>238.0635986</ele>
        <time>2009-04-15T12:59:11Z</time>
      </trkpt>
      <trkpt lat="49.07707" lon="6.9578">
        <ele>237.5828857</ele>
        <time>2009-04-15T12:59:19Z</time>
      </trkpt>
      <trkpt lat="49.07704" lon="6.95766">
        <ele>237.5828857</ele>
        <time>2009-04-15T12:59:26Z</time>
      </trkpt>
      <trkpt lat="49.07699" lon="6.95752">
        <ele>237.1022949</ele>
        <time>2009-04-15T12:59:34Z</time>
      </trkpt>
      <trkpt lat="49.07688" lon="6.95746">
        <ele>237.1022949</ele>
        <time>2009-04-15T12:59:42Z</time>
      </trkpt>
      <trkpt lat="49.07679" lon="6.95739">
        <ele>237.1022949</ele>
        <time>2009-04-15T12:59:50Z</time>
      </trkpt>
      <trkpt lat="49.07672" lon="6.9573">
        <ele>237.5828857</ele>
        <time>2009-04-15T12:59:59Z</time>
      </trkpt>
      <trkpt lat="49.07665" lon="6.95717">
        <ele>238.0635986</ele>
        <time>2009-04-15T13:00:08Z</time>
      </trkpt>
      <trkpt lat="49.07659" lon="6.95704">
        <ele>238.0635986</ele>
        <time>2009-04-15T13:00:16Z</time>
      </trkpt>
      <trkpt lat="49.07655" lon="6.95688">
        <ele>238.5443115</ele>
        <time>2009-04-15T13:00:25Z</time>
      </trkpt>
      <trkpt lat="49.07654" lon="6.95675">
        <ele>239.0249023</ele>
        <time>2009-04-15T13:00:47Z</time>
      </trkpt>
      <trkpt lat="49.07649" lon="6.95662">
        <ele>239.5054932</ele>
        <time>2009-04-15T13:00:56Z</time>
      </trkpt>
      <trkpt lat="49.07643" lon="6.95653">
        <ele>239.5054932</ele>
        <time>2009-04-15T13:01:05Z</time>
      </trkpt>
      <trkpt lat="49.07634" lon="6.95649">
        <ele>239.5054932</ele>
        <time>2009-04-15T13:01:15Z</time>
      </trkpt>
      <trkpt lat="49.07631" lon="6.95635">
        <ele>239.9862061</ele>
        <time>2009-04-15T13:01:23Z</time>
      </trkpt>
      <trkpt lat="49.07631" lon="6.9562">
        <ele>239.9862061</ele>
        <time>2009-04-15T13:01:29Z</time>
      </trkpt>
      <trkpt lat="49.07631" lon="6.95605">
        <ele>239.9862061</ele>
        <time>2009-04-15T13:01:36Z</time>
      </trkpt>
      <trkpt lat="49.07631" lon="6.95591">
        <ele>239.9862061</ele>
        <time>2009-04-15T13:01:43Z</time>
      </trkpt>
      <trkpt lat="49.07632" lon="6.95577">
        <ele>240.467041</ele>
        <time>2009-04-15T13:01:50Z</time>
      </trkpt>
      <trkpt lat="49.0763" lon="6.95562">
        <ele>240.9476318</ele>
        <time>2009-04-15T13:01:57Z</time>
      </trkpt>
      <trkpt lat="49.0763" lon="6.95547">
        <ele>241.4282227</ele>
        <time>2009-04-15T13:02:05Z</time>
      </trkpt>
      <trkpt lat="49.07629" lon="6.95531">
        <ele>241.4282227</ele>
        <time>2009-04-15T13:02:23Z</time>
      </trkpt>
      <trkpt lat="49.07629" lon="6.95517">
        <ele>241.4282227</ele>
        <time>2009-04-15T13:02:30Z</time>
      </trkpt>
      <trkpt lat="49.07628" lon="6.95503">
        <ele>242.3896484</ele>
        <time>2009-04-15T13:02:37Z</time>
      </trkpt>
      <trkpt lat="49.07627" lon="6.95489">
        <ele>242.8702393</ele>
        <time>2009-04-15T13:02:44Z</time>
      </trkpt>
      <trkpt lat="49.07625" lon="6.95475">
        <ele>243.831543</ele>
        <time>2009-04-15T13:02:52Z</time>
      </trkpt>
      <trkpt lat="49.07622" lon="6.95462">
        <ele>244.3122559</ele>
        <time>2009-04-15T13:02:59Z</time>
      </trkpt>
      <trkpt lat="49.07619" lon="6.95449">
        <ele>244.7928467</ele>
        <time>2009-04-15T13:03:06Z</time>
      </trkpt>
      <trkpt lat="49.07615" lon="6.95434">
        <ele>244.7928467</ele>
        <time>2009-04-15T13:03:13Z</time>
      </trkpt>
      <trkpt lat="49.07611" lon="6.95422">
        <ele>245.2734375</ele>
        <time>2009-04-15T13:03:20Z</time>
      </trkpt>
      <trkpt lat="49.07608" lon="6.95408">
        <ele>245.7541504</ele>
        <time>2009-04-15T13:03:27Z</time>
      </trkpt>
      <trkpt lat="49.076" lon="6.95401">
        <ele>246.7154541</ele>
        <time>2009-04-15T13:03:35Z</time>
      </trkpt>
      <trkpt lat="49.07591" lon="6.95406">
        <ele>248.1575928</ele>
        <time>2009-04-15T13:03:43Z</time>
      </trkpt>
      <trkpt lat="49.07583" lon="6.95415">
        <ele>249.5994873</ele>
        <time>2009-04-15T13:03:50Z</time>
      </trkpt>
      <trkpt lat="49.07575" lon="6.95423">
        <ele>249.5994873</ele>
        <time>2009-04-15T13:03:57Z</time>
      </trkpt>
      <trkpt lat="49.07566" lon="6.9543">
        <ele>251.5220947</ele>
        <time>2009-04-15T13:04:05Z</time>
      </trkpt>
      <trkpt lat="49.07558" lon="6.95436">
        <ele>252.0028076</ele>
        <time>2009-04-15T13:04:12Z</time>
      </trkpt>
      <trkpt lat="49.07549" lon="6.95442">
        <ele>252.4833984</ele>
        <time>2009-04-15T13:04:19Z</time>
      </trkpt>
      <trkpt lat="49.0754" lon="6.95448">
        <ele>253.4447021</ele>
        <time>2009-04-15T13:04:26Z</time>
      </trkpt>
      <trkpt lat="49.07532" lon="6.95453">
        <ele>252.9639893</ele>
        <time>2009-04-15T13:04:33Z</time>
      </trkpt>
      <trkpt lat="49.07523" lon="6.9546">
        <ele>252.4833984</ele>
        <time>2009-04-15T13:04:40Z</time>
      </trkpt>
      <trkpt lat="49.07515" lon="6.95466">
        <ele>252.4833984</ele>
        <time>2009-04-15T13:04:47Z</time>
      </trkpt>
      <trkpt lat="49.07505" lon="6.95471">
        <ele>252.0028076</ele>
        <time>2009-04-15T13:04:55Z</time>
      </trkpt>
      <trkpt lat="49.07496" lon="6.95467">
        <ele>252.0028076</ele>
        <time>2009-04-15T13:05:02Z</time>
      </trkpt>
      <trkpt lat="49.07488" lon="6.95456">
        <ele>252.4833984</ele>
        <time>2009-04-15T13:05:09Z</time>
      </trkpt>
      <trkpt lat="49.07484" lon="6.95441">
        <ele>254.4060059</ele>
        <time>2009-04-15T13:05:17Z</time>
      </trkpt>
      <trkpt lat="49.07479" lon="6.95427">
        <ele>255.8480225</ele>
        <time>2009-04-15T13:05:24Z</time>
      </trkpt>
      <trkpt lat="49.07475" lon="6.95414">
        <ele>256.8093262</ele>
        <time>2009-04-15T13:05:31Z</time>
      </trkpt>
      <trkpt lat="49.07471" lon="6.95401">
        <ele>256.8093262</ele>
        <time>2009-04-15T13:05:38Z</time>
      </trkpt>
      <trkpt lat="49.07466" lon="6.95388">
        <ele>257.770752</ele>
        <time>2009-04-15T13:05:45Z</time>
      </trkpt>
      <trkpt lat="49.07459" lon="6.9538">
        <ele>257.770752</ele>
        <time>2009-04-15T13:05:53Z</time>
      </trkpt>
      <trkpt lat="49.0745" lon="6.95385">
        <ele>257.770752</ele>
        <time>2009-04-15T13:06:00Z</time>
      </trkpt>
      <trkpt lat="49.07441" lon="6.95389">
        <ele>257.2900391</ele>
        <time>2009-04-15T13:06:07Z</time>
      </trkpt>
      <trkpt lat="49.07431" lon="6.95392">
        <ele>257.770752</ele>
        <time>2009-04-15T13:06:14Z</time>
      </trkpt>
      <trkpt lat="49.07422" lon="6.95397">
        <ele>257.770752</ele>
        <time>2009-04-15T13:06:21Z</time>
      </trkpt>
      <trkpt lat="49.07413" lon="6.95401">
        <ele>257.2900391</ele>
        <time>2009-04-15T13:06:28Z</time>
      </trkpt>
      <trkpt lat="49.07403" lon="6.95406">
        <ele>256.8093262</ele>
        <time>2009-04-15T13:06:35Z</time>
      </trkpt>
      <trkpt lat="49.07394" lon="6.95412">
        <ele>257.2900391</ele>
        <time>2009-04-15T13:06:42Z</time>
      </trkpt>
      <trkpt lat="49.07385" lon="6.95417">
        <ele>257.2900391</ele>
        <time>2009-04-15T13:06:49Z</time>
      </trkpt>
      <trkpt lat="49.07375" lon="6.95422">
        <ele>256.8093262</ele>
        <time>2009-04-15T13:06:56Z</time>
      </trkpt>
      <trkpt lat="49.07366" lon="6.95427">
        <ele>257.2900391</ele>
        <time>2009-04-15T13:07:03Z</time>
      </trkpt>
      <trkpt lat="49.07357" lon="6.95432">
        <ele>257.2900391</ele>
        <time>2009-04-15T13:07:10Z</time>
      </trkpt>
      <trkpt lat="49.07348" lon="6.95436">
        <ele>257.770752</ele>
        <time>2009-04-15T13:07:17Z</time>
      </trkpt>
      <trkpt lat="49.07339" lon="6.95439">
        <ele>257.770752</ele>
        <time>2009-04-15T13:07:24Z</time>
      </trkpt>
      <trkpt lat="49.07329" lon="6.95443">
        <ele>257.770752</ele>
        <time>2009-04-15T13:07:31Z</time>
      </trkpt>
      <trkpt lat="49.07319" lon="6.95446">
        <ele>257.770752</ele>
        <time>2009-04-15T13:07:38Z</time>
      </trkpt>
      <trkpt lat="49.0731" lon="6.95449">
        <ele>257.770752</ele>
        <time>2009-04-15T13:07:45Z</time>
      </trkpt>
      <trkpt lat="49.07301" lon="6.95451">
        <ele>258.2513428</ele>
        <time>2009-04-15T13:07:52Z</time>
      </trkpt>
      <trkpt lat="49.07292" lon="6.95453">
        <ele>258.2513428</ele>
        <time>2009-04-15T13:07:59Z</time>
      </trkpt>
      <trkpt lat="49.07282" lon="6.95456">
        <ele>258.2513428</ele>
        <time>2009-04-15T13:08:06Z</time>
      </trkpt>
      <trkpt lat="49.07272" lon="6.95459">
        <ele>258.2513428</ele>
        <time>2009-04-15T13:08:13Z</time>
      </trkpt>
      <trkpt lat="49.07263" lon="6.95462">
        <ele>258.2513428</ele>
        <time>2009-04-15T13:08:20Z</time>
      </trkpt>
      <trkpt lat="49.07253" lon="6.95466">
        <ele>258.2513428</ele>
        <time>2009-04-15T13:08:27Z</time>
      </trkpt>
      <trkpt lat="49.07244" lon="6.95467">
        <ele>258.7319336</ele>
        <time>2009-04-15T13:08:34Z</time>
      </trkpt>
      <trkpt lat="49.07234" lon="6.9547">
        <ele>257.770752</ele>
        <time>2009-04-15T13:08:41Z</time>
      </trkpt>
      <trkpt lat="49.07226" lon="6.95474">
        <ele>258.2513428</ele>
        <time>2009-04-15T13:08:48Z</time>
      </trkpt>
      <trkpt lat="49.07216" lon="6.95478">
        <ele>258.7319336</ele>
        <time>2009-04-15T13:08:55Z</time>
      </trkpt>
      <trkpt lat="49.07207" lon="6.95482">
        <ele>258.7319336</ele>
        <time>2009-04-15T13:09:02Z</time>
      </trkpt>
      <trkpt lat="49.07198" lon="6.95487">
        <ele>259.2126465</ele>
        <time>2009-04-15T13:09:09Z</time>
      </trkpt>
      <trkpt lat="49.07185" lon="6.95494">
        <ele>259.2126465</ele>
        <time>2009-04-15T13:09:18Z</time>
      </trkpt>
      <trkpt lat="49.07176" lon="6.95499">
        <ele>259.2126465</ele>
        <time>2009-04-15T13:09:25Z</time>
      </trkpt>
      <trkpt lat="49.07167" lon="6.95506">
        <ele>259.2126465</ele>
        <time>2009-04-15T13:09:32Z</time>
      </trkpt>
      <trkpt lat="49.07157" lon="6.9551">
        <ele>258.7319336</ele>
        <time>2009-04-15T13:09:39Z</time>
      </trkpt>
      <trkpt lat="49.07149" lon="6.95523">
        <ele>258.7319336</ele>
        <time>2009-04-15T13:09:46Z</time>
      </trkpt>
      <trkpt lat="49.0714" lon="6.95528">
        <ele>258.7319336</ele>
        <time>2009-04-15T13:09:53Z</time>
      </trkpt>
      <trkpt lat="49.07136" lon="6.95532">
        <ele>258.7319336</ele>
        <time>2009-04-15T13:09:57Z</time>
      </trkpt>
      <trkpt lat="49.07122" lon="6.9555">
        <ele>258.7319336</ele>
        <time>2009-04-15T13:10:10Z</time>
      </trkpt>
      <trkpt lat="49.07115" lon="6.95561">
        <ele>258.7319336</ele>
        <time>2009-04-15T13:10:16Z</time>
      </trkpt>
      <trkpt lat="49.07107" lon="6.9557">
        <ele>258.2513428</ele>
        <time>2009-04-15T13:10:22Z</time>
      </trkpt>
      <trkpt lat="49.07102" lon="6.95581">
        <ele>258.2513428</ele>
        <time>2009-04-15T13:10:30Z</time>
      </trkpt>
      <trkpt lat="49.07097" lon="6.95591">
        <ele>257.770752</ele>
        <time>2009-04-15T13:10:37Z</time>
      </trkpt>
      <trkpt lat="49.07092" lon="6.95601">
        <ele>255.8480225</ele>
        <time>2009-04-15T13:10:44Z</time>
      </trkpt>
      <trkpt lat="49.07088" lon="6.9561">
        <ele>255.3673096</ele>
        <time>2009-04-15T13:10:51Z</time>
      </trkpt>
      <trkpt lat="49.07082" lon="6.95618">
        <ele>254.4060059</ele>
        <time>2009-04-15T13:10:58Z</time>
      </trkpt>
      <trkpt lat="49.07076" lon="6.95628">
        <ele>254.4060059</ele>
        <time>2009-04-15T13:11:05Z</time>
      </trkpt>
      <trkpt lat="49.0707" lon="6.95636">
        <ele>254.4060059</ele>
        <time>2009-04-15T13:11:11Z</time>
      </trkpt>
      <trkpt lat="49.07065" lon="6.95644">
        <ele>253.925415</ele>
        <time>2009-04-15T13:11:16Z</time>
      </trkpt>
      <trkpt lat="49.07059" lon="6.95653">
        <ele>253.925415</ele>
        <time>2009-04-15T13:11:22Z</time>
      </trkpt>
      <trkpt lat="49.07056" lon="6.95665">
        <ele>253.925415</ele>
        <time>2009-04-15T13:11:29Z</time>
      </trkpt>
      <trkpt lat="49.07051" lon="6.95677">
        <ele>254.4060059</ele>
        <time>2009-04-15T13:11:38Z</time>
      </trkpt>
      <trkpt lat="49.07043" lon="6.95689">
        <ele>254.4060059</ele>
        <time>2009-04-15T13:11:47Z</time>
      </trkpt>
      <trkpt lat="49.07036" lon="6.95697">
        <ele>254.8865967</ele>
        <time>2009-04-15T13:11:56Z</time>
      </trkpt>
      <trkpt lat="49.07027" lon="6.9571">
        <ele>255.3673096</ele>
        <time>2009-04-15T13:12:06Z</time>
      </trkpt>
      <trkpt lat="49.0702" lon="6.95718">
        <ele>255.8480225</ele>
        <time>2009-04-15T13:12:16Z</time>
      </trkpt>
      <trkpt lat="49.07012" lon="6.9573">
        <ele>256.8093262</ele>
        <time>2009-04-15T13:12:26Z</time>
      </trkpt>
      <trkpt lat="49.07003" lon="6.95737">
        <ele>257.2900391</ele>
        <time>2009-04-15T13:12:36Z</time>
      </trkpt>
      <trkpt lat="49.06992" lon="6.95747">
        <ele>257.770752</ele>
        <time>2009-04-15T13:12:47Z</time>
      </trkpt>
      <trkpt lat="49.06984" lon="6.95757">
        <ele>257.770752</ele>
        <time>2009-04-15T13:12:56Z</time>
      </trkpt>
      <trkpt lat="49.06972" lon="6.95773">
        <ele>258.7319336</ele>
        <time>2009-04-15T13:13:06Z</time>
      </trkpt>
      <trkpt lat="49.06965" lon="6.95783">
        <ele>259.2126465</ele>
        <time>2009-04-15T13:13:14Z</time>
      </trkpt>
      <trkpt lat="49.06954" lon="6.95798">
        <ele>260.1739502</ele>
        <time>2009-04-15T13:13:23Z</time>
      </trkpt>
      <trkpt lat="49.06942" lon="6.95805">
        <ele>261.1352539</ele>
        <time>2009-04-15T13:13:34Z</time>
      </trkpt>
      <trkpt lat="49.06932" lon="6.95811">
        <ele>262.0965576</ele>
        <time>2009-04-15T13:13:46Z</time>
      </trkpt>
      <trkpt lat="49.06921" lon="6.95821">
        <ele>263.0578613</ele>
        <time>2009-04-15T13:13:55Z</time>
      </trkpt>
      <trkpt lat="49.06912" lon="6.95827">
        <ele>263.5385742</ele>
        <time>2009-04-15T13:14:03Z</time>
      </trkpt>
      <trkpt lat="49.06912" lon="6.95919">
        <ele>263.5385742</ele>
        <time>2009-04-15T13:14:15Z</time>
      </trkpt>
      <trkpt lat="49.06905" lon="6.95928">
        <ele>264.0192871</ele>
        <time>2009-04-15T13:14:25Z</time>
      </trkpt>
      <trkpt lat="49.06851" lon="6.95872">
        <ele>263.0578613</ele>
        <time>2009-04-15T13:14:37Z</time>
      </trkpt>
      <trkpt lat="49.06845" lon="6.95897">
        <ele>262.5771484</ele>
        <time>2009-04-15T13:14:44Z</time>
      </trkpt>
      <trkpt lat="49.06841" lon="6.95896">
        <ele>261.6159668</ele>
        <time>2009-04-15T13:14:51Z</time>
      </trkpt>
      <trkpt lat="49.06832" lon="6.95904">
        <ele>260.654541</ele>
        <time>2009-04-15T13:14:58Z</time>
      </trkpt>
      <trkpt lat="49.06823" lon="6.9591">
        <ele>260.654541</ele>
        <time>2009-04-15T13:15:05Z</time>
      </trkpt>
      <trkpt lat="49.06815" lon="6.9592">
        <ele>260.1739502</ele>
        <time>2009-04-15T13:15:13Z</time>
      </trkpt>
      <trkpt lat="49.0681" lon="6.95929">
        <ele>260.1739502</ele>
        <time>2009-04-15T13:15:21Z</time>
      </trkpt>
      <trkpt lat="49.06807" lon="6.9594">
        <ele>260.654541</ele>
        <time>2009-04-15T13:15:31Z</time>
      </trkpt>
      <trkpt lat="49.06811" lon="6.95953">
        <ele>261.1352539</ele>
        <time>2009-04-15T13:15:40Z</time>
      </trkpt>
      <trkpt lat="49.06814" lon="6.95967">
        <ele>261.1352539</ele>
        <time>2009-04-15T13:15:49Z</time>
      </trkpt>
      <trkpt lat="49.06849" lon="6.9599">
        <ele>261.6159668</ele>
        <time>2009-04-15T13:16:30Z</time>
      </trkpt>
      <trkpt lat="49.06858" lon="6.96003">
        <ele>261.6159668</ele>
        <time>2009-04-15T13:16:41Z</time>
      </trkpt>
      <trkpt lat="49.06867" lon="6.96015">
        <ele>260.1739502</ele>
        <time>2009-04-15T13:16:51Z</time>
      </trkpt>
      <trkpt lat="49.06876" lon="6.96028">
        <ele>260.1739502</ele>
        <time>2009-04-15T13:17:03Z</time>
      </trkpt>
      <trkpt lat="49.06881" lon="6.96039">
        <ele>259.6933594</ele>
        <time>2009-04-15T13:17:16Z</time>
      </trkpt>
      <trkpt lat="49.06887" lon="6.96034">
        <ele>260.654541</ele>
        <time>2009-04-15T13:17:20Z</time>
      </trkpt>
      <trkpt lat="49.06892" lon="6.96018">
        <ele>260.654541</ele>
        <time>2009-04-15T13:17:22Z</time>
      </trkpt>
      <trkpt lat="49.06899" lon="6.96003">
        <ele>260.654541</ele>
        <time>2009-04-15T13:17:24Z</time>
      </trkpt>
      <trkpt lat="49.06955" lon="6.96063">
        <ele>260.654541</ele>
        <time>2009-04-15T13:17:47Z</time>
      </trkpt>
      <trkpt lat="49.0699" lon="6.96053">
        <ele>259.2126465</ele>
        <time>2009-04-15T13:17:55Z</time>
      </trkpt>
      <trkpt lat="49.06979" lon="6.96072">
        <ele>259.2126465</ele>
        <time>2009-04-15T13:18:01Z</time>
      </trkpt>
      <trkpt lat="49.06974" lon="6.96086">
        <ele>259.2126465</ele>
        <time>2009-04-15T13:18:03Z</time>
      </trkpt>
      <trkpt lat="49.06971" lon="6.96097">
        <ele>258.7319336</ele>
        <time>2009-04-15T13:18:06Z</time>
      </trkpt>
      <trkpt lat="49.06974" lon="6.961">
        <ele>259.2126465</ele>
        <time>2009-04-15T13:18:11Z</time>
      </trkpt>
      <trkpt lat="49.06979" lon="6.9611">
        <ele>259.6933594</ele>
        <time>2009-04-15T13:18:16Z</time>
      </trkpt>
      <trkpt lat="49.06987" lon="6.96119">
        <ele>259.2126465</ele>
        <time>2009-04-15T13:18:23Z</time>
      </trkpt>
      <trkpt lat="49.06994" lon="6.9613">
        <ele>260.1739502</ele>
        <time>2009-04-15T13:18:33Z</time>
      </trkpt>
      <trkpt lat="49.07" lon="6.96143">
        <ele>260.1739502</ele>
        <time>2009-04-15T13:18:46Z</time>
      </trkpt>
      <trkpt lat="49.07043" lon="6.96159">
        <ele>259.6933594</ele>
        <time>2009-04-15T13:18:59Z</time>
      </trkpt>
      <trkpt lat="49.07055" lon="6.96176">
        <ele>259.6933594</ele>
        <time>2009-04-15T13:19:10Z</time>
      </trkpt>
      <trkpt lat="49.07054" lon="6.96188">
        <ele>259.6933594</ele>
        <time>2009-04-15T13:19:22Z</time>
      </trkpt>
      <trkpt lat="49.0707" lon="6.96203">
        <ele>259.6933594</ele>
        <time>2009-04-15T13:19:32Z</time>
      </trkpt>
      <trkpt lat="49.07078" lon="6.96214">
        <ele>259.6933594</ele>
        <time>2009-04-15T13:19:41Z</time>
      </trkpt>
      <trkpt lat="49.07087" lon="6.96225">
        <ele>259.6933594</ele>
        <time>2009-04-15T13:19:49Z</time>
      </trkpt>
      <trkpt lat="49.07096" lon="6.96232">
        <ele>259.6933594</ele>
        <time>2009-04-15T13:19:55Z</time>
      </trkpt>
      <trkpt lat="49.07105" lon="6.96239">
        <ele>259.6933594</ele>
        <time>2009-04-15T13:20:01Z</time>
      </trkpt>
      <trkpt lat="49.07111" lon="6.96246">
        <ele>260.1739502</ele>
        <time>2009-04-15T13:20:08Z</time>
      </trkpt>
      <trkpt lat="49.0712" lon="6.96255">
        <ele>260.1739502</ele>
        <time>2009-04-15T13:20:17Z</time>
      </trkpt>
      <trkpt lat="49.07124" lon="6.96269">
        <ele>260.1739502</ele>
        <time>2009-04-15T13:20:25Z</time>
      </trkpt>
      <trkpt lat="49.07124" lon="6.96284">
        <ele>260.1739502</ele>
        <time>2009-04-15T13:20:32Z</time>
      </trkpt>
      <trkpt lat="49.07131" lon="6.96291">
        <ele>260.654541</ele>
        <time>2009-04-15T13:20:40Z</time>
      </trkpt>
      <trkpt lat="49.07142" lon="6.96295">
        <ele>261.1352539</ele>
        <time>2009-04-15T13:20:48Z</time>
      </trkpt>
      <trkpt lat="49.07155" lon="6.96303">
        <ele>260.654541</ele>
        <time>2009-04-15T13:20:57Z</time>
      </trkpt>
      <trkpt lat="49.07166" lon="6.96315">
        <ele>260.654541</ele>
        <time>2009-04-15T13:21:06Z</time>
      </trkpt>
      <trkpt lat="49.07178" lon="6.96326">
        <ele>260.1739502</ele>
        <time>2009-04-15T13:21:14Z</time>
      </trkpt>
      <trkpt lat="49.07186" lon="6.96335">
        <ele>260.654541</ele>
        <time>2009-04-15T13:21:20Z</time>
      </trkpt>
      <trkpt lat="49.07195" lon="6.96341">
        <ele>261.1352539</ele>
        <time>2009-04-15T13:21:25Z</time>
      </trkpt>
      <trkpt lat="49.07209" lon="6.96347">
        <ele>260.654541</ele>
        <time>2009-04-15T13:21:31Z</time>
      </trkpt>
      <trkpt lat="49.07216" lon="6.96358">
        <ele>261.6159668</ele>
        <time>2009-04-15T13:21:39Z</time>
      </trkpt>
      <trkpt lat="49.07204" lon="6.96361">
        <ele>261.1352539</ele>
        <time>2009-04-15T13:21:42Z</time>
      </trkpt>
      <trkpt lat="49.07214" lon="6.96366">
        <ele>261.1352539</ele>
        <time>2009-04-15T13:21:48Z</time>
      </trkpt>
      <trkpt lat="49.0722" lon="6.96363">
        <ele>261.1352539</ele>
        <time>2009-04-15T13:21:53Z</time>
      </trkpt>
      <trkpt lat="49.07225" lon="6.96376">
        <ele>261.6159668</ele>
        <time>2009-04-15T13:22:01Z</time>
      </trkpt>
      <trkpt lat="49.07232" lon="6.96388">
        <ele>261.6159668</ele>
        <time>2009-04-15T13:22:08Z</time>
      </trkpt>
      <trkpt lat="49.07246" lon="6.964">
        <ele>261.6159668</ele>
        <time>2009-04-15T13:22:16Z</time>
      </trkpt>
      <trkpt lat="49.07254" lon="6.96417">
        <ele>261.6159668</ele>
        <time>2009-04-15T13:22:28Z</time>
      </trkpt>
      <trkpt lat="49.07263" lon="6.9643">
        <ele>261.6159668</ele>
        <time>2009-04-15T13:22:36Z</time>
      </trkpt>
      <trkpt lat="49.07273" lon="6.9644">
        <ele>261.6159668</ele>
        <time>2009-04-15T13:22:44Z</time>
      </trkpt>
      <trkpt lat="49.07281" lon="6.96457">
        <ele>261.6159668</ele>
        <time>2009-04-15T13:22:55Z</time>
      </trkpt>
      <trkpt lat="49.07287" lon="6.96474">
        <ele>262.5771484</ele>
        <time>2009-04-15T13:23:07Z</time>
      </trkpt>
      <trkpt lat="49.07294" lon="6.96491">
        <ele>262.5771484</ele>
        <time>2009-04-15T13:23:17Z</time>
      </trkpt>
      <trkpt lat="49.07303" lon="6.96506">
        <ele>263.0578613</ele>
        <time>2009-04-15T13:23:25Z</time>
      </trkpt>
      <trkpt lat="49.07312" lon="6.9652">
        <ele>263.0578613</ele>
        <time>2009-04-15T13:23:32Z</time>
      </trkpt>
      <trkpt lat="49.07319" lon="6.96534">
        <ele>263.5385742</ele>
        <time>2009-04-15T13:23:40Z</time>
      </trkpt>
      <trkpt lat="49.07326" lon="6.96549">
        <ele>264.0192871</ele>
        <time>2009-04-15T13:23:49Z</time>
      </trkpt>
      <trkpt lat="49.07335" lon="6.96563">
        <ele>264.0192871</ele>
        <time>2009-04-15T13:23:57Z</time>
      </trkpt>
      <trkpt lat="49.07344" lon="6.96577">
        <ele>264.4998779</ele>
        <time>2009-04-15T13:24:06Z</time>
      </trkpt>
      <trkpt lat="49.07355" lon="6.9659">
        <ele>264.4998779</ele>
        <time>2009-04-15T13:24:14Z</time>
      </trkpt>
      <trkpt lat="49.07362" lon="6.96605">
        <ele>264.9805908</ele>
        <time>2009-04-15T13:24:22Z</time>
      </trkpt>
      <trkpt lat="49.07368" lon="6.96618">
        <ele>264.9805908</ele>
        <time>2009-04-15T13:24:29Z</time>
      </trkpt>
      <trkpt lat="49.07372" lon="6.96632">
        <ele>265.4613037</ele>
        <time>2009-04-15T13:24:36Z</time>
      </trkpt>
      <trkpt lat="49.07375" lon="6.96644">
        <ele>265.4613037</ele>
        <time>2009-04-15T13:24:42Z</time>
      </trkpt>
      <trkpt lat="49.07382" lon="6.96658">
        <ele>265.4613037</ele>
        <time>2009-04-15T13:24:48Z</time>
      </trkpt>
      <trkpt lat="49.07388" lon="6.96672">
        <ele>265.9418945</ele>
        <time>2009-04-15T13:24:55Z</time>
      </trkpt>
      <trkpt lat="49.07393" lon="6.96676">
        <ele>266.4224854</ele>
        <time>2009-04-15T13:25:10Z</time>
      </trkpt>
      <trkpt lat="49.07387" lon="6.96686">
        <ele>266.9031982</ele>
        <time>2009-04-15T13:25:17Z</time>
      </trkpt>
      <trkpt lat="49.07385" lon="6.96698">
        <ele>266.9031982</ele>
        <time>2009-04-15T13:25:23Z</time>
      </trkpt>
      <trkpt lat="49.0739" lon="6.9671">
        <ele>266.9031982</ele>
        <time>2009-04-15T13:25:31Z</time>
      </trkpt>
      <trkpt lat="49.07406" lon="6.96721">
        <ele>267.3839111</ele>
        <time>2009-04-15T13:25:45Z</time>
      </trkpt>
      <trkpt lat="49.07413" lon="6.96732">
        <ele>267.864502</ele>
        <time>2009-04-15T13:25:57Z</time>
      </trkpt>
      <trkpt lat="49.07421" lon="6.96743">
        <ele>268.8258057</ele>
        <time>2009-04-15T13:26:07Z</time>
      </trkpt>
      <trkpt lat="49.07433" lon="6.96757">
        <ele>268.3450928</ele>
        <time>2009-04-15T13:26:17Z</time>
      </trkpt>
      <trkpt lat="49.07442" lon="6.96769">
        <ele>268.3450928</ele>
        <time>2009-04-15T13:26:27Z</time>
      </trkpt>
      <trkpt lat="49.07555" lon="6.96819">
        <ele>268.8258057</ele>
        <time>2009-04-15T13:26:37Z</time>
      </trkpt>
      <trkpt lat="49.07505" lon="6.96813">
        <ele>268.3450928</ele>
        <time>2009-04-15T13:26:45Z</time>
      </trkpt>
      <trkpt lat="49.07513" lon="6.9682">
        <ele>268.8258057</ele>
        <time>2009-04-15T13:26:52Z</time>
      </trkpt>
      <trkpt lat="49.07527" lon="6.96868">
        <ele>268.3450928</ele>
        <time>2009-04-15T13:26:59Z</time>
      </trkpt>
      <trkpt lat="49.07529" lon="6.96869">
        <ele>268.8258057</ele>
        <time>2009-04-15T13:27:06Z</time>
      </trkpt>
      <trkpt lat="49.07535" lon="6.96897">
        <ele>268.8258057</ele>
        <time>2009-04-15T13:27:13Z</time>
      </trkpt>
      <trkpt lat="49.0754" lon="6.96909">
        <ele>268.3450928</ele>
        <time>2009-04-15T13:27:20Z</time>
      </trkpt>
      <trkpt lat="49.07553" lon="6.96919">
        <ele>268.8258057</ele>
        <time>2009-04-15T13:27:28Z</time>
      </trkpt>
      <trkpt lat="49.07559" lon="6.96932">
        <ele>268.8258057</ele>
        <time>2009-04-15T13:27:36Z</time>
      </trkpt>
      <trkpt lat="49.07567" lon="6.96934">
        <ele>268.8258057</ele>
        <time>2009-04-15T13:27:42Z</time>
      </trkpt>
      <trkpt lat="49.07574" lon="6.96943">
        <ele>269.7871094</ele>
        <time>2009-04-15T13:27:48Z</time>
      </trkpt>
      <trkpt lat="49.07581" lon="6.96954">
        <ele>268.8258057</ele>
        <time>2009-04-15T13:27:54Z</time>
      </trkpt>
      <trkpt lat="49.07586" lon="6.96964">
        <ele>269.3065186</ele>
        <time>2009-04-15T13:28:00Z</time>
      </trkpt>
      <trkpt lat="49.07592" lon="6.96974">
        <ele>269.7871094</ele>
        <time>2009-04-15T13:28:06Z</time>
      </trkpt>
      <trkpt lat="49.07597" lon="6.96985">
        <ele>269.3065186</ele>
        <time>2009-04-15T13:28:12Z</time>
      </trkpt>
      <trkpt lat="49.07603" lon="6.96996">
        <ele>269.3065186</ele>
        <time>2009-04-15T13:28:19Z</time>
      </trkpt>
      <trkpt lat="49.07607" lon="6.97009">
        <ele>269.7871094</ele>
        <time>2009-04-15T13:28:26Z</time>
      </trkpt>
      <trkpt lat="49.07612" lon="6.97021">
        <ele>268.8258057</ele>
        <time>2009-04-15T13:28:33Z</time>
      </trkpt>
      <trkpt lat="49.0762" lon="6.97033">
        <ele>269.3065186</ele>
        <time>2009-04-15T13:28:39Z</time>
      </trkpt>
      <trkpt lat="49.07627" lon="6.97043">
        <ele>269.3065186</ele>
        <time>2009-04-15T13:28:45Z</time>
      </trkpt>
      <trkpt lat="49.07634" lon="6.97054">
        <ele>269.7871094</ele>
        <time>2009-04-15T13:28:51Z</time>
      </trkpt>
      <trkpt lat="49.07641" lon="6.97065">
        <ele>269.7871094</ele>
        <time>2009-04-15T13:28:57Z</time>
      </trkpt>
      <trkpt lat="49.07647" lon="6.97076">
        <ele>269.3065186</ele>
        <time>2009-04-15T13:29:03Z</time>
      </trkpt>
      <trkpt lat="49.07652" lon="6.97088">
        <ele>269.7871094</ele>
        <time>2009-04-15T13:29:10Z</time>
      </trkpt>
      <trkpt lat="49.07655" lon="6.97101">
        <ele>269.7871094</ele>
        <time>2009-04-15T13:29:17Z</time>
      </trkpt>
      <trkpt lat="49.07663" lon="6.97112">
        <ele>269.3065186</ele>
        <time>2009-04-15T13:29:23Z</time>
      </trkpt>
      <trkpt lat="49.07672" lon="6.97123">
        <ele>269.7871094</ele>
        <time>2009-04-15T13:29:29Z</time>
      </trkpt>
      <trkpt lat="49.07678" lon="6.97132">
        <ele>270.2677002</ele>
        <time>2009-04-15T13:29:35Z</time>
      </trkpt>
      <trkpt lat="49.07681" lon="6.97143">
        <ele>269.3065186</ele>
        <time>2009-04-15T13:29:42Z</time>
      </trkpt>
      <trkpt lat="49.07683" lon="6.97158">
        <ele>269.7871094</ele>
        <time>2009-04-15T13:29:48Z</time>
      </trkpt>
      <trkpt lat="49.07692" lon="6.97167">
        <ele>268.8258057</ele>
        <time>2009-04-15T13:29:54Z</time>
      </trkpt>
      <trkpt lat="49.07699" lon="6.97176">
        <ele>268.8258057</ele>
        <time>2009-04-15T13:30:00Z</time>
      </trkpt>
      <trkpt lat="49.07708" lon="6.97184">
        <ele>269.3065186</ele>
        <time>2009-04-15T13:30:06Z</time>
      </trkpt>
      <trkpt lat="49.07714" lon="6.97193">
        <ele>269.7871094</ele>
        <time>2009-04-15T13:30:12Z</time>
      </trkpt>
      <trkpt lat="49.07723" lon="6.97202">
        <ele>269.3065186</ele>
        <time>2009-04-15T13:30:19Z</time>
      </trkpt>
      <trkpt lat="49.07724" lon="6.97214">
        <ele>268.8258057</ele>
        <time>2009-04-15T13:30:28Z</time>
      </trkpt>
      <trkpt lat="49.07724" lon="6.97227">
        <ele>268.8258057</ele>
        <time>2009-04-15T13:30:37Z</time>
      </trkpt>
      <trkpt lat="49.07729" lon="6.97243">
        <ele>269.3065186</ele>
        <time>2009-04-15T13:30:47Z</time>
      </trkpt>
      <trkpt lat="49.07732" lon="6.9726">
        <ele>269.3065186</ele>
        <time>2009-04-15T13:30:55Z</time>
      </trkpt>
      <trkpt lat="49.07735" lon="6.97273">
        <ele>268.8258057</ele>
        <time>2009-04-15T13:31:06Z</time>
      </trkpt>
      <trkpt lat="49.07737" lon="6.97286">
        <ele>269.3065186</ele>
        <time>2009-04-15T13:31:16Z</time>
      </trkpt>
      <trkpt lat="49.07741" lon="6.973">
        <ele>268.3450928</ele>
        <time>2009-04-15T13:31:28Z</time>
      </trkpt>
      <trkpt lat="49.07755" lon="6.97306">
        <ele>267.864502</ele>
        <time>2009-04-15T13:31:38Z</time>
      </trkpt>
      <trkpt lat="49.07765" lon="6.97314">
        <ele>266.9031982</ele>
        <time>2009-04-15T13:31:46Z</time>
      </trkpt>
      <trkpt lat="49.07777" lon="6.97324">
        <ele>265.9418945</ele>
        <time>2009-04-15T13:31:53Z</time>
      </trkpt>
      <trkpt lat="49.07785" lon="6.97334">
        <ele>266.4224854</ele>
        <time>2009-04-15T13:32:02Z</time>
      </trkpt>
      <trkpt lat="49.07793" lon="6.97345">
        <ele>266.4224854</ele>
        <time>2009-04-15T13:32:16Z</time>
      </trkpt>
      <trkpt lat="49.07808" lon="6.97353">
        <ele>265.4613037</ele>
        <time>2009-04-15T13:32:26Z</time>
      </trkpt>
      <trkpt lat="49.07819" lon="6.97368">
        <ele>264.9805908</ele>
        <time>2009-04-15T13:32:35Z</time>
      </trkpt>
      <trkpt lat="49.07833" lon="6.97381">
        <ele>264.0192871</ele>
        <time>2009-04-15T13:32:43Z</time>
      </trkpt>
      <trkpt lat="49.07843" lon="6.97392">
        <ele>264.0192871</ele>
        <time>2009-04-15T13:32:52Z</time>
      </trkpt>
      <trkpt lat="49.0785" lon="6.97408">
        <ele>263.5385742</ele>
        <time>2009-04-15T13:33:03Z</time>
      </trkpt>
      <trkpt lat="49.07863" lon="6.97419">
        <ele>263.0578613</ele>
        <time>2009-04-15T13:33:15Z</time>
      </trkpt>
      <trkpt lat="49.0787" lon="6.97433">
        <ele>262.0965576</ele>
        <time>2009-04-15T13:33:26Z</time>
      </trkpt>
      <trkpt lat="49.07877" lon="6.97445">
        <ele>262.0965576</ele>
        <time>2009-04-15T13:33:35Z</time>
      </trkpt>
      <trkpt lat="49.07882" lon="6.97464">
        <ele>261.1352539</ele>
        <time>2009-04-15T13:33:45Z</time>
      </trkpt>
      <trkpt lat="49.07888" lon="6.97481">
        <ele>261.1352539</ele>
        <time>2009-04-15T13:33:56Z</time>
      </trkpt>
      <trkpt lat="49.07898" lon="6.97495">
        <ele>261.1352539</ele>
        <time>2009-04-15T13:34:06Z</time>
      </trkpt>
      <trkpt lat="49.07908" lon="6.97512">
        <ele>261.1352539</ele>
        <time>2009-04-15T13:34:22Z</time>
      </trkpt>
      <trkpt lat="49.07914" lon="6.97526">
        <ele>260.654541</ele>
        <time>2009-04-15T13:34:33Z</time>
      </trkpt>
      <trkpt lat="49.07928" lon="6.97538">
        <ele>261.1352539</ele>
        <time>2009-04-15T13:34:42Z</time>
      </trkpt>
      <trkpt lat="49.07949" lon="6.97536">
        <ele>260.654541</ele>
        <time>2009-04-15T13:34:44Z</time>
      </trkpt>
      <trkpt lat="49.07967" lon="6.97536">
        <ele>260.1739502</ele>
        <time>2009-04-15T13:34:46Z</time>
      </trkpt>
      <trkpt lat="49.07971" lon="6.97551">
        <ele>260.1739502</ele>
        <time>2009-04-15T13:34:56Z</time>
      </trkpt>
      <trkpt lat="49.07981" lon="6.97558">
        <ele>259.6933594</ele>
        <time>2009-04-15T13:35:03Z</time>
      </trkpt>
      <trkpt lat="49.0799" lon="6.97563">
        <ele>259.6933594</ele>
        <time>2009-04-15T13:35:09Z</time>
      </trkpt>
      <trkpt lat="49.07996" lon="6.97573">
        <ele>258.7319336</ele>
        <time>2009-04-15T13:35:27Z</time>
      </trkpt>
      <trkpt lat="49.08002" lon="6.9759">
        <ele>257.770752</ele>
        <time>2009-04-15T13:35:40Z</time>
      </trkpt>
      <trkpt lat="49.08012" lon="6.97603">
        <ele>256.8093262</ele>
        <time>2009-04-15T13:35:51Z</time>
      </trkpt>
      <trkpt lat="49.08021" lon="6.97616">
        <ele>256.3287354</ele>
        <time>2009-04-15T13:36:02Z</time>
      </trkpt>
      <trkpt lat="49.08032" lon="6.97629">
        <ele>255.8480225</ele>
        <time>2009-04-15T13:36:14Z</time>
      </trkpt>
      <trkpt lat="49.08045" lon="6.97642">
        <ele>255.3673096</ele>
        <time>2009-04-15T13:36:27Z</time>
      </trkpt>
      <trkpt lat="49.08052" lon="6.97656">
        <ele>255.3673096</ele>
        <time>2009-04-15T13:36:37Z</time>
      </trkpt>
      <trkpt lat="49.08064" lon="6.97676">
        <ele>254.4060059</ele>
        <time>2009-04-15T13:36:51Z</time>
      </trkpt>
      <trkpt lat="49.08075" lon="6.97693">
        <ele>254.8865967</ele>
        <time>2009-04-15T13:37:01Z</time>
      </trkpt>
      <trkpt lat="49.08079" lon="6.97708">
        <ele>254.4060059</ele>
        <time>2009-04-15T13:37:07Z</time>
      </trkpt>
      <trkpt lat="49.08083" lon="6.97723">
        <ele>253.925415</ele>
        <time>2009-04-15T13:37:14Z</time>
      </trkpt>
      <trkpt lat="49.08082" lon="6.97738">
        <ele>253.925415</ele>
        <time>2009-04-15T13:37:22Z</time>
      </trkpt>
      <trkpt lat="49.08083" lon="6.97757">
        <ele>253.4447021</ele>
        <time>2009-04-15T13:37:32Z</time>
      </trkpt>
      <trkpt lat="49.0809" lon="6.97772">
        <ele>252.9639893</ele>
        <time>2009-04-15T13:37:44Z</time>
      </trkpt>
      <trkpt lat="49.08097" lon="6.97792">
        <ele>252.0028076</ele>
        <time>2009-04-15T13:37:55Z</time>
      </trkpt>
      <trkpt lat="49.08103" lon="6.97805">
        <ele>252.0028076</ele>
        <time>2009-04-15T13:38:05Z</time>
      </trkpt>
      <trkpt lat="49.08115" lon="6.9782">
        <ele>251.5220947</ele>
        <time>2009-04-15T13:38:24Z</time>
      </trkpt>
      <trkpt lat="49.08122" lon="6.97834">
        <ele>251.0413818</ele>
        <time>2009-04-15T13:38:35Z</time>
      </trkpt>
      <trkpt lat="49.08203" lon="6.97913">
        <ele>250.560791</ele>
        <time>2009-04-15T13:38:45Z</time>
      </trkpt>
      <trkpt lat="49.08215" lon="6.97866">
        <ele>250.560791</ele>
        <time>2009-04-15T13:38:53Z</time>
      </trkpt>
      <trkpt lat="49.08181" lon="6.97907">
        <ele>251.0413818</ele>
        <time>2009-04-15T13:39:00Z</time>
      </trkpt>
      <trkpt lat="49.08178" lon="6.97915">
        <ele>250.560791</ele>
        <time>2009-04-15T13:39:02Z</time>
      </trkpt>
      <trkpt lat="49.08204" lon="6.97905">
        <ele>251.0413818</ele>
        <time>2009-04-15T13:39:13Z</time>
      </trkpt>
      <trkpt lat="49.08212" lon="6.97914">
        <ele>251.0413818</ele>
        <time>2009-04-15T13:39:26Z</time>
      </trkpt>
      <trkpt lat="49.08218" lon="6.97926">
        <ele>252.0028076</ele>
        <time>2009-04-15T13:39:38Z</time>
      </trkpt>
      <trkpt lat="49.08225" lon="6.97935">
        <ele>252.0028076</ele>
        <time>2009-04-15T13:39:46Z</time>
      </trkpt>
      <trkpt lat="49.08234" lon="6.97946">
        <ele>252.4833984</ele>
        <time>2009-04-15T13:39:53Z</time>
      </trkpt>
      <trkpt lat="49.0824" lon="6.9796">
        <ele>252.9639893</ele>
        <time>2009-04-15T13:40:01Z</time>
      </trkpt>
      <trkpt lat="49.08247" lon="6.97972">
        <ele>252.9639893</ele>
        <time>2009-04-15T13:40:09Z</time>
      </trkpt>
      <trkpt lat="49.08258" lon="6.9799">
        <ele>252.4833984</ele>
        <time>2009-04-15T13:40:31Z</time>
      </trkpt>
      <trkpt lat="49.08267" lon="6.98007">
        <ele>252.0028076</ele>
        <time>2009-04-15T13:40:57Z</time>
      </trkpt>
      <trkpt lat="49.08275" lon="6.98022">
        <ele>251.5220947</ele>
        <time>2009-04-15T13:41:10Z</time>
      </trkpt>
      <trkpt lat="49.08276" lon="6.98038">
        <ele>252.4833984</ele>
        <time>2009-04-15T13:41:20Z</time>
      </trkpt>
      <trkpt lat="49.0828" lon="6.98056">
        <ele>251.5220947</ele>
        <time>2009-04-15T13:41:30Z</time>
      </trkpt>
      <trkpt lat="49.08282" lon="6.98067">
        <ele>252.0028076</ele>
        <time>2009-04-15T13:41:39Z</time>
      </trkpt>
      <trkpt lat="49.0829" lon="6.98068">
        <ele>252.9639893</ele>
        <time>2009-04-15T13:41:47Z</time>
      </trkpt>
      <trkpt lat="49.083" lon="6.98068">
        <ele>252.9639893</ele>
        <time>2009-04-15T13:41:55Z</time>
      </trkpt>
      <trkpt lat="49.0831" lon="6.9807">
        <ele>252.4833984</ele>
        <time>2009-04-15T13:42:02Z</time>
      </trkpt>
      <trkpt lat="49.08322" lon="6.98069">
        <ele>252.9639893</ele>
        <time>2009-04-15T13:42:10Z</time>
      </trkpt>
      <trkpt lat="49.08331" lon="6.98062">
        <ele>252.4833984</ele>
        <time>2009-04-15T13:42:17Z</time>
      </trkpt>
      <trkpt lat="49.08342" lon="6.98062">
        <ele>251.5220947</ele>
        <time>2009-04-15T13:42:25Z</time>
      </trkpt>
      <trkpt lat="49.08338" lon="6.98078">
        <ele>251.0413818</ele>
        <time>2009-04-15T13:44:16Z</time>
      </trkpt>
      <trkpt lat="49.08344" lon="6.98065">
        <ele>250.0802002</ele>
        <time>2009-04-15T13:44:27Z</time>
      </trkpt>
      <trkpt lat="49.08368" lon="6.98071">
        <ele>250.560791</ele>
        <time>2009-04-15T13:45:46Z</time>
      </trkpt>
      <trkpt lat="49.08373" lon="6.98081">
        <ele>250.560791</ele>
        <time>2009-04-15T13:45:54Z</time>
      </trkpt>
      <trkpt lat="49.08381" lon="6.98089">
        <ele>250.0802002</ele>
        <time>2009-04-15T13:46:01Z</time>
      </trkpt>
      <trkpt lat="49.08387" lon="6.98096">
        <ele>250.0802002</ele>
        <time>2009-04-15T13:46:10Z</time>
      </trkpt>
      <trkpt lat="49.08396" lon="6.98103">
        <ele>249.1187744</ele>
        <time>2009-04-15T13:46:18Z</time>
      </trkpt>
      <trkpt lat="49.08404" lon="6.9811">
        <ele>249.1187744</ele>
        <time>2009-04-15T13:46:25Z</time>
      </trkpt>
      <trkpt lat="49.08414" lon="6.98116">
        <ele>247.6767578</ele>
        <time>2009-04-15T13:46:32Z</time>
      </trkpt>
      <trkpt lat="49.08423" lon="6.98124">
        <ele>246.7154541</ele>
        <time>2009-04-15T13:46:39Z</time>
      </trkpt>
      <trkpt lat="49.08431" lon="6.98132">
        <ele>245.7541504</ele>
        <time>2009-04-15T13:46:47Z</time>
      </trkpt>
      <trkpt lat="49.08439" lon="6.98142">
        <ele>245.2734375</ele>
        <time>2009-04-15T13:46:54Z</time>
      </trkpt>
      <trkpt lat="49.08446" lon="6.98154">
        <ele>245.2734375</ele>
        <time>2009-04-15T13:47:02Z</time>
      </trkpt>
      <trkpt lat="49.08452" lon="6.98165">
        <ele>243.831543</ele>
        <time>2009-04-15T13:47:10Z</time>
      </trkpt>
      <trkpt lat="49.08459" lon="6.98176">
        <ele>243.831543</ele>
        <time>2009-04-15T13:47:18Z</time>
      </trkpt>
      <trkpt lat="49.08465" lon="6.98188">
        <ele>242.8702393</ele>
        <time>2009-04-15T13:47:27Z</time>
      </trkpt>
      <trkpt lat="49.08472" lon="6.98198">
        <ele>243.3508301</ele>
        <time>2009-04-15T13:47:35Z</time>
      </trkpt>
      <trkpt lat="49.08477" lon="6.98211">
        <ele>243.3508301</ele>
        <time>2009-04-15T13:47:44Z</time>
      </trkpt>
      <trkpt lat="49.08487" lon="6.98217">
        <ele>243.3508301</ele>
        <time>2009-04-15T13:47:53Z</time>
      </trkpt>
      <trkpt lat="49.08496" lon="6.98226">
        <ele>242.3896484</ele>
        <time>2009-04-15T13:48:02Z</time>
      </trkpt>
      <trkpt lat="49.08505" lon="6.98231">
        <ele>242.3896484</ele>
        <time>2009-04-15T13:48:11Z</time>
      </trkpt>
      <trkpt lat="49.08514" lon="6.98238">
        <ele>242.8702393</ele>
        <time>2009-04-15T13:48:18Z</time>
      </trkpt>
      <trkpt lat="49.08522" lon="6.98248">
        <ele>241.9089355</ele>
        <time>2009-04-15T13:48:27Z</time>
      </trkpt>
      <trkpt lat="49.08531" lon="6.98257">
        <ele>241.9089355</ele>
        <time>2009-04-15T13:48:36Z</time>
      </trkpt>
      <trkpt lat="49.08539" lon="6.98265">
        <ele>241.9089355</ele>
        <time>2009-04-15T13:48:43Z</time>
      </trkpt>
      <trkpt lat="49.08548" lon="6.98276">
        <ele>241.9089355</ele>
        <time>2009-04-15T13:48:50Z</time>
      </trkpt>
      <trkpt lat="49.08556" lon="6.98286">
        <ele>241.4282227</ele>
        <time>2009-04-15T13:48:57Z</time>
      </trkpt>
      <trkpt lat="49.08564" lon="6.98295">
        <ele>241.4282227</ele>
        <time>2009-04-15T13:49:05Z</time>
      </trkpt>
      <trkpt lat="49.08572" lon="6.98302">
        <ele>241.4282227</ele>
        <time>2009-04-15T13:49:12Z</time>
      </trkpt>
      <trkpt lat="49.0858" lon="6.98308">
        <ele>240.9476318</ele>
        <time>2009-04-15T13:49:18Z</time>
      </trkpt>
      <trkpt lat="49.08589" lon="6.98316">
        <ele>240.9476318</ele>
        <time>2009-04-15T13:49:25Z</time>
      </trkpt>
      <trkpt lat="49.08597" lon="6.98321">
        <ele>240.9476318</ele>
        <time>2009-04-15T13:49:32Z</time>
      </trkpt>
      <trkpt lat="49.08606" lon="6.98329">
        <ele>240.467041</ele>
        <time>2009-04-15T13:49:39Z</time>
      </trkpt>
      <trkpt lat="49.08614" lon="6.98338">
        <ele>240.467041</ele>
        <time>2009-04-15T13:49:46Z</time>
      </trkpt>
      <trkpt lat="49.08623" lon="6.98346">
        <ele>240.467041</ele>
        <time>2009-04-15T13:49:54Z</time>
      </trkpt>
      <trkpt lat="49.0863" lon="6.98356">
        <ele>240.467041</ele>
        <time>2009-04-15T13:50:03Z</time>
      </trkpt>
      <trkpt lat="49.08637" lon="6.98366">
        <ele>240.467041</ele>
        <time>2009-04-15T13:50:10Z</time>
      </trkpt>
      <trkpt lat="49.08647" lon="6.98372">
        <ele>239.9862061</ele>
        <time>2009-04-15T13:50:17Z</time>
      </trkpt>
      <trkpt lat="49.08658" lon="6.98379">
        <ele>240.467041</ele>
        <time>2009-04-15T13:50:25Z</time>
      </trkpt>
      <trkpt lat="49.08664" lon="6.98383">
        <ele>240.467041</ele>
        <time>2009-04-15T13:50:32Z</time>
      </trkpt>
      <trkpt lat="49.08673" lon="6.98392">
        <ele>240.9476318</ele>
        <time>2009-04-15T13:50:39Z</time>
      </trkpt>
      <trkpt lat="49.08682" lon="6.98399">
        <ele>240.467041</ele>
        <time>2009-04-15T13:50:47Z</time>
      </trkpt>
      <trkpt lat="49.08691" lon="6.98406">
        <ele>240.467041</ele>
        <time>2009-04-15T13:50:54Z</time>
      </trkpt>
      <trkpt lat="49.08701" lon="6.98414">
        <ele>240.467041</ele>
        <time>2009-04-15T13:51:00Z</time>
      </trkpt>
      <trkpt lat="49.08706" lon="6.98421">
        <ele>240.467041</ele>
        <time>2009-04-15T13:51:08Z</time>
      </trkpt>
      <trkpt lat="49.08715" lon="6.98428">
        <ele>240.467041</ele>
        <time>2009-04-15T13:51:15Z</time>
      </trkpt>
      <trkpt lat="49.08724" lon="6.98437">
        <ele>239.9862061</ele>
        <time>2009-04-15T13:51:22Z</time>
      </trkpt>
      <trkpt lat="49.08734" lon="6.98444">
        <ele>239.0249023</ele>
        <time>2009-04-15T13:51:30Z</time>
      </trkpt>
      <trkpt lat="49.08744" lon="6.98451">
        <ele>238.5443115</ele>
        <time>2009-04-15T13:51:37Z</time>
      </trkpt>
      <trkpt lat="49.08752" lon="6.98455">
        <ele>238.5443115</ele>
        <time>2009-04-15T13:51:43Z</time>
      </trkpt>
      <trkpt lat="49.08761" lon="6.98461">
        <ele>238.0635986</ele>
        <time>2009-04-15T13:51:50Z</time>
      </trkpt>
      <trkpt lat="49.0877" lon="6.98468">
        <ele>237.5828857</ele>
        <time>2009-04-15T13:51:57Z</time>
      </trkpt>
      <trkpt lat="49.08779" lon="6.98475">
        <ele>237.1022949</ele>
        <time>2009-04-15T13:52:04Z</time>
      </trkpt>
      <trkpt lat="49.08788" lon="6.98482">
        <ele>237.1022949</ele>
        <time>2009-04-15T13:52:11Z</time>
      </trkpt>
      <trkpt lat="49.08796" lon="6.98489">
        <ele>236.6217041</ele>
        <time>2009-04-15T13:52:18Z</time>
      </trkpt>
      <trkpt lat="49.08804" lon="6.98496">
        <ele>236.6217041</ele>
        <time>2009-04-15T13:52:25Z</time>
      </trkpt>
      <trkpt lat="49.08812" lon="6.98504">
        <ele>236.1409912</ele>
        <time>2009-04-15T13:52:32Z</time>
      </trkpt>
      <trkpt lat="49.0882" lon="6.98512">
        <ele>236.1409912</ele>
        <time>2009-04-15T13:52:39Z</time>
      </trkpt>
      <trkpt lat="49.08829" lon="6.98519">
        <ele>236.1409912</ele>
        <time>2009-04-15T13:52:46Z</time>
      </trkpt>
      <trkpt lat="49.08837" lon="6.98524">
        <ele>236.1409912</ele>
        <time>2009-04-15T13:52:52Z</time>
      </trkpt>
      <trkpt lat="49.08844" lon="6.98529">
        <ele>236.1409912</ele>
        <time>2009-04-15T13:52:58Z</time>
      </trkpt>
      <trkpt lat="49.08852" lon="6.98535">
        <ele>236.1409912</ele>
        <time>2009-04-15T13:53:04Z</time>
      </trkpt>
      <trkpt lat="49.0886" lon="6.98542">
        <ele>236.1409912</ele>
        <time>2009-04-15T13:53:12Z</time>
      </trkpt>
      <trkpt lat="49.08869" lon="6.98547">
        <ele>236.1409912</ele>
        <time>2009-04-15T13:53:20Z</time>
      </trkpt>
      <trkpt lat="49.08879" lon="6.98551">
        <ele>236.6217041</ele>
        <time>2009-04-15T13:53:27Z</time>
      </trkpt>
      <trkpt lat="49.08888" lon="6.98553">
        <ele>236.1409912</ele>
        <time>2009-04-15T13:53:34Z</time>
      </trkpt>
      <trkpt lat="49.08897" lon="6.98553">
        <ele>236.1409912</ele>
        <time>2009-04-15T13:53:41Z</time>
      </trkpt>
      <trkpt lat="49.08907" lon="6.98555">
        <ele>236.1409912</ele>
        <time>2009-04-15T13:53:49Z</time>
      </trkpt>
      <trkpt lat="49.08916" lon="6.98556">
        <ele>236.6217041</ele>
        <time>2009-04-15T13:53:56Z</time>
      </trkpt>
      <trkpt lat="49.08925" lon="6.98557">
        <ele>236.6217041</ele>
        <time>2009-04-15T13:54:03Z</time>
      </trkpt>
      <trkpt lat="49.08934" lon="6.98558">
        <ele>236.6217041</ele>
        <time>2009-04-15T13:54:10Z</time>
      </trkpt>
      <trkpt lat="49.08945" lon="6.9856">
        <ele>236.6217041</ele>
        <time>2009-04-15T13:54:17Z</time>
      </trkpt>
      <trkpt lat="49.08954" lon="6.98558">
        <ele>236.1409912</ele>
        <time>2009-04-15T13:54:24Z</time>
      </trkpt>
      <trkpt lat="49.08964" lon="6.98557">
        <ele>236.1409912</ele>
        <time>2009-04-15T13:54:31Z</time>
      </trkpt>
      <trkpt lat="49.08973" lon="6.98555">
        <ele>236.1409912</ele>
        <time>2009-04-15T13:54:38Z</time>
      </trkpt>
      <trkpt lat="49.08982" lon="6.98554">
        <ele>235.6602783</ele>
        <time>2009-04-15T13:54:45Z</time>
      </trkpt>
      <trkpt lat="49.08992" lon="6.98555">
        <ele>235.6602783</ele>
        <time>2009-04-15T13:54:52Z</time>
      </trkpt>
      <trkpt lat="49.09002" lon="6.98554">
        <ele>234.2183838</ele>
        <time>2009-04-15T13:55:00Z</time>
      </trkpt>
      <trkpt lat="49.09011" lon="6.98558">
        <ele>234.2183838</ele>
        <time>2009-04-15T13:55:11Z</time>
      </trkpt>
      <trkpt lat="49.09018" lon="6.98567">
        <ele>234.2183838</ele>
        <time>2009-04-15T13:55:24Z</time>
      </trkpt>
      <trkpt lat="49.09025" lon="6.98578">
        <ele>234.2183838</ele>
        <time>2009-04-15T13:55:32Z</time>
      </trkpt>
      <trkpt lat="49.09032" lon="6.9859">
        <ele>233.7376709</ele>
        <time>2009-04-15T13:55:40Z</time>
      </trkpt>
      <trkpt lat="49.09039" lon="6.986">
        <ele>233.7376709</ele>
        <time>2009-04-15T13:55:47Z</time>
      </trkpt>
      <trkpt lat="49.09047" lon="6.98608">
        <ele>233.2570801</ele>
        <time>2009-04-15T13:55:54Z</time>
      </trkpt>
      <trkpt lat="49.09055" lon="6.98618">
        <ele>232.7764893</ele>
        <time>2009-04-15T13:56:01Z</time>
      </trkpt>
      <trkpt lat="49.09062" lon="6.98628">
        <ele>232.7764893</ele>
        <time>2009-04-15T13:56:08Z</time>
      </trkpt>
      <trkpt lat="49.09068" lon="6.98637">
        <ele>232.2957764</ele>
        <time>2009-04-15T13:56:15Z</time>
      </trkpt>
      <trkpt lat="49.09075" lon="6.98648">
        <ele>232.2957764</ele>
        <time>2009-04-15T13:56:22Z</time>
      </trkpt>
      <trkpt lat="49.09082" lon="6.98658">
        <ele>231.8149414</ele>
        <time>2009-04-15T13:56:29Z</time>
      </trkpt>
      <trkpt lat="49.09089" lon="6.98667">
        <ele>231.3343506</ele>
        <time>2009-04-15T13:56:36Z</time>
      </trkpt>
      <trkpt lat="49.09095" lon="6.98678">
        <ele>231.3343506</ele>
        <time>2009-04-15T13:56:44Z</time>
      </trkpt>
      <trkpt lat="49.09102" lon="6.9869">
        <ele>231.8149414</ele>
        <time>2009-04-15T13:56:52Z</time>
      </trkpt>
      <trkpt lat="49.09108" lon="6.98701">
        <ele>230.8537598</ele>
        <time>2009-04-15T13:57:00Z</time>
      </trkpt>
      <trkpt lat="49.09117" lon="6.98712">
        <ele>230.8537598</ele>
        <time>2009-04-15T13:57:08Z</time>
      </trkpt>
      <trkpt lat="49.09124" lon="6.98722">
        <ele>230.8537598</ele>
        <time>2009-04-15T13:57:15Z</time>
      </trkpt>
      <trkpt lat="49.09131" lon="6.98732">
        <ele>230.8537598</ele>
        <time>2009-04-15T13:57:22Z</time>
      </trkpt>
      <trkpt lat="49.09138" lon="6.98742">
        <ele>230.3730469</ele>
        <time>2009-04-15T13:57:29Z</time>
      </trkpt>
      <trkpt lat="49.09145" lon="6.98751">
        <ele>230.8537598</ele>
        <time>2009-04-15T13:57:36Z</time>
      </trkpt>
      <trkpt lat="49.09153" lon="6.98762">
        <ele>229.892334</ele>
        <time>2009-04-15T13:57:44Z</time>
      </trkpt>
      <trkpt lat="49.09159" lon="6.98773">
        <ele>229.4117432</ele>
        <time>2009-04-15T13:57:51Z</time>
      </trkpt>
      <trkpt lat="49.09167" lon="6.98782">
        <ele>228.9311523</ele>
        <time>2009-04-15T13:57:58Z</time>
      </trkpt>
      <trkpt lat="49.09175" lon="6.98792">
        <ele>227.0085449</ele>
        <time>2009-04-15T13:58:06Z</time>
      </trkpt>
      <trkpt lat="49.09182" lon="6.98801">
        <ele>227.0085449</ele>
        <time>2009-04-15T13:58:13Z</time>
      </trkpt>
      <trkpt lat="49.09189" lon="6.98811">
        <ele>226.527832</ele>
        <time>2009-04-15T13:58:20Z</time>
      </trkpt>
      <trkpt lat="49.09195" lon="6.9882">
        <ele>225.5665283</ele>
        <time>2009-04-15T13:58:27Z</time>
      </trkpt>
      <trkpt lat="49.09203" lon="6.98829">
        <ele>224.1245117</ele>
        <time>2009-04-15T13:58:34Z</time>
      </trkpt>
      <trkpt lat="49.09211" lon="6.98839">
        <ele>224.1245117</ele>
        <time>2009-04-15T13:58:41Z</time>
      </trkpt>
      <trkpt lat="49.09218" lon="6.98848">
        <ele>223.163208</ele>
        <time>2009-04-15T13:58:48Z</time>
      </trkpt>
      <trkpt lat="49.09225" lon="6.98857">
        <ele>222.2017822</ele>
        <time>2009-04-15T13:58:55Z</time>
      </trkpt>
      <trkpt lat="49.09232" lon="6.98867">
        <ele>221.7211914</ele>
        <time>2009-04-15T13:59:02Z</time>
      </trkpt>
      <trkpt lat="49.09239" lon="6.98877">
        <ele>221.7211914</ele>
        <time>2009-04-15T13:59:09Z</time>
      </trkpt>
      <trkpt lat="49.09246" lon="6.98887">
        <ele>221.2406006</ele>
        <time>2009-04-15T13:59:16Z</time>
      </trkpt>
      <trkpt lat="49.09253" lon="6.98896">
        <ele>221.2406006</ele>
        <time>2009-04-15T13:59:23Z</time>
      </trkpt>
      <trkpt lat="49.0926" lon="6.98906">
        <ele>220.7598877</ele>
        <time>2009-04-15T13:59:30Z</time>
      </trkpt>
      <trkpt lat="49.09267" lon="6.98915">
        <ele>220.2791748</ele>
        <time>2009-04-15T13:59:36Z</time>
      </trkpt>
      <trkpt lat="49.09274" lon="6.98926">
        <ele>220.2791748</ele>
        <time>2009-04-15T13:59:43Z</time>
      </trkpt>
      <trkpt lat="49.09281" lon="6.98935">
        <ele>220.7598877</ele>
        <time>2009-04-15T13:59:50Z</time>
      </trkpt>
      <trkpt lat="49.09289" lon="6.98945">
        <ele>219.798584</ele>
        <time>2009-04-15T13:59:57Z</time>
      </trkpt>
      <trkpt lat="49.09296" lon="6.98956">
        <ele>219.798584</ele>
        <time>2009-04-15T14:00:04Z</time>
      </trkpt>
      <trkpt lat="49.09303" lon="6.98965">
        <ele>219.798584</ele>
        <time>2009-04-15T14:00:11Z</time>
      </trkpt>
      <trkpt lat="49.09311" lon="6.98974">
        <ele>219.798584</ele>
        <time>2009-04-15T14:00:18Z</time>
      </trkpt>
      <trkpt lat="49.09319" lon="6.98982">
        <ele>219.798584</ele>
        <time>2009-04-15T14:00:25Z</time>
      </trkpt>
      <trkpt lat="49.09328" lon="6.98991">
        <ele>219.798584</ele>
        <time>2009-04-15T14:00:32Z</time>
      </trkpt>
      <trkpt lat="49.09336" lon="6.98998">
        <ele>219.798584</ele>
        <time>2009-04-15T14:00:39Z</time>
      </trkpt>
      <trkpt lat="49.09345" lon="6.99005">
        <ele>218.8372803</ele>
        <time>2009-04-15T14:00:46Z</time>
      </trkpt>
      <trkpt lat="49.09353" lon="6.99011">
        <ele>218.8372803</ele>
        <time>2009-04-15T14:00:53Z</time>
      </trkpt>
      <trkpt lat="49.09361" lon="6.99018">
        <ele>218.3565674</ele>
        <time>2009-04-15T14:01:00Z</time>
      </trkpt>
      <trkpt lat="49.09369" lon="6.99025">
        <ele>217.8759766</ele>
        <time>2009-04-15T14:01:06Z</time>
      </trkpt>
      <trkpt lat="49.09376" lon="6.99034">
        <ele>217.3953857</ele>
        <time>2009-04-15T14:01:13Z</time>
      </trkpt>
      <trkpt lat="49.09383" lon="6.99045">
        <ele>216.43396</ele>
        <time>2009-04-15T14:01:20Z</time>
      </trkpt>
      <trkpt lat="49.09388" lon="6.99057">
        <ele>215.9532471</ele>
        <time>2009-04-15T14:01:27Z</time>
      </trkpt>
      <trkpt lat="49.09393" lon="6.99072">
        <ele>215.4726563</ele>
        <time>2009-04-15T14:01:35Z</time>
      </trkpt>
      <trkpt lat="49.09397" lon="6.99084">
        <ele>215.4726563</ele>
        <time>2009-04-15T14:01:42Z</time>
      </trkpt>
      <trkpt lat="49.094" lon="6.99099">
        <ele>214.9919434</ele>
        <time>2009-04-15T14:01:49Z</time>
      </trkpt>
      <trkpt lat="49.09403" lon="6.99115">
        <ele>214.5112305</ele>
        <time>2009-04-15T14:01:56Z</time>
      </trkpt>
      <trkpt lat="49.09402" lon="6.9913">
        <ele>214.5112305</ele>
        <time>2009-04-15T14:02:03Z</time>
      </trkpt>
      <trkpt lat="49.09398" lon="6.99146">
        <ele>214.5112305</ele>
        <time>2009-04-15T14:02:10Z</time>
      </trkpt>
      <trkpt lat="49.09395" lon="6.9916">
        <ele>214.0306396</ele>
        <time>2009-04-15T14:02:16Z</time>
      </trkpt>
      <trkpt lat="49.09396" lon="6.99175">
        <ele>214.5112305</ele>
        <time>2009-04-15T14:02:23Z</time>
      </trkpt>
      <trkpt lat="49.09398" lon="6.99191">
        <ele>214.5112305</ele>
        <time>2009-04-15T14:02:31Z</time>
      </trkpt>
      <trkpt lat="49.09402" lon="6.99204">
        <ele>214.9919434</ele>
        <time>2009-04-15T14:02:38Z</time>
      </trkpt>
      <trkpt lat="49.09406" lon="6.99216">
        <ele>215.4726563</ele>
        <time>2009-04-15T14:02:45Z</time>
      </trkpt>
      <trkpt lat="49.0941" lon="6.99224">
        <ele>215.4726563</ele>
        <time>2009-04-15T14:02:51Z</time>
      </trkpt>
      <trkpt lat="49.09416" lon="6.99236">
        <ele>215.9532471</ele>
        <time>2009-04-15T14:02:57Z</time>
      </trkpt>
      <trkpt lat="49.09422" lon="6.99242">
        <ele>215.4726563</ele>
        <time>2009-04-15T14:03:03Z</time>
      </trkpt>
      <trkpt lat="49.09431" lon="6.99243">
        <ele>215.9532471</ele>
        <time>2009-04-15T14:03:10Z</time>
      </trkpt>
      <trkpt lat="49.09441" lon="6.99241">
        <ele>215.9532471</ele>
        <time>2009-04-15T14:03:17Z</time>
      </trkpt>
      <trkpt lat="49.09451" lon="6.9924">
        <ele>214.9919434</ele>
        <time>2009-04-15T14:03:24Z</time>
      </trkpt>
      <trkpt lat="49.09462" lon="6.99239">
        <ele>214.5112305</ele>
        <time>2009-04-15T14:03:31Z</time>
      </trkpt>
      <trkpt lat="49.09471" lon="6.9924">
        <ele>214.5112305</ele>
        <time>2009-04-15T14:03:38Z</time>
      </trkpt>
      <trkpt lat="49.09483" lon="6.9924">
        <ele>214.5112305</ele>
        <time>2009-04-15T14:05:06Z</time>
      </trkpt>
      <trkpt lat="49.09496" lon="6.9924">
        <ele>214.0306396</ele>
        <time>2009-04-15T14:05:37Z</time>
      </trkpt>
      <trkpt lat="49.09505" lon="6.99233">
        <ele>214.5112305</ele>
        <time>2009-04-15T14:05:47Z</time>
      </trkpt>
      <trkpt lat="49.09515" lon="6.9923">
        <ele>214.5112305</ele>
        <time>2009-04-15T14:05:56Z</time>
      </trkpt>
      <trkpt lat="49.09525" lon="6.99231">
        <ele>214.5112305</ele>
        <time>2009-04-15T14:06:04Z</time>
      </trkpt>
      <trkpt lat="49.09535" lon="6.99232">
        <ele>214.5112305</ele>
        <time>2009-04-15T14:06:12Z</time>
      </trkpt>
      <trkpt lat="49.09544" lon="6.99237">
        <ele>214.0306396</ele>
        <time>2009-04-15T14:06:20Z</time>
      </trkpt>
      <trkpt lat="49.09551" lon="6.9925">
        <ele>214.0306396</ele>
        <time>2009-04-15T14:06:29Z</time>
      </trkpt>
      <trkpt lat="49.09556" lon="6.99262">
        <ele>214.5112305</ele>
        <time>2009-04-15T14:06:38Z</time>
      </trkpt>
      <trkpt lat="49.09562" lon="6.99276">
        <ele>214.5112305</ele>
        <time>2009-04-15T14:06:46Z</time>
      </trkpt>
      <trkpt lat="49.09566" lon="6.9929">
        <ele>214.5112305</ele>
        <time>2009-04-15T14:06:55Z</time>
      </trkpt>
      <trkpt lat="49.09574" lon="6.99305">
        <ele>214.5112305</ele>
        <time>2009-04-15T14:07:04Z</time>
      </trkpt>
      <trkpt lat="49.09578" lon="6.9932">
        <ele>214.0306396</ele>
        <time>2009-04-15T14:07:13Z</time>
      </trkpt>
      <trkpt lat="49.09582" lon="6.99335">
        <ele>214.5112305</ele>
        <time>2009-04-15T14:07:20Z</time>
      </trkpt>
      <trkpt lat="49.09588" lon="6.9935">
        <ele>214.5112305</ele>
        <time>2009-04-15T14:07:29Z</time>
      </trkpt>
      <trkpt lat="49.09595" lon="6.99362">
        <ele>214.9919434</ele>
        <time>2009-04-15T14:07:36Z</time>
      </trkpt>
      <trkpt lat="49.09597" lon="6.99376">
        <ele>215.4726563</ele>
        <time>2009-04-15T14:07:45Z</time>
      </trkpt>
      <trkpt lat="49.09603" lon="6.9939">
        <ele>214.9919434</ele>
        <time>2009-04-15T14:07:55Z</time>
      </trkpt>
      <trkpt lat="49.09611" lon="6.99403">
        <ele>214.9919434</ele>
        <time>2009-04-15T14:08:05Z</time>
      </trkpt>
      <trkpt lat="49.0962" lon="6.99414">
        <ele>214.9919434</ele>
        <time>2009-04-15T14:08:14Z</time>
      </trkpt>
      <trkpt lat="49.09628" lon="6.99422">
        <ele>214.9919434</ele>
        <time>2009-04-15T14:08:22Z</time>
      </trkpt>
      <trkpt lat="49.09634" lon="6.99433">
        <ele>214.5112305</ele>
        <time>2009-04-15T14:08:30Z</time>
      </trkpt>
      <trkpt lat="49.09641" lon="6.99444">
        <ele>215.9532471</ele>
        <time>2009-04-15T14:08:39Z</time>
      </trkpt>
      <trkpt lat="49.09649" lon="6.99455">
        <ele>216.9146729</ele>
        <time>2009-04-15T14:08:47Z</time>
      </trkpt>
      <trkpt lat="49.09656" lon="6.99466">
        <ele>216.9146729</ele>
        <time>2009-04-15T14:08:55Z</time>
      </trkpt>
      <trkpt lat="49.09662" lon="6.99477">
        <ele>217.8759766</ele>
        <time>2009-04-15T14:09:03Z</time>
      </trkpt>
      <trkpt lat="49.09667" lon="6.99491">
        <ele>219.3179932</ele>
        <time>2009-04-15T14:09:11Z</time>
      </trkpt>
      <trkpt lat="49.09674" lon="6.99503">
        <ele>220.2791748</ele>
        <time>2009-04-15T14:09:19Z</time>
      </trkpt>
      <trkpt lat="49.09681" lon="6.99517">
        <ele>220.7598877</ele>
        <time>2009-04-15T14:09:29Z</time>
      </trkpt>
      <trkpt lat="49.09688" lon="6.99528">
        <ele>220.7598877</ele>
        <time>2009-04-15T14:09:42Z</time>
      </trkpt>
      <trkpt lat="49.09695" lon="6.99539">
        <ele>223.163208</ele>
        <time>2009-04-15T14:09:51Z</time>
      </trkpt>
      <trkpt lat="49.09708" lon="6.99556">
        <ele>224.1245117</ele>
        <time>2009-04-15T14:10:03Z</time>
      </trkpt>
      <trkpt lat="49.09716" lon="6.9957">
        <ele>225.0859375</ele>
        <time>2009-04-15T14:10:11Z</time>
      </trkpt>
      <trkpt lat="49.09723" lon="6.99583">
        <ele>226.0471191</ele>
        <time>2009-04-15T14:10:19Z</time>
      </trkpt>
      <trkpt lat="49.09732" lon="6.99596">
        <ele>226.527832</ele>
        <time>2009-04-15T14:10:28Z</time>
      </trkpt>
      <trkpt lat="49.09739" lon="6.99606">
        <ele>227.0085449</ele>
        <time>2009-04-15T14:10:36Z</time>
      </trkpt>
      <trkpt lat="49.09749" lon="6.99612">
        <ele>228.4504395</ele>
        <time>2009-04-15T14:10:44Z</time>
      </trkpt>
      <trkpt lat="49.09758" lon="6.99618">
        <ele>229.892334</ele>
        <time>2009-04-15T14:10:52Z</time>
      </trkpt>
      <trkpt lat="49.09766" lon="6.99627">
        <ele>229.892334</ele>
        <time>2009-04-15T14:11:02Z</time>
      </trkpt>
      <trkpt lat="49.09773" lon="6.99643">
        <ele>230.8537598</ele>
        <time>2009-04-15T14:11:14Z</time>
      </trkpt>
      <trkpt lat="49.09779" lon="6.99657">
        <ele>231.8149414</ele>
        <time>2009-04-15T14:11:25Z</time>
      </trkpt>
      <trkpt lat="49.09784" lon="6.99671">
        <ele>233.2570801</ele>
        <time>2009-04-15T14:11:35Z</time>
      </trkpt>
      <trkpt lat="49.0979" lon="6.99687">
        <ele>234.6990967</ele>
        <time>2009-04-15T14:11:44Z</time>
      </trkpt>
      <trkpt lat="49.09794" lon="6.997">
        <ele>235.1796875</ele>
        <time>2009-04-15T14:11:52Z</time>
      </trkpt>
      <trkpt lat="49.09794" lon="6.99714">
        <ele>236.6217041</ele>
        <time>2009-04-15T14:12:02Z</time>
      </trkpt>
      <trkpt lat="49.09802" lon="6.99731">
        <ele>237.5828857</ele>
        <time>2009-04-15T14:12:15Z</time>
      </trkpt>
      <trkpt lat="49.09813" lon="6.9974">
        <ele>237.5828857</ele>
        <time>2009-04-15T14:12:25Z</time>
      </trkpt>
      <trkpt lat="49.0982" lon="6.99755">
        <ele>237.5828857</ele>
        <time>2009-04-15T14:12:34Z</time>
      </trkpt>
      <trkpt lat="49.09828" lon="6.99769">
        <ele>237.5828857</ele>
        <time>2009-04-15T14:12:43Z</time>
      </trkpt>
      <trkpt lat="49.09837" lon="6.99779">
        <ele>237.1022949</ele>
        <time>2009-04-15T14:12:51Z</time>
      </trkpt>
      <trkpt lat="49.09843" lon="6.99791">
        <ele>237.5828857</ele>
        <time>2009-04-15T14:13:00Z</time>
      </trkpt>
      <trkpt lat="49.0985" lon="6.99804">
        <ele>237.1022949</ele>
        <time>2009-04-15T14:13:09Z</time>
      </trkpt>
      <trkpt lat="49.09859" lon="6.99815">
        <ele>237.1022949</ele>
        <time>2009-04-15T14:13:17Z</time>
      </trkpt>
      <trkpt lat="49.09865" lon="6.99826">
        <ele>236.6217041</ele>
        <time>2009-04-15T14:13:24Z</time>
      </trkpt>
      <trkpt lat="49.09871" lon="6.99839">
        <ele>236.1409912</ele>
        <time>2009-04-15T14:13:34Z</time>
      </trkpt>
      <trkpt lat="49.0988" lon="6.99848">
        <ele>235.1796875</ele>
        <time>2009-04-15T14:13:43Z</time>
      </trkpt>
      <trkpt lat="49.09888" lon="6.9986">
        <ele>233.7376709</ele>
        <time>2009-04-15T14:13:54Z</time>
      </trkpt>
      <trkpt lat="49.09896" lon="6.99872">
        <ele>233.2570801</ele>
        <time>2009-04-15T14:14:05Z</time>
      </trkpt>
      <trkpt lat="49.09906" lon="6.99883">
        <ele>232.7764893</ele>
        <time>2009-04-15T14:14:13Z</time>
      </trkpt>
      <trkpt lat="49.09915" lon="6.99893">
        <ele>231.8149414</ele>
        <time>2009-04-15T14:14:23Z</time>
      </trkpt>
      <trkpt lat="49.09926" lon="6.99906">
        <ele>230.3730469</ele>
        <time>2009-04-15T14:14:37Z</time>
      </trkpt>
      <trkpt lat="49.09927" lon="6.99911">
        <ele>229.892334</ele>
        <time>2009-04-15T14:14:42Z</time>
      </trkpt>
      <trkpt lat="49.09941" lon="6.99916">
        <ele>229.4117432</ele>
        <time>2009-04-15T14:14:49Z</time>
      </trkpt>
      <trkpt lat="49.09954" lon="6.99927">
        <ele>228.9311523</ele>
        <time>2009-04-15T14:14:58Z</time>
      </trkpt>
      <trkpt lat="49.09963" lon="6.99939">
        <ele>227.9697266</ele>
        <time>2009-04-15T14:15:06Z</time>
      </trkpt>
      <trkpt lat="49.09974" lon="6.99949">
        <ele>227.9697266</ele>
        <time>2009-04-15T14:15:13Z</time>
      </trkpt>
      <trkpt lat="49.09984" lon="6.99956">
        <ele>227.4891357</ele>
        <time>2009-04-15T14:15:21Z</time>
      </trkpt>
      <trkpt lat="49.09992" lon="6.99963">
        <ele>227.4891357</ele>
        <time>2009-04-15T14:15:28Z</time>
      </trkpt>
      <trkpt lat="49.10002" lon="6.99974">
        <ele>227.4891357</ele>
        <time>2009-04-15T14:15:35Z</time>
      </trkpt>
      <trkpt lat="49.10011" lon="6.99984">
        <ele>228.4504395</ele>
        <time>2009-04-15T14:15:43Z</time>
      </trkpt>
      <trkpt lat="49.1002" lon="6.99993">
        <ele>228.9311523</ele>
        <time>2009-04-15T14:15:51Z</time>
      </trkpt>
      <trkpt lat="49.1003" lon="7.00003">
        <ele>228.9311523</ele>
        <time>2009-04-15T14:15:59Z</time>
      </trkpt>
      <trkpt lat="49.10039" lon="7.00011">
        <ele>229.4117432</ele>
        <time>2009-04-15T14:16:06Z</time>
      </trkpt>
      <trkpt lat="49.10048" lon="7.00019">
        <ele>229.4117432</ele>
        <time>2009-04-15T14:16:13Z</time>
      </trkpt>
      <trkpt lat="49.10058" lon="7.00028">
        <ele>228.9311523</ele>
        <time>2009-04-15T14:16:20Z</time>
      </trkpt>
      <trkpt lat="49.10066" lon="7.00037">
        <ele>229.4117432</ele>
        <time>2009-04-15T14:16:28Z</time>
      </trkpt>
      <trkpt lat="49.10075" lon="7.00046">
        <ele>229.892334</ele>
        <time>2009-04-15T14:16:37Z</time>
      </trkpt>
      <trkpt lat="49.10084" lon="7.00054">
        <ele>230.3730469</ele>
        <time>2009-04-15T14:16:45Z</time>
      </trkpt>
      <trkpt lat="49.10093" lon="7.0006">
        <ele>230.3730469</ele>
        <time>2009-04-15T14:16:53Z</time>
      </trkpt>
      <trkpt lat="49.10102" lon="7.00069">
        <ele>231.3343506</ele>
        <time>2009-04-15T14:17:01Z</time>
      </trkpt>
      <trkpt lat="49.10111" lon="7.00078">
        <ele>231.8149414</ele>
        <time>2009-04-15T14:17:09Z</time>
      </trkpt>
      <trkpt lat="49.1012" lon="7.00088">
        <ele>231.3343506</ele>
        <time>2009-04-15T14:17:17Z</time>
      </trkpt>
      <trkpt lat="49.10129" lon="7.00095">
        <ele>231.8149414</ele>
        <time>2009-04-15T14:17:25Z</time>
      </trkpt>
      <trkpt lat="49.10138" lon="7.00102">
        <ele>231.8149414</ele>
        <time>2009-04-15T14:17:33Z</time>
      </trkpt>
      <trkpt lat="49.10148" lon="7.00108">
        <ele>232.2957764</ele>
        <time>2009-04-15T14:17:40Z</time>
      </trkpt>
      <trkpt lat="49.10157" lon="7.00114">
        <ele>232.2957764</ele>
        <time>2009-04-15T14:17:48Z</time>
      </trkpt>
      <trkpt lat="49.10167" lon="7.00122">
        <ele>231.8149414</ele>
        <time>2009-04-15T14:17:55Z</time>
      </trkpt>
      <trkpt lat="49.10175" lon="7.00128">
        <ele>231.8149414</ele>
        <time>2009-04-15T14:18:02Z</time>
      </trkpt>
      <trkpt lat="49.10185" lon="7.00133">
        <ele>231.8149414</ele>
        <time>2009-04-15T14:18:10Z</time>
      </trkpt>
      <trkpt lat="49.10193" lon="7.00142">
        <ele>231.3343506</ele>
        <time>2009-04-15T14:18:17Z</time>
      </trkpt>
      <trkpt lat="49.10201" lon="7.0015">
        <ele>231.3343506</ele>
        <time>2009-04-15T14:18:25Z</time>
      </trkpt>
      <trkpt lat="49.10209" lon="7.00161">
        <ele>230.8537598</ele>
        <time>2009-04-15T14:18:32Z</time>
      </trkpt>
      <trkpt lat="49.10214" lon="7.00174">
        <ele>230.8537598</ele>
        <time>2009-04-15T14:18:39Z</time>
      </trkpt>
      <trkpt lat="49.10221" lon="7.00186">
        <ele>230.3730469</ele>
        <time>2009-04-15T14:18:46Z</time>
      </trkpt>
      <trkpt lat="49.10229" lon="7.00198">
        <ele>229.892334</ele>
        <time>2009-04-15T14:18:53Z</time>
      </trkpt>
      <trkpt lat="49.10237" lon="7.00208">
        <ele>229.892334</ele>
        <time>2009-04-15T14:19:01Z</time>
      </trkpt>
      <trkpt lat="49.10244" lon="7.00217">
        <ele>229.4117432</ele>
        <time>2009-04-15T14:19:08Z</time>
      </trkpt>
      <trkpt lat="49.10251" lon="7.00228">
        <ele>229.4117432</ele>
        <time>2009-04-15T14:19:15Z</time>
      </trkpt>
      <trkpt lat="49.10259" lon="7.00237">
        <ele>228.9311523</ele>
        <time>2009-04-15T14:19:22Z</time>
      </trkpt>
      <trkpt lat="49.10268" lon="7.00242">
        <ele>228.4504395</ele>
        <time>2009-04-15T14:19:29Z</time>
      </trkpt>
      <trkpt lat="49.10277" lon="7.00247">
        <ele>227.0085449</ele>
        <time>2009-04-15T14:19:36Z</time>
      </trkpt>
      <trkpt lat="49.10287" lon="7.00249">
        <ele>226.527832</ele>
        <time>2009-04-15T14:19:43Z</time>
      </trkpt>
      <trkpt lat="49.10296" lon="7.0025">
        <ele>225.0859375</ele>
        <time>2009-04-15T14:19:50Z</time>
      </trkpt>
      <trkpt lat="49.10305" lon="7.00246">
        <ele>223.6437988</ele>
        <time>2009-04-15T14:19:57Z</time>
      </trkpt>
      <trkpt lat="49.10314" lon="7.00243">
        <ele>222.6824951</ele>
        <time>2009-04-15T14:20:04Z</time>
      </trkpt>
      <trkpt lat="49.10323" lon="7.00242">
        <ele>222.2017822</ele>
        <time>2009-04-15T14:20:12Z</time>
      </trkpt>
      <trkpt lat="49.10332" lon="7.00241">
        <ele>220.7598877</ele>
        <time>2009-04-15T14:20:20Z</time>
      </trkpt>
      <trkpt lat="49.10342" lon="7.00238">
        <ele>219.798584</ele>
        <time>2009-04-15T14:20:28Z</time>
      </trkpt>
      <trkpt lat="49.10351" lon="7.00241">
        <ele>219.3179932</ele>
        <time>2009-04-15T14:20:35Z</time>
      </trkpt>
      <trkpt lat="49.10361" lon="7.00249">
        <ele>218.8372803</ele>
        <time>2009-04-15T14:20:43Z</time>
      </trkpt>
      <trkpt lat="49.10368" lon="7.0026">
        <ele>218.8372803</ele>
        <time>2009-04-15T14:20:50Z</time>
      </trkpt>
      <trkpt lat="49.10375" lon="7.00273">
        <ele>218.3565674</ele>
        <time>2009-04-15T14:20:57Z</time>
      </trkpt>
      <trkpt lat="49.10382" lon="7.00287">
        <ele>218.3565674</ele>
        <time>2009-04-15T14:21:04Z</time>
      </trkpt>
      <trkpt lat="49.10388" lon="7.00299">
        <ele>218.3565674</ele>
        <time>2009-04-15T14:21:11Z</time>
      </trkpt>
      <trkpt lat="49.10395" lon="7.00309">
        <ele>218.3565674</ele>
        <time>2009-04-15T14:21:18Z</time>
      </trkpt>
      <trkpt lat="49.10401" lon="7.0032">
        <ele>217.3953857</ele>
        <time>2009-04-15T14:21:29Z</time>
      </trkpt>
      <trkpt lat="49.10413" lon="7.0032">
        <ele>216.43396</ele>
        <time>2009-04-15T14:21:37Z</time>
      </trkpt>
      <trkpt lat="49.10424" lon="7.00316">
        <ele>215.4726563</ele>
        <time>2009-04-15T14:21:44Z</time>
      </trkpt>
      <trkpt lat="49.10435" lon="7.00315">
        <ele>215.4726563</ele>
        <time>2009-04-15T14:21:52Z</time>
      </trkpt>
      <trkpt lat="49.10446" lon="7.00314">
        <ele>215.4726563</ele>
        <time>2009-04-15T14:22:01Z</time>
      </trkpt>
      <trkpt lat="49.10457" lon="7.00311">
        <ele>214.9919434</ele>
        <time>2009-04-15T14:22:09Z</time>
      </trkpt>
      <trkpt lat="49.10466" lon="7.00312">
        <ele>215.4726563</ele>
        <time>2009-04-15T14:22:17Z</time>
      </trkpt>
      <trkpt lat="49.10475" lon="7.00315">
        <ele>215.4726563</ele>
        <time>2009-04-15T14:22:25Z</time>
      </trkpt>
      <trkpt lat="49.10484" lon="7.00311">
        <ele>215.4726563</ele>
        <time>2009-04-15T14:22:39Z</time>
      </trkpt>
      <trkpt lat="49.10492" lon="7.00307">
        <ele>216.9146729</ele>
        <time>2009-04-15T14:24:19Z</time>
      </trkpt>
      <trkpt lat="49.10502" lon="7.00313">
        <ele>217.8759766</ele>
        <time>2009-04-15T14:24:28Z</time>
      </trkpt>
      <trkpt lat="49.10513" lon="7.00314">
        <ele>216.9146729</ele>
        <time>2009-04-15T14:24:36Z</time>
      </trkpt>
      <trkpt lat="49.10524" lon="7.00314">
        <ele>216.9146729</ele>
        <time>2009-04-15T14:24:43Z</time>
      </trkpt>
      <trkpt lat="49.10534" lon="7.00315">
        <ele>217.3953857</ele>
        <time>2009-04-15T14:24:51Z</time>
      </trkpt>
      <trkpt lat="49.10544" lon="7.00317">
        <ele>218.3565674</ele>
        <time>2009-04-15T14:25:01Z</time>
      </trkpt>
      <trkpt lat="49.10553" lon="7.00321">
        <ele>219.798584</ele>
        <time>2009-04-15T14:25:12Z</time>
      </trkpt>
      <trkpt lat="49.10564" lon="7.00324">
        <ele>220.7598877</ele>
        <time>2009-04-15T14:25:24Z</time>
      </trkpt>
      <trkpt lat="49.10573" lon="7.00322">
        <ele>222.6824951</ele>
        <time>2009-04-15T14:25:38Z</time>
      </trkpt>
      <trkpt lat="49.10582" lon="7.00313">
        <ele>224.1245117</ele>
        <time>2009-04-15T14:25:48Z</time>
      </trkpt>
      <trkpt lat="49.1059" lon="7.00302">
        <ele>224.6052246</ele>
        <time>2009-04-15T14:25:58Z</time>
      </trkpt>
      <trkpt lat="49.10596" lon="7.00288">
        <ele>224.6052246</ele>
        <time>2009-04-15T14:26:08Z</time>
      </trkpt>
      <trkpt lat="49.10602" lon="7.00276">
        <ele>224.6052246</ele>
        <time>2009-04-15T14:26:17Z</time>
      </trkpt>
      <trkpt lat="49.10608" lon="7.00264">
        <ele>225.0859375</ele>
        <time>2009-04-15T14:26:26Z</time>
      </trkpt>
      <trkpt lat="49.10616" lon="7.00256">
        <ele>226.0471191</ele>
        <time>2009-04-15T14:26:36Z</time>
      </trkpt>
      <trkpt lat="49.10624" lon="7.0025">
        <ele>227.0085449</ele>
        <time>2009-04-15T14:26:45Z</time>
      </trkpt>
      <trkpt lat="49.10634" lon="7.00244">
        <ele>227.4891357</ele>
        <time>2009-04-15T14:26:54Z</time>
      </trkpt>
      <trkpt lat="49.10644" lon="7.0024">
        <ele>227.9697266</ele>
        <time>2009-04-15T14:27:01Z</time>
      </trkpt>
      <trkpt lat="49.10654" lon="7.00239">
        <ele>228.9311523</ele>
        <time>2009-04-15T14:27:09Z</time>
      </trkpt>
      <trkpt lat="49.10663" lon="7.00243">
        <ele>229.4117432</ele>
        <time>2009-04-15T14:27:17Z</time>
      </trkpt>
      <trkpt lat="49.10671" lon="7.00249">
        <ele>229.892334</ele>
        <time>2009-04-15T14:27:23Z</time>
      </trkpt>
      <trkpt lat="49.10681" lon="7.00254">
        <ele>230.8537598</ele>
        <time>2009-04-15T14:27:30Z</time>
      </trkpt>
      <trkpt lat="49.1069" lon="7.00259">
        <ele>230.8537598</ele>
        <time>2009-04-15T14:27:38Z</time>
      </trkpt>
      <trkpt lat="49.10699" lon="7.00264">
        <ele>231.3343506</ele>
        <time>2009-04-15T14:27:46Z</time>
      </trkpt>
      <trkpt lat="49.10707" lon="7.00271">
        <ele>231.3343506</ele>
        <time>2009-04-15T14:27:53Z</time>
      </trkpt>
      <trkpt lat="49.10715" lon="7.00277">
        <ele>231.3343506</ele>
        <time>2009-04-15T14:28:00Z</time>
      </trkpt>
      <trkpt lat="49.10723" lon="7.00284">
        <ele>232.7764893</ele>
        <time>2009-04-15T14:28:08Z</time>
      </trkpt>
      <trkpt lat="49.10732" lon="7.00289">
        <ele>232.7764893</ele>
        <time>2009-04-15T14:28:16Z</time>
      </trkpt>
      <trkpt lat="49.10741" lon="7.00296">
        <ele>233.7376709</ele>
        <time>2009-04-15T14:28:24Z</time>
      </trkpt>
      <trkpt lat="49.10749" lon="7.00304">
        <ele>234.2183838</ele>
        <time>2009-04-15T14:28:32Z</time>
      </trkpt>
      <trkpt lat="49.10756" lon="7.00313">
        <ele>234.6990967</ele>
        <time>2009-04-15T14:28:39Z</time>
      </trkpt>
      <trkpt lat="49.10762" lon="7.00325">
        <ele>235.1796875</ele>
        <time>2009-04-15T14:28:46Z</time>
      </trkpt>
      <trkpt lat="49.10769" lon="7.00335">
        <ele>235.1796875</ele>
        <time>2009-04-15T14:28:54Z</time>
      </trkpt>
      <trkpt lat="49.10776" lon="7.00344">
        <ele>235.6602783</ele>
        <time>2009-04-15T14:29:02Z</time>
      </trkpt>
      <trkpt lat="49.10781" lon="7.00357">
        <ele>235.6602783</ele>
        <time>2009-04-15T14:29:10Z</time>
      </trkpt>
      <trkpt lat="49.10789" lon="7.00369">
        <ele>236.6217041</ele>
        <time>2009-04-15T14:29:18Z</time>
      </trkpt>
      <trkpt lat="49.10796" lon="7.00381">
        <ele>237.1022949</ele>
        <time>2009-04-15T14:29:26Z</time>
      </trkpt>
      <trkpt lat="49.10801" lon="7.00394">
        <ele>238.0635986</ele>
        <time>2009-04-15T14:29:34Z</time>
      </trkpt>
      <trkpt lat="49.10807" lon="7.00407">
        <ele>237.5828857</ele>
        <time>2009-04-15T14:29:41Z</time>
      </trkpt>
      <trkpt lat="49.10815" lon="7.00419">
        <ele>237.5828857</ele>
        <time>2009-04-15T14:29:48Z</time>
      </trkpt>
      <trkpt lat="49.1082" lon="7.00431">
        <ele>238.0635986</ele>
        <time>2009-04-15T14:29:55Z</time>
      </trkpt>
      <trkpt lat="49.10826" lon="7.00443">
        <ele>238.0635986</ele>
        <time>2009-04-15T14:30:02Z</time>
      </trkpt>
      <trkpt lat="49.10832" lon="7.00455">
        <ele>238.0635986</ele>
        <time>2009-04-15T14:30:08Z</time>
      </trkpt>
      <trkpt lat="49.10837" lon="7.00467">
        <ele>238.5443115</ele>
        <time>2009-04-15T14:30:14Z</time>
      </trkpt>
      <trkpt lat="49.1084" lon="7.0048">
        <ele>239.0249023</ele>
        <time>2009-04-15T14:30:20Z</time>
      </trkpt>
      <trkpt lat="49.10844" lon="7.00493">
        <ele>239.0249023</ele>
        <time>2009-04-15T14:30:27Z</time>
      </trkpt>
      <trkpt lat="49.1085" lon="7.00505">
        <ele>239.0249023</ele>
        <time>2009-04-15T14:30:35Z</time>
      </trkpt>
      <trkpt lat="49.10858" lon="7.00513">
        <ele>239.5054932</ele>
        <time>2009-04-15T14:30:42Z</time>
      </trkpt>
      <trkpt lat="49.10867" lon="7.00521">
        <ele>239.9862061</ele>
        <time>2009-04-15T14:30:49Z</time>
      </trkpt>
      <trkpt lat="49.10876" lon="7.00526">
        <ele>239.9862061</ele>
        <time>2009-04-15T14:30:56Z</time>
      </trkpt>
      <trkpt lat="49.10887" lon="7.00532">
        <ele>239.9862061</ele>
        <time>2009-04-15T14:31:03Z</time>
      </trkpt>
      <trkpt lat="49.10896" lon="7.00536">
        <ele>239.9862061</ele>
        <time>2009-04-15T14:31:10Z</time>
      </trkpt>
      <trkpt lat="49.10906" lon="7.00539">
        <ele>239.9862061</ele>
        <time>2009-04-15T14:31:18Z</time>
      </trkpt>
      <trkpt lat="49.10915" lon="7.00537">
        <ele>240.467041</ele>
        <time>2009-04-15T14:31:25Z</time>
      </trkpt>
      <trkpt lat="49.10925" lon="7.00533">
        <ele>241.4282227</ele>
        <time>2009-04-15T14:31:32Z</time>
      </trkpt>
      <trkpt lat="49.10934" lon="7.00528">
        <ele>241.4282227</ele>
        <time>2009-04-15T14:31:39Z</time>
      </trkpt>
      <trkpt lat="49.10944" lon="7.00528">
        <ele>240.9476318</ele>
        <time>2009-04-15T14:31:46Z</time>
      </trkpt>
      <trkpt lat="49.10953" lon="7.00528">
        <ele>241.9089355</ele>
        <time>2009-04-15T14:31:53Z</time>
      </trkpt>
      <trkpt lat="49.10963" lon="7.00525">
        <ele>242.3896484</ele>
        <time>2009-04-15T14:32:01Z</time>
      </trkpt>
      <trkpt lat="49.10973" lon="7.0052">
        <ele>242.3896484</ele>
        <time>2009-04-15T14:32:09Z</time>
      </trkpt>
      <trkpt lat="49.10983" lon="7.00519">
        <ele>242.8702393</ele>
        <time>2009-04-15T14:32:18Z</time>
      </trkpt>
      <trkpt lat="49.10993" lon="7.00519">
        <ele>243.3508301</ele>
        <time>2009-04-15T14:32:26Z</time>
      </trkpt>
      <trkpt lat="49.11003" lon="7.00522">
        <ele>244.3122559</ele>
        <time>2009-04-15T14:32:35Z</time>
      </trkpt>
      <trkpt lat="49.11012" lon="7.00528">
        <ele>245.2734375</ele>
        <time>2009-04-15T14:32:43Z</time>
      </trkpt>
      <trkpt lat="49.11022" lon="7.00528">
        <ele>246.7154541</ele>
        <time>2009-04-15T14:32:51Z</time>
      </trkpt>
      <trkpt lat="49.11032" lon="7.00531">
        <ele>247.6767578</ele>
        <time>2009-04-15T14:33:00Z</time>
      </trkpt>
      <trkpt lat="49.11042" lon="7.00532">
        <ele>248.1575928</ele>
        <time>2009-04-15T14:33:07Z</time>
      </trkpt>
      <trkpt lat="49.11052" lon="7.00534">
        <ele>248.6381836</ele>
        <time>2009-04-15T14:33:14Z</time>
      </trkpt>
      <trkpt lat="49.11062" lon="7.00535">
        <ele>248.6381836</ele>
        <time>2009-04-15T14:33:22Z</time>
      </trkpt>
      <trkpt lat="49.11072" lon="7.00538">
        <ele>249.1187744</ele>
        <time>2009-04-15T14:33:30Z</time>
      </trkpt>
      <trkpt lat="49.11081" lon="7.0054">
        <ele>249.1187744</ele>
        <time>2009-04-15T14:33:38Z</time>
      </trkpt>
      <trkpt lat="49.11091" lon="7.00542">
        <ele>250.560791</ele>
        <time>2009-04-15T14:33:46Z</time>
      </trkpt>
      <trkpt lat="49.11101" lon="7.00546">
        <ele>252.4833984</ele>
        <time>2009-04-15T14:33:54Z</time>
      </trkpt>
      <trkpt lat="49.11111" lon="7.0055">
        <ele>252.9639893</ele>
        <time>2009-04-15T14:34:02Z</time>
      </trkpt>
      <trkpt lat="49.11121" lon="7.00554">
        <ele>253.4447021</ele>
        <time>2009-04-15T14:34:10Z</time>
      </trkpt>
      <trkpt lat="49.1113" lon="7.00559">
        <ele>254.8865967</ele>
        <time>2009-04-15T14:34:18Z</time>
      </trkpt>
      <trkpt lat="49.11139" lon="7.00566">
        <ele>255.8480225</ele>
        <time>2009-04-15T14:34:26Z</time>
      </trkpt>
      <trkpt lat="49.11148" lon="7.00573">
        <ele>257.2900391</ele>
        <time>2009-04-15T14:34:33Z</time>
      </trkpt>
      <trkpt lat="49.11156" lon="7.00579">
        <ele>258.7319336</ele>
        <time>2009-04-15T14:34:40Z</time>
      </trkpt>
      <trkpt lat="49.11165" lon="7.00585">
        <ele>258.7319336</ele>
        <time>2009-04-15T14:34:47Z</time>
      </trkpt>
      <trkpt lat="49.11172" lon="7.00593">
        <ele>259.2126465</ele>
        <time>2009-04-15T14:34:54Z</time>
      </trkpt>
      <trkpt lat="49.11181" lon="7.00599">
        <ele>258.7319336</ele>
        <time>2009-04-15T14:35:01Z</time>
      </trkpt>
      <trkpt lat="49.11189" lon="7.00607">
        <ele>259.2126465</ele>
        <time>2009-04-15T14:35:08Z</time>
      </trkpt>
      <trkpt lat="49.11197" lon="7.00615">
        <ele>259.2126465</ele>
        <time>2009-04-15T14:35:15Z</time>
      </trkpt>
      <trkpt lat="49.11205" lon="7.00623">
        <ele>259.2126465</ele>
        <time>2009-04-15T14:35:23Z</time>
      </trkpt>
      <trkpt lat="49.11215" lon="7.00629">
        <ele>259.6933594</ele>
        <time>2009-04-15T14:35:31Z</time>
      </trkpt>
      <trkpt lat="49.11224" lon="7.00633">
        <ele>260.1739502</ele>
        <time>2009-04-15T14:35:38Z</time>
      </trkpt>
      <trkpt lat="49.11233" lon="7.00637">
        <ele>260.1739502</ele>
        <time>2009-04-15T14:35:45Z</time>
      </trkpt>
      <trkpt lat="49.11242" lon="7.00641">
        <ele>261.1352539</ele>
        <time>2009-04-15T14:35:52Z</time>
      </trkpt>
      <trkpt lat="49.11251" lon="7.00644">
        <ele>261.1352539</ele>
        <time>2009-04-15T14:35:59Z</time>
      </trkpt>
      <trkpt lat="49.11261" lon="7.00648">
        <ele>261.1352539</ele>
        <time>2009-04-15T14:36:06Z</time>
      </trkpt>
      <trkpt lat="49.1127" lon="7.00648">
        <ele>260.654541</ele>
        <time>2009-04-15T14:36:13Z</time>
      </trkpt>
      <trkpt lat="49.11279" lon="7.00652">
        <ele>260.1739502</ele>
        <time>2009-04-15T14:36:20Z</time>
      </trkpt>
      <trkpt lat="49.11289" lon="7.00652">
        <ele>259.6933594</ele>
        <time>2009-04-15T14:36:28Z</time>
      </trkpt>
      <trkpt lat="49.11298" lon="7.00656">
        <ele>259.6933594</ele>
        <time>2009-04-15T14:36:36Z</time>
      </trkpt>
      <trkpt lat="49.11308" lon="7.00657">
        <ele>258.7319336</ele>
        <time>2009-04-15T14:36:44Z</time>
      </trkpt>
      <trkpt lat="49.11318" lon="7.00655">
        <ele>257.2900391</ele>
        <time>2009-04-15T14:36:52Z</time>
      </trkpt>
      <trkpt lat="49.11328" lon="7.00656">
        <ele>255.3673096</ele>
        <time>2009-04-15T14:37:00Z</time>
      </trkpt>
      <trkpt lat="49.11338" lon="7.00657">
        <ele>254.4060059</ele>
        <time>2009-04-15T14:37:07Z</time>
      </trkpt>
      <trkpt lat="49.11347" lon="7.00656">
        <ele>253.925415</ele>
        <time>2009-04-15T14:37:14Z</time>
      </trkpt>
      <trkpt lat="49.11356" lon="7.00658">
        <ele>252.9639893</ele>
        <time>2009-04-15T14:37:21Z</time>
      </trkpt>
      <trkpt lat="49.11365" lon="7.00659">
        <ele>252.4833984</ele>
        <time>2009-04-15T14:37:28Z</time>
      </trkpt>
      <trkpt lat="49.11375" lon="7.00659">
        <ele>251.5220947</ele>
        <time>2009-04-15T14:37:36Z</time>
      </trkpt>
      <trkpt lat="49.11384" lon="7.0066">
        <ele>251.0413818</ele>
        <time>2009-04-15T14:37:43Z</time>
      </trkpt>
      <trkpt lat="49.11393" lon="7.00662">
        <ele>250.0802002</ele>
        <time>2009-04-15T14:37:50Z</time>
      </trkpt>
      <trkpt lat="49.11402" lon="7.00663">
        <ele>250.0802002</ele>
        <time>2009-04-15T14:37:56Z</time>
      </trkpt>
      <trkpt lat="49.11412" lon="7.00658">
        <ele>249.5994873</ele>
        <time>2009-04-15T14:38:21Z</time>
      </trkpt>
      <trkpt lat="49.11421" lon="7.00657">
        <ele>249.1187744</ele>
        <time>2009-04-15T14:38:37Z</time>
      </trkpt>
      <trkpt lat="49.1143" lon="7.00656">
        <ele>250.0802002</ele>
        <time>2009-04-15T14:38:55Z</time>
      </trkpt>
      <trkpt lat="49.11439" lon="7.00657">
        <ele>250.560791</ele>
        <time>2009-04-15T14:39:06Z</time>
      </trkpt>
      <trkpt lat="49.11449" lon="7.00655">
        <ele>250.560791</ele>
        <time>2009-04-15T14:39:17Z</time>
      </trkpt>
      <trkpt lat="49.11458" lon="7.00655">
        <ele>250.560791</ele>
        <time>2009-04-15T14:39:27Z</time>
      </trkpt>
      <trkpt lat="49.11467" lon="7.00654">
        <ele>250.560791</ele>
        <time>2009-04-15T14:39:36Z</time>
      </trkpt>
      <trkpt lat="49.11475" lon="7.00648">
        <ele>251.0413818</ele>
        <time>2009-04-15T14:39:45Z</time>
      </trkpt>
      <trkpt lat="49.11484" lon="7.00644">
        <ele>250.560791</ele>
        <time>2009-04-15T14:39:54Z</time>
      </trkpt>
      <trkpt lat="49.11493" lon="7.00638">
        <ele>251.0413818</ele>
        <time>2009-04-15T14:40:03Z</time>
      </trkpt>
      <trkpt lat="49.11502" lon="7.00633">
        <ele>252.0028076</ele>
        <time>2009-04-15T14:40:13Z</time>
      </trkpt>
      <trkpt lat="49.11518" lon="7.00636">
        <ele>251.5220947</ele>
        <time>2009-04-15T14:42:43Z</time>
      </trkpt>
      <trkpt lat="49.11528" lon="7.00627">
        <ele>252.9639893</ele>
        <time>2009-04-15T14:42:56Z</time>
      </trkpt>
      <trkpt lat="49.11534" lon="7.00614">
        <ele>253.925415</ele>
        <time>2009-04-15T14:43:09Z</time>
      </trkpt>
      <trkpt lat="49.11538" lon="7.00598">
        <ele>254.8865967</ele>
        <time>2009-04-15T14:43:18Z</time>
      </trkpt>
      <trkpt lat="49.11541" lon="7.00583">
        <ele>255.3673096</ele>
        <time>2009-04-15T14:43:26Z</time>
      </trkpt>
      <trkpt lat="49.11544" lon="7.00568">
        <ele>255.8480225</ele>
        <time>2009-04-15T14:43:35Z</time>
      </trkpt>
      <trkpt lat="49.11548" lon="7.00552">
        <ele>255.3673096</ele>
        <time>2009-04-15T14:43:43Z</time>
      </trkpt>
      <trkpt lat="49.11551" lon="7.00536">
        <ele>255.8480225</ele>
        <time>2009-04-15T14:43:51Z</time>
      </trkpt>
      <trkpt lat="49.11553" lon="7.0052">
        <ele>255.8480225</ele>
        <time>2009-04-15T14:43:58Z</time>
      </trkpt>
      <trkpt lat="49.11558" lon="7.00506">
        <ele>255.8480225</ele>
        <time>2009-04-15T14:44:06Z</time>
      </trkpt>
      <trkpt lat="49.11565" lon="7.00497">
        <ele>256.3287354</ele>
        <time>2009-04-15T14:44:14Z</time>
      </trkpt>
      <trkpt lat="49.11575" lon="7.00495">
        <ele>258.2513428</ele>
        <time>2009-04-15T14:44:23Z</time>
      </trkpt>
      <trkpt lat="49.11585" lon="7.00496">
        <ele>258.2513428</ele>
        <time>2009-04-15T14:44:31Z</time>
      </trkpt>
      <trkpt lat="49.11594" lon="7.00499">
        <ele>259.2126465</ele>
        <time>2009-04-15T14:44:39Z</time>
      </trkpt>
      <trkpt lat="49.11604" lon="7.00501">
        <ele>258.7319336</ele>
        <time>2009-04-15T14:44:47Z</time>
      </trkpt>
      <trkpt lat="49.11614" lon="7.00502">
        <ele>260.1739502</ele>
        <time>2009-04-15T14:44:55Z</time>
      </trkpt>
      <trkpt lat="49.11623" lon="7.00502">
        <ele>261.1352539</ele>
        <time>2009-04-15T14:45:03Z</time>
      </trkpt>
      <trkpt lat="49.11633" lon="7.00502">
        <ele>262.0965576</ele>
        <time>2009-04-15T14:45:12Z</time>
      </trkpt>
      <trkpt lat="49.11643" lon="7.00502">
        <ele>264.0192871</ele>
        <time>2009-04-15T14:45:21Z</time>
      </trkpt>
      <trkpt lat="49.11653" lon="7.00504">
        <ele>264.9805908</ele>
        <time>2009-04-15T14:45:29Z</time>
      </trkpt>
      <trkpt lat="49.11661" lon="7.00505">
        <ele>265.4613037</ele>
        <time>2009-04-15T14:45:38Z</time>
      </trkpt>
      <trkpt lat="49.11671" lon="7.00503">
        <ele>265.9418945</ele>
        <time>2009-04-15T14:45:47Z</time>
      </trkpt>
      <trkpt lat="49.1168" lon="7.00501">
        <ele>266.9031982</ele>
        <time>2009-04-15T14:45:55Z</time>
      </trkpt>
      <trkpt lat="49.11688" lon="7.00502">
        <ele>266.9031982</ele>
        <time>2009-04-15T14:46:04Z</time>
      </trkpt>
      <trkpt lat="49.11698" lon="7.005">
        <ele>267.864502</ele>
        <time>2009-04-15T14:46:13Z</time>
      </trkpt>
      <trkpt lat="49.11708" lon="7.00496">
        <ele>269.3065186</ele>
        <time>2009-04-15T14:46:22Z</time>
      </trkpt>
      <trkpt lat="49.11717" lon="7.00492">
        <ele>270.2677002</ele>
        <time>2009-04-15T14:46:30Z</time>
      </trkpt>
      <trkpt lat="49.11727" lon="7.00489">
        <ele>271.229126</ele>
        <time>2009-04-15T14:46:38Z</time>
      </trkpt>
      <trkpt lat="49.11736" lon="7.00482">
        <ele>272.1904297</ele>
        <time>2009-04-15T14:46:46Z</time>
      </trkpt>
      <trkpt lat="49.11745" lon="7.00475">
        <ele>272.6711426</ele>
        <time>2009-04-15T14:46:54Z</time>
      </trkpt>
      <trkpt lat="49.11754" lon="7.00469">
        <ele>273.6324463</ele>
        <time>2009-04-15T14:47:02Z</time>
      </trkpt>
      <trkpt lat="49.11762" lon="7.00462">
        <ele>274.59375</ele>
        <time>2009-04-15T14:47:09Z</time>
      </trkpt>
      <trkpt lat="49.11771" lon="7.00454">
        <ele>276.0356445</ele>
        <time>2009-04-15T14:47:17Z</time>
      </trkpt>
      <trkpt lat="49.11779" lon="7.00448">
        <ele>276.9970703</ele>
        <time>2009-04-15T14:47:24Z</time>
      </trkpt>
      <trkpt lat="49.11788" lon="7.00442">
        <ele>278.4389648</ele>
        <time>2009-04-15T14:47:32Z</time>
      </trkpt>
      <trkpt lat="49.11797" lon="7.00436">
        <ele>279.4002686</ele>
        <time>2009-04-15T14:47:40Z</time>
      </trkpt>
      <trkpt lat="49.11807" lon="7.0043">
        <ele>279.8808594</ele>
        <time>2009-04-15T14:47:48Z</time>
      </trkpt>
      <trkpt lat="49.11815" lon="7.00424">
        <ele>279.4002686</ele>
        <time>2009-04-15T14:47:55Z</time>
      </trkpt>
      <trkpt lat="49.11824" lon="7.00421">
        <ele>279.8808594</ele>
        <time>2009-04-15T14:48:03Z</time>
      </trkpt>
      <trkpt lat="49.11834" lon="7.00417">
        <ele>281.322998</ele>
        <time>2009-04-15T14:48:11Z</time>
      </trkpt>
      <trkpt lat="49.11841" lon="7.0041">
        <ele>282.2843018</ele>
        <time>2009-04-15T14:48:18Z</time>
      </trkpt>
      <trkpt lat="49.1185" lon="7.00404">
        <ele>284.2069092</ele>
        <time>2009-04-15T14:48:26Z</time>
      </trkpt>
      <trkpt lat="49.1186" lon="7.00402">
        <ele>284.6876221</ele>
        <time>2009-04-15T14:48:38Z</time>
      </trkpt>
      <trkpt lat="49.11869" lon="7.004">
        <ele>284.6876221</ele>
        <time>2009-04-15T14:48:46Z</time>
      </trkpt>
      <trkpt lat="49.11878" lon="7.00398">
        <ele>285.1682129</ele>
        <time>2009-04-15T14:48:54Z</time>
      </trkpt>
      <trkpt lat="49.11887" lon="7.00394">
        <ele>287.0908203</ele>
        <time>2009-04-15T14:49:02Z</time>
      </trkpt>
      <trkpt lat="49.11896" lon="7.00389">
        <ele>288.0522461</ele>
        <time>2009-04-15T14:49:10Z</time>
      </trkpt>
      <trkpt lat="49.11905" lon="7.00385">
        <ele>289.0135498</ele>
        <time>2009-04-15T14:49:18Z</time>
      </trkpt>
      <trkpt lat="49.11914" lon="7.0038">
        <ele>289.9748535</ele>
        <time>2009-04-15T14:49:26Z</time>
      </trkpt>
      <trkpt lat="49.11925" lon="7.00378">
        <ele>290.9361572</ele>
        <time>2009-04-15T14:49:34Z</time>
      </trkpt>
      <trkpt lat="49.11935" lon="7.00375">
        <ele>291.8974609</ele>
        <time>2009-04-15T14:49:42Z</time>
      </trkpt>
      <trkpt lat="49.11944" lon="7.00373">
        <ele>292.8587646</ele>
        <time>2009-04-15T14:49:50Z</time>
      </trkpt>
      <trkpt lat="49.11954" lon="7.00369">
        <ele>293.3393555</ele>
        <time>2009-04-15T14:49:58Z</time>
      </trkpt>
      <trkpt lat="49.11964" lon="7.00368">
        <ele>294.3007813</ele>
        <time>2009-04-15T14:50:06Z</time>
      </trkpt>
      <trkpt lat="49.11973" lon="7.00364">
        <ele>294.7813721</ele>
        <time>2009-04-15T14:50:15Z</time>
      </trkpt>
      <trkpt lat="49.11982" lon="7.00361">
        <ele>294.3007813</ele>
        <time>2009-04-15T14:50:23Z</time>
      </trkpt>
      <trkpt lat="49.11991" lon="7.00354">
        <ele>294.3007813</ele>
        <time>2009-04-15T14:50:32Z</time>
      </trkpt>
      <trkpt lat="49.11997" lon="7.00348">
        <ele>294.7813721</ele>
        <time>2009-04-15T14:50:59Z</time>
      </trkpt>
      <trkpt lat="49.12003" lon="7.00352">
        <ele>295.7426758</ele>
        <time>2009-04-15T14:53:09Z</time>
      </trkpt>
      <trkpt lat="49.12003" lon="7.00345">
        <ele>294.7813721</ele>
        <time>2009-04-15T14:54:03Z</time>
      </trkpt>
      <trkpt lat="49.12008" lon="7.00331">
        <ele>295.2619629</ele>
        <time>2009-04-15T14:54:13Z</time>
      </trkpt>
      <trkpt lat="49.12012" lon="7.00317">
        <ele>294.3007813</ele>
        <time>2009-04-15T14:54:22Z</time>
      </trkpt>
      <trkpt lat="49.12014" lon="7.00303">
        <ele>295.2619629</ele>
        <time>2009-04-15T14:54:31Z</time>
      </trkpt>
      <trkpt lat="49.12016" lon="7.00288">
        <ele>296.2235107</ele>
        <time>2009-04-15T14:54:40Z</time>
      </trkpt>
      <trkpt lat="49.12018" lon="7.00275">
        <ele>296.7041016</ele>
        <time>2009-04-15T14:54:49Z</time>
      </trkpt>
      <trkpt lat="49.12017" lon="7.00261">
        <ele>297.6654053</ele>
        <time>2009-04-15T14:55:00Z</time>
      </trkpt>
      <trkpt lat="49.12016" lon="7.00246">
        <ele>297.6654053</ele>
        <time>2009-04-15T14:55:10Z</time>
      </trkpt>
      <trkpt lat="49.12015" lon="7.00231">
        <ele>298.1461182</ele>
        <time>2009-04-15T14:55:20Z</time>
      </trkpt>
      <trkpt lat="49.12014" lon="7.00215">
        <ele>298.1461182</ele>
        <time>2009-04-15T14:55:29Z</time>
      </trkpt>
      <trkpt lat="49.12014" lon="7.00201">
        <ele>298.1461182</ele>
        <time>2009-04-15T14:55:38Z</time>
      </trkpt>
      <trkpt lat="49.12013" lon="7.00186">
        <ele>298.1461182</ele>
        <time>2009-04-15T14:55:47Z</time>
      </trkpt>
      <trkpt lat="49.12014" lon="7.00172">
        <ele>298.626709</ele>
        <time>2009-04-15T14:55:56Z</time>
      </trkpt>
      <trkpt lat="49.12016" lon="7.00158">
        <ele>299.5880127</ele>
        <time>2009-04-15T14:56:04Z</time>
      </trkpt>
      <trkpt lat="49.12018" lon="7.00142">
        <ele>301.0299072</ele>
        <time>2009-04-15T14:56:13Z</time>
      </trkpt>
      <trkpt lat="49.12021" lon="7.00128">
        <ele>301.5106201</ele>
        <time>2009-04-15T14:56:21Z</time>
      </trkpt>
      <trkpt lat="49.12025" lon="7.00115">
        <ele>301.5106201</ele>
        <time>2009-04-15T14:56:29Z</time>
      </trkpt>
      <trkpt lat="49.12031" lon="7.00101">
        <ele>302.4719238</ele>
        <time>2009-04-15T14:56:37Z</time>
      </trkpt>
      <trkpt lat="49.12035" lon="7.00088">
        <ele>303.4332275</ele>
        <time>2009-04-15T14:56:44Z</time>
      </trkpt>
      <trkpt lat="49.12038" lon="7.00075">
        <ele>303.9139404</ele>
        <time>2009-04-15T14:56:52Z</time>
      </trkpt>
      <trkpt lat="49.12041" lon="7.00061">
        <ele>303.9139404</ele>
        <time>2009-04-15T14:57:00Z</time>
      </trkpt>
      <trkpt lat="49.12046" lon="7.00047">
        <ele>303.9139404</ele>
        <time>2009-04-15T14:57:08Z</time>
      </trkpt>
      <trkpt lat="49.12049" lon="7.00033">
        <ele>304.3946533</ele>
        <time>2009-04-15T14:57:16Z</time>
      </trkpt>
      <trkpt lat="49.12052" lon="7.00021">
        <ele>303.9139404</ele>
        <time>2009-04-15T14:57:24Z</time>
      </trkpt>
      <trkpt lat="49.12055" lon="7.00006">
        <ele>304.3946533</ele>
        <time>2009-04-15T14:57:32Z</time>
      </trkpt>
      <trkpt lat="49.12058" lon="6.99992">
        <ele>303.9139404</ele>
        <time>2009-04-15T14:57:40Z</time>
      </trkpt>
      <trkpt lat="49.12061" lon="6.99977">
        <ele>303.9139404</ele>
        <time>2009-04-15T14:57:48Z</time>
      </trkpt>
      <trkpt lat="49.12064" lon="6.99964">
        <ele>303.9139404</ele>
        <time>2009-04-15T14:57:56Z</time>
      </trkpt>
      <trkpt lat="49.12067" lon="6.99951">
        <ele>304.8752441</ele>
        <time>2009-04-15T14:58:04Z</time>
      </trkpt>
      <trkpt lat="49.12069" lon="6.99938">
        <ele>304.8752441</ele>
        <time>2009-04-15T14:58:12Z</time>
      </trkpt>
      <trkpt lat="49.12072" lon="6.99923">
        <ele>305.355957</ele>
        <time>2009-04-15T14:58:21Z</time>
      </trkpt>
      <trkpt lat="49.12071" lon="6.9991">
        <ele>305.355957</ele>
        <time>2009-04-15T14:58:29Z</time>
      </trkpt>
      <trkpt lat="49.12073" lon="6.99895">
        <ele>305.355957</ele>
        <time>2009-04-15T14:58:37Z</time>
      </trkpt>
      <trkpt lat="49.12076" lon="6.99882">
        <ele>306.3172607</ele>
        <time>2009-04-15T14:58:45Z</time>
      </trkpt>
      <trkpt lat="49.12077" lon="6.99868">
        <ele>307.7592773</ele>
        <time>2009-04-15T14:58:53Z</time>
      </trkpt>
      <trkpt lat="49.12081" lon="6.99857">
        <ele>307.7592773</ele>
        <time>2009-04-15T14:59:01Z</time>
      </trkpt>
      <trkpt lat="49.12084" lon="6.99845">
        <ele>308.2398682</ele>
        <time>2009-04-15T14:59:09Z</time>
      </trkpt>
      <trkpt lat="49.12086" lon="6.9983">
        <ele>307.7592773</ele>
        <time>2009-04-15T14:59:18Z</time>
      </trkpt>
      <trkpt lat="49.12088" lon="6.99817">
        <ele>308.2398682</ele>
        <time>2009-04-15T14:59:27Z</time>
      </trkpt>
      <trkpt lat="49.12091" lon="6.99804">
        <ele>309.2011719</ele>
        <time>2009-04-15T14:59:35Z</time>
      </trkpt>
      <trkpt lat="49.12093" lon="6.99788">
        <ele>310.1624756</ele>
        <time>2009-04-15T14:59:43Z</time>
      </trkpt>
      <trkpt lat="49.12095" lon="6.99774">
        <ele>310.1624756</ele>
        <time>2009-04-15T14:59:51Z</time>
      </trkpt>
      <trkpt lat="49.12097" lon="6.9976">
        <ele>310.1624756</ele>
        <time>2009-04-15T14:59:59Z</time>
      </trkpt>
      <trkpt lat="49.12099" lon="6.99747">
        <ele>310.1624756</ele>
        <time>2009-04-15T15:00:07Z</time>
      </trkpt>
      <trkpt lat="49.12101" lon="6.99734">
        <ele>310.6430664</ele>
        <time>2009-04-15T15:00:15Z</time>
      </trkpt>
      <trkpt lat="49.12105" lon="6.99722">
        <ele>310.6430664</ele>
        <time>2009-04-15T15:00:22Z</time>
      </trkpt>
      <trkpt lat="49.12107" lon="6.99709">
        <ele>310.6430664</ele>
        <time>2009-04-15T15:00:30Z</time>
      </trkpt>
      <trkpt lat="49.12108" lon="6.99694">
        <ele>310.6430664</ele>
        <time>2009-04-15T15:00:37Z</time>
      </trkpt>
      <trkpt lat="49.12109" lon="6.99681">
        <ele>311.1237793</ele>
        <time>2009-04-15T15:00:45Z</time>
      </trkpt>
      <trkpt lat="49.12111" lon="6.99668">
        <ele>312.0852051</ele>
        <time>2009-04-15T15:00:55Z</time>
      </trkpt>
      <trkpt lat="49.12113" lon="6.99654">
        <ele>312.0852051</ele>
        <time>2009-04-15T15:01:04Z</time>
      </trkpt>
      <trkpt lat="49.12115" lon="6.99641">
        <ele>312.5657959</ele>
        <time>2009-04-15T15:01:12Z</time>
      </trkpt>
      <trkpt lat="49.1212" lon="6.99629">
        <ele>312.5657959</ele>
        <time>2009-04-15T15:01:20Z</time>
      </trkpt>
      <trkpt lat="49.12124" lon="6.99616">
        <ele>313.5272217</ele>
        <time>2009-04-15T15:01:28Z</time>
      </trkpt>
      <trkpt lat="49.12122" lon="6.99603">
        <ele>312.5657959</ele>
        <time>2009-04-15T15:01:36Z</time>
      </trkpt>
      <trkpt lat="49.12119" lon="6.99591">
        <ele>312.5657959</ele>
        <time>2009-04-15T15:01:45Z</time>
      </trkpt>
      <trkpt lat="49.1212" lon="6.99576">
        <ele>312.5657959</ele>
        <time>2009-04-15T15:01:54Z</time>
      </trkpt>
      <trkpt lat="49.1212" lon="6.99563">
        <ele>313.0465088</ele>
        <time>2009-04-15T15:02:02Z</time>
      </trkpt>
      <trkpt lat="49.12121" lon="6.99549">
        <ele>314.0078125</ele>
        <time>2009-04-15T15:02:10Z</time>
      </trkpt>
      <trkpt lat="49.12121" lon="6.99535">
        <ele>314.0078125</ele>
        <time>2009-04-15T15:02:18Z</time>
      </trkpt>
      <trkpt lat="49.12122" lon="6.9952">
        <ele>315.4498291</ele>
        <time>2009-04-15T15:02:27Z</time>
      </trkpt>
      <trkpt lat="49.12123" lon="6.99508">
        <ele>315.4498291</ele>
        <time>2009-04-15T15:02:35Z</time>
      </trkpt>
      <trkpt lat="49.12123" lon="6.99495">
        <ele>314.9691162</ele>
        <time>2009-04-15T15:02:43Z</time>
      </trkpt>
      <trkpt lat="49.12124" lon="6.9948">
        <ele>314.9691162</ele>
        <time>2009-04-15T15:02:52Z</time>
      </trkpt>
      <trkpt lat="49.12125" lon="6.99467">
        <ele>314.4884033</ele>
        <time>2009-04-15T15:03:01Z</time>
      </trkpt>
      <trkpt lat="49.12126" lon="6.99454">
        <ele>314.4884033</ele>
        <time>2009-04-15T15:03:09Z</time>
      </trkpt>
      <trkpt lat="49.12128" lon="6.99437">
        <ele>314.9691162</ele>
        <time>2009-04-15T15:03:18Z</time>
      </trkpt>
      <trkpt lat="49.1213" lon="6.99423">
        <ele>314.4884033</ele>
        <time>2009-04-15T15:03:26Z</time>
      </trkpt>
      <trkpt lat="49.1213" lon="6.99408">
        <ele>314.9691162</ele>
        <time>2009-04-15T15:03:35Z</time>
      </trkpt>
      <trkpt lat="49.12131" lon="6.99392">
        <ele>315.4498291</ele>
        <time>2009-04-15T15:03:44Z</time>
      </trkpt>
      <trkpt lat="49.12131" lon="6.99378">
        <ele>315.4498291</ele>
        <time>2009-04-15T15:03:52Z</time>
      </trkpt>
      <trkpt lat="49.12132" lon="6.99364">
        <ele>315.9304199</ele>
        <time>2009-04-15T15:04:01Z</time>
      </trkpt>
      <trkpt lat="49.12132" lon="6.9935">
        <ele>315.9304199</ele>
        <time>2009-04-15T15:04:09Z</time>
      </trkpt>
      <trkpt lat="49.12134" lon="6.99336">
        <ele>316.4110107</ele>
        <time>2009-04-15T15:04:17Z</time>
      </trkpt>
      <trkpt lat="49.12136" lon="6.99323">
        <ele>315.9304199</ele>
        <time>2009-04-15T15:04:26Z</time>
      </trkpt>
      <trkpt lat="49.12136" lon="6.99309">
        <ele>315.9304199</ele>
        <time>2009-04-15T15:04:38Z</time>
      </trkpt>
      <trkpt lat="49.12135" lon="6.99292">
        <ele>315.9304199</ele>
        <time>2009-04-15T15:04:47Z</time>
      </trkpt>
      <trkpt lat="49.12136" lon="6.99278">
        <ele>316.4110107</ele>
        <time>2009-04-15T15:04:55Z</time>
      </trkpt>
      <trkpt lat="49.12137" lon="6.99263">
        <ele>316.8917236</ele>
        <time>2009-04-15T15:05:04Z</time>
      </trkpt>
      <trkpt lat="49.12137" lon="6.99247">
        <ele>316.8917236</ele>
        <time>2009-04-15T15:05:13Z</time>
      </trkpt>
      <trkpt lat="49.12137" lon="6.99232">
        <ele>316.4110107</ele>
        <time>2009-04-15T15:05:22Z</time>
      </trkpt>
      <trkpt lat="49.12137" lon="6.99216">
        <ele>316.8917236</ele>
        <time>2009-04-15T15:05:31Z</time>
      </trkpt>
      <trkpt lat="49.12136" lon="6.992">
        <ele>316.8917236</ele>
        <time>2009-04-15T15:05:40Z</time>
      </trkpt>
      <trkpt lat="49.12137" lon="6.99184">
        <ele>316.8917236</ele>
        <time>2009-04-15T15:05:49Z</time>
      </trkpt>
      <trkpt lat="49.12137" lon="6.99169">
        <ele>317.3724365</ele>
        <time>2009-04-15T15:05:58Z</time>
      </trkpt>
      <trkpt lat="49.12137" lon="6.99153">
        <ele>316.4110107</ele>
        <time>2009-04-15T15:06:06Z</time>
      </trkpt>
      <trkpt lat="49.12138" lon="6.9914">
        <ele>316.8917236</ele>
        <time>2009-04-15T15:06:17Z</time>
      </trkpt>
      <trkpt lat="49.12139" lon="6.99127">
        <ele>316.8917236</ele>
        <time>2009-04-15T15:06:26Z</time>
      </trkpt>
      <trkpt lat="49.1214" lon="6.99115">
        <ele>317.3724365</ele>
        <time>2009-04-15T15:06:35Z</time>
      </trkpt>
      <trkpt lat="49.12142" lon="6.991">
        <ele>317.8530273</ele>
        <time>2009-04-15T15:06:44Z</time>
      </trkpt>
      <trkpt lat="49.12143" lon="6.99085">
        <ele>317.8530273</ele>
        <time>2009-04-15T15:06:52Z</time>
      </trkpt>
      <trkpt lat="49.12145" lon="6.99071">
        <ele>317.3724365</ele>
        <time>2009-04-15T15:07:00Z</time>
      </trkpt>
      <trkpt lat="49.12147" lon="6.99056">
        <ele>317.3724365</ele>
        <time>2009-04-15T15:07:09Z</time>
      </trkpt>
      <trkpt lat="49.12148" lon="6.99042">
        <ele>317.3724365</ele>
        <time>2009-04-15T15:07:17Z</time>
      </trkpt>
      <trkpt lat="49.12149" lon="6.99028">
        <ele>318.3336182</ele>
        <time>2009-04-15T15:07:25Z</time>
      </trkpt>
      <trkpt lat="49.1215" lon="6.99014">
        <ele>317.8530273</ele>
        <time>2009-04-15T15:07:33Z</time>
      </trkpt>
      <trkpt lat="49.12153" lon="6.99">
        <ele>318.3336182</ele>
        <time>2009-04-15T15:07:42Z</time>
      </trkpt>
      <trkpt lat="49.12154" lon="6.98985">
        <ele>318.8143311</ele>
        <time>2009-04-15T15:07:50Z</time>
      </trkpt>
      <trkpt lat="49.12154" lon="6.9897">
        <ele>318.8143311</ele>
        <time>2009-04-15T15:07:59Z</time>
      </trkpt>
      <trkpt lat="49.12155" lon="6.98957">
        <ele>319.7756348</ele>
        <time>2009-04-15T15:08:08Z</time>
      </trkpt>
      <trkpt lat="49.12155" lon="6.98943">
        <ele>320.7370605</ele>
        <time>2009-04-15T15:08:16Z</time>
      </trkpt>
      <trkpt lat="49.12154" lon="6.98928">
        <ele>320.7370605</ele>
        <time>2009-04-15T15:08:24Z</time>
      </trkpt>
      <trkpt lat="49.12157" lon="6.98915">
        <ele>321.2177734</ele>
        <time>2009-04-15T15:08:32Z</time>
      </trkpt>
      <trkpt lat="49.12159" lon="6.98901">
        <ele>321.6983643</ele>
        <time>2009-04-15T15:08:47Z</time>
      </trkpt>
      <trkpt lat="49.1216" lon="6.98886">
        <ele>322.1789551</ele>
        <time>2009-04-15T15:08:56Z</time>
      </trkpt>
      <trkpt lat="49.12162" lon="6.98873">
        <ele>322.1789551</ele>
        <time>2009-04-15T15:09:04Z</time>
      </trkpt>
      <trkpt lat="49.12165" lon="6.98858">
        <ele>322.659668</ele>
        <time>2009-04-15T15:09:12Z</time>
      </trkpt>
      <trkpt lat="49.12169" lon="6.98845">
        <ele>323.1403809</ele>
        <time>2009-04-15T15:09:21Z</time>
      </trkpt>
      <trkpt lat="49.12171" lon="6.98831">
        <ele>323.1403809</ele>
        <time>2009-04-15T15:09:29Z</time>
      </trkpt>
      <trkpt lat="49.12174" lon="6.98817">
        <ele>323.1403809</ele>
        <time>2009-04-15T15:09:38Z</time>
      </trkpt>
      <trkpt lat="49.12176" lon="6.98803">
        <ele>323.6209717</ele>
        <time>2009-04-15T15:09:46Z</time>
      </trkpt>
      <trkpt lat="49.12178" lon="6.98789">
        <ele>323.6209717</ele>
        <time>2009-04-15T15:09:54Z</time>
      </trkpt>
      <trkpt lat="49.1218" lon="6.98774">
        <ele>324.1015625</ele>
        <time>2009-04-15T15:10:03Z</time>
      </trkpt>
      <trkpt lat="49.12183" lon="6.98761">
        <ele>324.1015625</ele>
        <time>2009-04-15T15:10:11Z</time>
      </trkpt>
      <trkpt lat="49.12185" lon="6.98748">
        <ele>324.1015625</ele>
        <time>2009-04-15T15:10:20Z</time>
      </trkpt>
      <trkpt lat="49.12189" lon="6.98736">
        <ele>324.1015625</ele>
        <time>2009-04-15T15:10:29Z</time>
      </trkpt>
      <trkpt lat="49.12197" lon="6.98735">
        <ele>323.1403809</ele>
        <time>2009-04-15T15:11:59Z</time>
      </trkpt>
      <trkpt lat="49.12199" lon="6.9872">
        <ele>323.6209717</ele>
        <time>2009-04-15T15:12:13Z</time>
      </trkpt>
      <trkpt lat="49.12202" lon="6.98705">
        <ele>323.6209717</ele>
        <time>2009-04-15T15:12:21Z</time>
      </trkpt>
      <trkpt lat="49.12207" lon="6.98692">
        <ele>323.1403809</ele>
        <time>2009-04-15T15:12:30Z</time>
      </trkpt>
      <trkpt lat="49.12213" lon="6.9868">
        <ele>323.1403809</ele>
        <time>2009-04-15T15:12:38Z</time>
      </trkpt>
      <trkpt lat="49.12218" lon="6.98666">
        <ele>323.1403809</ele>
        <time>2009-04-15T15:12:46Z</time>
      </trkpt>
      <trkpt lat="49.12223" lon="6.98652">
        <ele>323.1403809</ele>
        <time>2009-04-15T15:12:54Z</time>
      </trkpt>
      <trkpt lat="49.12228" lon="6.9864">
        <ele>322.659668</ele>
        <time>2009-04-15T15:13:02Z</time>
      </trkpt>
      <trkpt lat="49.12234" lon="6.98627">
        <ele>323.1403809</ele>
        <time>2009-04-15T15:13:10Z</time>
      </trkpt>
      <trkpt lat="49.12239" lon="6.98616">
        <ele>322.659668</ele>
        <time>2009-04-15T15:13:17Z</time>
      </trkpt>
      <trkpt lat="49.12245" lon="6.98603">
        <ele>323.1403809</ele>
        <time>2009-04-15T15:13:25Z</time>
      </trkpt>
      <trkpt lat="49.1225" lon="6.9859">
        <ele>323.1403809</ele>
        <time>2009-04-15T15:13:33Z</time>
      </trkpt>
      <trkpt lat="49.12255" lon="6.98576">
        <ele>323.1403809</ele>
        <time>2009-04-15T15:13:40Z</time>
      </trkpt>
      <trkpt lat="49.1226" lon="6.98564">
        <ele>322.659668</ele>
        <time>2009-04-15T15:13:48Z</time>
      </trkpt>
      <trkpt lat="49.12265" lon="6.98549">
        <ele>323.6209717</ele>
        <time>2009-04-15T15:13:56Z</time>
      </trkpt>
      <trkpt lat="49.1227" lon="6.98537">
        <ele>324.1015625</ele>
        <time>2009-04-15T15:14:04Z</time>
      </trkpt>
      <trkpt lat="49.12275" lon="6.98524">
        <ele>324.1015625</ele>
        <time>2009-04-15T15:14:12Z</time>
      </trkpt>
      <trkpt lat="49.1228" lon="6.98513">
        <ele>324.1015625</ele>
        <time>2009-04-15T15:14:20Z</time>
      </trkpt>
      <trkpt lat="49.12286" lon="6.985">
        <ele>324.5822754</ele>
        <time>2009-04-15T15:14:28Z</time>
      </trkpt>
      <trkpt lat="49.12292" lon="6.98488">
        <ele>324.5822754</ele>
        <time>2009-04-15T15:14:36Z</time>
      </trkpt>
      <trkpt lat="49.12297" lon="6.98476">
        <ele>325.0629883</ele>
        <time>2009-04-15T15:14:44Z</time>
      </trkpt>
      <trkpt lat="49.12301" lon="6.98463">
        <ele>324.5822754</ele>
        <time>2009-04-15T15:14:52Z</time>
      </trkpt>
      <trkpt lat="49.12303" lon="6.98449">
        <ele>324.1015625</ele>
        <time>2009-04-15T15:15:08Z</time>
      </trkpt>
      <trkpt lat="49.12307" lon="6.98439">
        <ele>324.1015625</ele>
        <time>2009-04-15T15:15:35Z</time>
      </trkpt>
      <trkpt lat="49.1231" lon="6.98424">
        <ele>323.1403809</ele>
        <time>2009-04-15T15:15:45Z</time>
      </trkpt>
      <trkpt lat="49.12312" lon="6.9841">
        <ele>323.6209717</ele>
        <time>2009-04-15T15:15:53Z</time>
      </trkpt>
      <trkpt lat="49.12316" lon="6.98397">
        <ele>323.1403809</ele>
        <time>2009-04-15T15:16:01Z</time>
      </trkpt>
      <trkpt lat="49.1232" lon="6.98382">
        <ele>322.659668</ele>
        <time>2009-04-15T15:16:09Z</time>
      </trkpt>
      <trkpt lat="49.12323" lon="6.98368">
        <ele>322.659668</ele>
        <time>2009-04-15T15:16:17Z</time>
      </trkpt>
      <trkpt lat="49.12326" lon="6.98353">
        <ele>322.1789551</ele>
        <time>2009-04-15T15:16:25Z</time>
      </trkpt>
      <trkpt lat="49.12329" lon="6.98333">
        <ele>321.2177734</ele>
        <time>2009-04-15T15:16:33Z</time>
      </trkpt>
      <trkpt lat="49.12331" lon="6.9832">
        <ele>320.7370605</ele>
        <time>2009-04-15T15:16:40Z</time>
      </trkpt>
      <trkpt lat="49.12333" lon="6.98306">
        <ele>321.2177734</ele>
        <time>2009-04-15T15:16:48Z</time>
      </trkpt>
      <trkpt lat="49.12334" lon="6.98293">
        <ele>320.2563477</ele>
        <time>2009-04-15T15:16:55Z</time>
      </trkpt>
      <trkpt lat="49.12337" lon="6.98279">
        <ele>320.7370605</ele>
        <time>2009-04-15T15:17:04Z</time>
      </trkpt>
      <trkpt lat="49.12339" lon="6.98265">
        <ele>319.7756348</ele>
        <time>2009-04-15T15:17:12Z</time>
      </trkpt>
      <trkpt lat="49.1234" lon="6.98251">
        <ele>319.7756348</ele>
        <time>2009-04-15T15:17:20Z</time>
      </trkpt>
      <trkpt lat="49.12342" lon="6.98237">
        <ele>319.7756348</ele>
        <time>2009-04-15T15:17:28Z</time>
      </trkpt>
      <trkpt lat="49.12344" lon="6.98222">
        <ele>319.2950439</ele>
        <time>2009-04-15T15:17:36Z</time>
      </trkpt>
      <trkpt lat="49.12344" lon="6.98208">
        <ele>318.8143311</ele>
        <time>2009-04-15T15:17:44Z</time>
      </trkpt>
      <trkpt lat="49.12346" lon="6.98194">
        <ele>318.8143311</ele>
        <time>2009-04-15T15:17:52Z</time>
      </trkpt>
      <trkpt lat="49.12348" lon="6.98179">
        <ele>318.3336182</ele>
        <time>2009-04-15T15:18:00Z</time>
      </trkpt>
      <trkpt lat="49.12348" lon="6.98166">
        <ele>318.3336182</ele>
        <time>2009-04-15T15:18:07Z</time>
      </trkpt>
      <trkpt lat="49.12351" lon="6.98152">
        <ele>317.8530273</ele>
        <time>2009-04-15T15:18:15Z</time>
      </trkpt>
      <trkpt lat="49.12352" lon="6.98137">
        <ele>316.8917236</ele>
        <time>2009-04-15T15:18:23Z</time>
      </trkpt>
      <trkpt lat="49.12354" lon="6.98122">
        <ele>317.3724365</ele>
        <time>2009-04-15T15:18:31Z</time>
      </trkpt>
      <trkpt lat="49.12356" lon="6.98107">
        <ele>316.8917236</ele>
        <time>2009-04-15T15:18:39Z</time>
      </trkpt>
      <trkpt lat="49.12357" lon="6.98091">
        <ele>316.8917236</ele>
        <time>2009-04-15T15:18:47Z</time>
      </trkpt>
      <trkpt lat="49.12359" lon="6.98077">
        <ele>317.3724365</ele>
        <time>2009-04-15T15:18:54Z</time>
      </trkpt>
      <trkpt lat="49.12363" lon="6.98063">
        <ele>316.8917236</ele>
        <time>2009-04-15T15:19:02Z</time>
      </trkpt>
      <trkpt lat="49.12364" lon="6.98048">
        <ele>317.8530273</ele>
        <time>2009-04-15T15:19:09Z</time>
      </trkpt>
      <trkpt lat="49.12365" lon="6.98035">
        <ele>317.3724365</ele>
        <time>2009-04-15T15:19:17Z</time>
      </trkpt>
      <trkpt lat="49.12366" lon="6.98021">
        <ele>317.3724365</ele>
        <time>2009-04-15T15:19:24Z</time>
      </trkpt>
      <trkpt lat="49.12367" lon="6.98008">
        <ele>317.3724365</ele>
        <time>2009-04-15T15:19:31Z</time>
      </trkpt>
      <trkpt lat="49.12368" lon="6.97991">
        <ele>317.3724365</ele>
        <time>2009-04-15T15:19:39Z</time>
      </trkpt>
      <trkpt lat="49.12368" lon="6.97977">
        <ele>320.2563477</ele>
        <time>2009-04-15T15:19:48Z</time>
      </trkpt>
      <trkpt lat="49.1237" lon="6.97964">
        <ele>320.2563477</ele>
        <time>2009-04-15T15:19:57Z</time>
      </trkpt>
      <trkpt lat="49.12372" lon="6.9795">
        <ele>320.7370605</ele>
        <time>2009-04-15T15:20:05Z</time>
      </trkpt>
      <trkpt lat="49.12375" lon="6.97936">
        <ele>322.659668</ele>
        <time>2009-04-15T15:20:13Z</time>
      </trkpt>
      <trkpt lat="49.12378" lon="6.97921">
        <ele>324.1015625</ele>
        <time>2009-04-15T15:20:21Z</time>
      </trkpt>
      <trkpt lat="49.12381" lon="6.97908">
        <ele>325.0629883</ele>
        <time>2009-04-15T15:20:29Z</time>
      </trkpt>
      <trkpt lat="49.12384" lon="6.97893">
        <ele>325.5435791</ele>
        <time>2009-04-15T15:20:37Z</time>
      </trkpt>
      <trkpt lat="49.12387" lon="6.9788">
        <ele>326.0241699</ele>
        <time>2009-04-15T15:20:45Z</time>
      </trkpt>
      <trkpt lat="49.1239" lon="6.97866">
        <ele>326.0241699</ele>
        <time>2009-04-15T15:20:53Z</time>
      </trkpt>
      <trkpt lat="49.12394" lon="6.97852">
        <ele>326.5048828</ele>
        <time>2009-04-15T15:21:01Z</time>
      </trkpt>
      <trkpt lat="49.12397" lon="6.97839">
        <ele>326.0241699</ele>
        <time>2009-04-15T15:21:09Z</time>
      </trkpt>
      <trkpt lat="49.12401" lon="6.97825">
        <ele>327.4661865</ele>
        <time>2009-04-15T15:21:17Z</time>
      </trkpt>
      <trkpt lat="49.12404" lon="6.97812">
        <ele>327.4661865</ele>
        <time>2009-04-15T15:21:25Z</time>
      </trkpt>
      <trkpt lat="49.12406" lon="6.97798">
        <ele>327.9467773</ele>
        <time>2009-04-15T15:21:33Z</time>
      </trkpt>
      <trkpt lat="49.12408" lon="6.97784">
        <ele>327.9467773</ele>
        <time>2009-04-15T15:21:41Z</time>
      </trkpt>
      <trkpt lat="49.1241" lon="6.97768">
        <ele>328.9083252</ele>
        <time>2009-04-15T15:21:49Z</time>
      </trkpt>
      <trkpt lat="49.12411" lon="6.97753">
        <ele>328.9083252</ele>
        <time>2009-04-15T15:21:57Z</time>
      </trkpt>
      <trkpt lat="49.12413" lon="6.97739">
        <ele>329.8695068</ele>
        <time>2009-04-15T15:22:05Z</time>
      </trkpt>
      <trkpt lat="49.12414" lon="6.97725">
        <ele>328.9083252</ele>
        <time>2009-04-15T15:22:13Z</time>
      </trkpt>
      <trkpt lat="49.12415" lon="6.97713">
        <ele>330.3502197</ele>
        <time>2009-04-15T15:22:21Z</time>
      </trkpt>
      <trkpt lat="49.12416" lon="6.97697">
        <ele>329.8695068</ele>
        <time>2009-04-15T15:22:29Z</time>
      </trkpt>
      <trkpt lat="49.12416" lon="6.97683">
        <ele>330.3502197</ele>
        <time>2009-04-15T15:22:36Z</time>
      </trkpt>
      <trkpt lat="49.12417" lon="6.97669">
        <ele>330.3502197</ele>
        <time>2009-04-15T15:22:43Z</time>
      </trkpt>
      <trkpt lat="49.12418" lon="6.97652">
        <ele>329.8695068</ele>
        <time>2009-04-15T15:22:51Z</time>
      </trkpt>
      <trkpt lat="49.12418" lon="6.97637">
        <ele>329.388916</ele>
        <time>2009-04-15T15:22:59Z</time>
      </trkpt>
      <trkpt lat="49.12418" lon="6.97621">
        <ele>329.388916</ele>
        <time>2009-04-15T15:23:07Z</time>
      </trkpt>
      <trkpt lat="49.12419" lon="6.97608">
        <ele>328.9083252</ele>
        <time>2009-04-15T15:23:14Z</time>
      </trkpt>
      <trkpt lat="49.1242" lon="6.97592">
        <ele>328.9083252</ele>
        <time>2009-04-15T15:23:22Z</time>
      </trkpt>
      <trkpt lat="49.12422" lon="6.97578">
        <ele>328.9083252</ele>
        <time>2009-04-15T15:23:29Z</time>
      </trkpt>
      <trkpt lat="49.12425" lon="6.97565">
        <ele>328.9083252</ele>
        <time>2009-04-15T15:23:36Z</time>
      </trkpt>
      <trkpt lat="49.12427" lon="6.9755">
        <ele>328.4276123</ele>
        <time>2009-04-15T15:23:43Z</time>
      </trkpt>
      <trkpt lat="49.12429" lon="6.97534">
        <ele>328.4276123</ele>
        <time>2009-04-15T15:23:50Z</time>
      </trkpt>
      <trkpt lat="49.12431" lon="6.9752">
        <ele>327.9467773</ele>
        <time>2009-04-15T15:23:57Z</time>
      </trkpt>
      <trkpt lat="49.12432" lon="6.97506">
        <ele>327.9467773</ele>
        <time>2009-04-15T15:24:04Z</time>
      </trkpt>
      <trkpt lat="49.12434" lon="6.97492">
        <ele>327.9467773</ele>
        <time>2009-04-15T15:24:11Z</time>
      </trkpt>
      <trkpt lat="49.12435" lon="6.97478">
        <ele>327.4661865</ele>
        <time>2009-04-15T15:24:18Z</time>
      </trkpt>
      <trkpt lat="49.12436" lon="6.97463">
        <ele>326.5048828</ele>
        <time>2009-04-15T15:24:25Z</time>
      </trkpt>
      <trkpt lat="49.12436" lon="6.97448">
        <ele>326.0241699</ele>
        <time>2009-04-15T15:24:33Z</time>
      </trkpt>
      <trkpt lat="49.12435" lon="6.97434">
        <ele>326.5048828</ele>
        <time>2009-04-15T15:24:40Z</time>
      </trkpt>
      <trkpt lat="49.12434" lon="6.9742">
        <ele>326.5048828</ele>
        <time>2009-04-15T15:24:47Z</time>
      </trkpt>
      <trkpt lat="49.12433" lon="6.97405">
        <ele>326.0241699</ele>
        <time>2009-04-15T15:24:54Z</time>
      </trkpt>
      <trkpt lat="49.12432" lon="6.97391">
        <ele>326.5048828</ele>
        <time>2009-04-15T15:25:01Z</time>
      </trkpt>
      <trkpt lat="49.12431" lon="6.97377">
        <ele>326.0241699</ele>
        <time>2009-04-15T15:25:09Z</time>
      </trkpt>
      <trkpt lat="49.1243" lon="6.97363">
        <ele>325.5435791</ele>
        <time>2009-04-15T15:25:16Z</time>
      </trkpt>
      <trkpt lat="49.12429" lon="6.9735">
        <ele>326.0241699</ele>
        <time>2009-04-15T15:25:23Z</time>
      </trkpt>
      <trkpt lat="49.12429" lon="6.97335">
        <ele>325.0629883</ele>
        <time>2009-04-15T15:25:31Z</time>
      </trkpt>
      <trkpt lat="49.12429" lon="6.97321">
        <ele>325.0629883</ele>
        <time>2009-04-15T15:25:39Z</time>
      </trkpt>
      <trkpt lat="49.12428" lon="6.97307">
        <ele>325.5435791</ele>
        <time>2009-04-15T15:25:47Z</time>
      </trkpt>
      <trkpt lat="49.12427" lon="6.97293">
        <ele>325.5435791</ele>
        <time>2009-04-15T15:25:54Z</time>
      </trkpt>
      <trkpt lat="49.12425" lon="6.97278">
        <ele>325.0629883</ele>
        <time>2009-04-15T15:26:02Z</time>
      </trkpt>
      <trkpt lat="49.12423" lon="6.97264">
        <ele>325.5435791</ele>
        <time>2009-04-15T15:26:10Z</time>
      </trkpt>
      <trkpt lat="49.12422" lon="6.97249">
        <ele>325.0629883</ele>
        <time>2009-04-15T15:26:18Z</time>
      </trkpt>
      <trkpt lat="49.12421" lon="6.97234">
        <ele>325.0629883</ele>
        <time>2009-04-15T15:26:26Z</time>
      </trkpt>
      <trkpt lat="49.1242" lon="6.9722">
        <ele>325.0629883</ele>
        <time>2009-04-15T15:26:33Z</time>
      </trkpt>
      <trkpt lat="49.12418" lon="6.97205">
        <ele>325.5435791</ele>
        <time>2009-04-15T15:26:41Z</time>
      </trkpt>
      <trkpt lat="49.12415" lon="6.97191">
        <ele>325.0629883</ele>
        <time>2009-04-15T15:26:49Z</time>
      </trkpt>
      <trkpt lat="49.12413" lon="6.97179">
        <ele>324.5822754</ele>
        <time>2009-04-15T15:26:56Z</time>
      </trkpt>
      <trkpt lat="49.1241" lon="6.97165">
        <ele>325.0629883</ele>
        <time>2009-04-15T15:27:04Z</time>
      </trkpt>
      <trkpt lat="49.12405" lon="6.97154">
        <ele>324.5822754</ele>
        <time>2009-04-15T15:27:15Z</time>
      </trkpt>
      <trkpt lat="49.12401" lon="6.97156">
        <ele>325.0629883</ele>
        <time>2009-04-15T15:28:15Z</time>
      </trkpt>
      <trkpt lat="49.12393" lon="6.97155">
        <ele>325.5435791</ele>
        <time>2009-04-15T15:28:31Z</time>
      </trkpt>
      <trkpt lat="49.12384" lon="6.9715">
        <ele>325.0629883</ele>
        <time>2009-04-15T15:28:40Z</time>
      </trkpt>
      <trkpt lat="49.12375" lon="6.97148">
        <ele>325.0629883</ele>
        <time>2009-04-15T15:28:47Z</time>
      </trkpt>
      <trkpt lat="49.12366" lon="6.97144">
        <ele>325.0629883</ele>
        <time>2009-04-15T15:28:55Z</time>
      </trkpt>
      <trkpt lat="49.12356" lon="6.97142">
        <ele>325.0629883</ele>
        <time>2009-04-15T15:29:04Z</time>
      </trkpt>
      <trkpt lat="49.12347" lon="6.97138">
        <ele>323.1403809</ele>
        <time>2009-04-15T15:29:13Z</time>
      </trkpt>
      <trkpt lat="49.12337" lon="6.97135">
        <ele>322.1789551</ele>
        <time>2009-04-15T15:29:22Z</time>
      </trkpt>
      <trkpt lat="49.12328" lon="6.9713">
        <ele>321.6983643</ele>
        <time>2009-04-15T15:29:30Z</time>
      </trkpt>
      <trkpt lat="49.12319" lon="6.97125">
        <ele>321.2177734</ele>
        <time>2009-04-15T15:29:38Z</time>
      </trkpt>
      <trkpt lat="49.1231" lon="6.97122">
        <ele>320.7370605</ele>
        <time>2009-04-15T15:29:45Z</time>
      </trkpt>
      <trkpt lat="49.123" lon="6.97117">
        <ele>320.2563477</ele>
        <time>2009-04-15T15:29:53Z</time>
      </trkpt>
      <trkpt lat="49.1229" lon="6.97115">
        <ele>319.2950439</ele>
        <time>2009-04-15T15:30:01Z</time>
      </trkpt>
      <trkpt lat="49.1228" lon="6.97112">
        <ele>317.3724365</ele>
        <time>2009-04-15T15:30:08Z</time>
      </trkpt>
      <trkpt lat="49.1227" lon="6.97108">
        <ele>317.3724365</ele>
        <time>2009-04-15T15:30:16Z</time>
      </trkpt>
      <trkpt lat="49.12259" lon="6.97103">
        <ele>317.8530273</ele>
        <time>2009-04-15T15:30:24Z</time>
      </trkpt>
      <trkpt lat="49.1225" lon="6.97098">
        <ele>316.4110107</ele>
        <time>2009-04-15T15:30:33Z</time>
      </trkpt>
      <trkpt lat="49.12241" lon="6.97093">
        <ele>314.9691162</ele>
        <time>2009-04-15T15:30:40Z</time>
      </trkpt>
      <trkpt lat="49.12232" lon="6.97089">
        <ele>315.4498291</ele>
        <time>2009-04-15T15:30:49Z</time>
      </trkpt>
      <trkpt lat="49.12222" lon="6.97084">
        <ele>313.5272217</ele>
        <time>2009-04-15T15:30:57Z</time>
      </trkpt>
      <trkpt lat="49.12214" lon="6.97079">
        <ele>312.0852051</ele>
        <time>2009-04-15T15:31:05Z</time>
      </trkpt>
      <trkpt lat="49.12205" lon="6.97072">
        <ele>311.6044922</ele>
        <time>2009-04-15T15:31:13Z</time>
      </trkpt>
      <trkpt lat="49.12195" lon="6.97067">
        <ele>312.0852051</ele>
        <time>2009-04-15T15:31:21Z</time>
      </trkpt>
      <trkpt lat="49.12186" lon="6.97061">
        <ele>312.5657959</ele>
        <time>2009-04-15T15:31:29Z</time>
      </trkpt>
      <trkpt lat="49.12177" lon="6.97056">
        <ele>312.0852051</ele>
        <time>2009-04-15T15:31:36Z</time>
      </trkpt>
      <trkpt lat="49.12168" lon="6.97051">
        <ele>312.0852051</ele>
        <time>2009-04-15T15:31:43Z</time>
      </trkpt>
      <trkpt lat="49.1216" lon="6.97045">
        <ele>311.1237793</ele>
        <time>2009-04-15T15:31:50Z</time>
      </trkpt>
      <trkpt lat="49.12152" lon="6.97039">
        <ele>311.6044922</ele>
        <time>2009-04-15T15:31:57Z</time>
      </trkpt>
      <trkpt lat="49.12143" lon="6.97033">
        <ele>311.1237793</ele>
        <time>2009-04-15T15:32:05Z</time>
      </trkpt>
      <trkpt lat="49.12134" lon="6.97028">
        <ele>310.1624756</ele>
        <time>2009-04-15T15:32:13Z</time>
      </trkpt>
      <trkpt lat="49.12125" lon="6.97025">
        <ele>310.6430664</ele>
        <time>2009-04-15T15:32:20Z</time>
      </trkpt>
      <trkpt lat="49.12114" lon="6.97022">
        <ele>309.6818848</ele>
        <time>2009-04-15T15:32:28Z</time>
      </trkpt>
      <trkpt lat="49.12105" lon="6.97021">
        <ele>309.6818848</ele>
        <time>2009-04-15T15:32:35Z</time>
      </trkpt>
      <trkpt lat="49.12095" lon="6.97018">
        <ele>309.2011719</ele>
        <time>2009-04-15T15:32:42Z</time>
      </trkpt>
      <trkpt lat="49.12086" lon="6.97018">
        <ele>308.720459</ele>
        <time>2009-04-15T15:32:49Z</time>
      </trkpt>
      <trkpt lat="49.12076" lon="6.9702">
        <ele>308.2398682</ele>
        <time>2009-04-15T15:32:56Z</time>
      </trkpt>
      <trkpt lat="49.12067" lon="6.97023">
        <ele>307.7592773</ele>
        <time>2009-04-15T15:33:03Z</time>
      </trkpt>
      <trkpt lat="49.12073" lon="6.9702">
        <ele>307.7592773</ele>
        <time>2009-04-15T15:33:15Z</time>
      </trkpt>
      <trkpt lat="49.12072" lon="6.97024">
        <ele>307.7592773</ele>
        <time>2009-04-15T15:33:29Z</time>
      </trkpt>
      <trkpt lat="49.12064" lon="6.97032">
        <ele>307.7592773</ele>
        <time>2009-04-15T15:33:36Z</time>
      </trkpt>
      <trkpt lat="49.12057" lon="6.97044">
        <ele>306.3172607</ele>
        <time>2009-04-15T15:33:43Z</time>
      </trkpt>
      <trkpt lat="49.12049" lon="6.97055">
        <ele>305.8366699</ele>
        <time>2009-04-15T15:33:51Z</time>
      </trkpt>
      <trkpt lat="49.12041" lon="6.9706">
        <ele>304.8752441</ele>
        <time>2009-04-15T15:34:05Z</time>
      </trkpt>
      <trkpt lat="49.12034" lon="6.97067">
        <ele>303.4332275</ele>
        <time>2009-04-15T15:34:15Z</time>
      </trkpt>
      <trkpt lat="49.12026" lon="6.97077">
        <ele>302.9525146</ele>
        <time>2009-04-15T15:34:24Z</time>
      </trkpt>
      <trkpt lat="49.12019" lon="6.97085">
        <ele>301.991333</ele>
        <time>2009-04-15T15:34:34Z</time>
      </trkpt>
      <trkpt lat="49.12012" lon="6.97096">
        <ele>301.0299072</ele>
        <time>2009-04-15T15:34:41Z</time>
      </trkpt>
      <trkpt lat="49.12005" lon="6.97108">
        <ele>301.0299072</ele>
        <time>2009-04-15T15:34:48Z</time>
      </trkpt>
      <trkpt lat="49.11997" lon="6.9712">
        <ele>300.0687256</ele>
        <time>2009-04-15T15:34:56Z</time>
      </trkpt>
      <trkpt lat="49.11988" lon="6.97132">
        <ele>300.5493164</ele>
        <time>2009-04-15T15:35:04Z</time>
      </trkpt>
      <trkpt lat="49.11978" lon="6.97138">
        <ele>301.0299072</ele>
        <time>2009-04-15T15:35:14Z</time>
      </trkpt>
      <trkpt lat="49.1197" lon="6.9715">
        <ele>301.0299072</ele>
        <time>2009-04-15T15:35:25Z</time>
      </trkpt>
      <trkpt lat="49.11961" lon="6.9716">
        <ele>301.991333</ele>
        <time>2009-04-15T15:35:36Z</time>
      </trkpt>
      <trkpt lat="49.11953" lon="6.97169">
        <ele>301.991333</ele>
        <time>2009-04-15T15:35:47Z</time>
      </trkpt>
      <trkpt lat="49.11944" lon="6.97165">
        <ele>301.0299072</ele>
        <time>2009-04-15T15:35:57Z</time>
      </trkpt>
      <trkpt lat="49.11935" lon="6.97154">
        <ele>300.5493164</ele>
        <time>2009-04-15T15:36:05Z</time>
      </trkpt>
      <trkpt lat="49.11929" lon="6.97142">
        <ele>299.5880127</ele>
        <time>2009-04-15T15:36:12Z</time>
      </trkpt>
      <trkpt lat="49.11922" lon="6.9713">
        <ele>299.1072998</ele>
        <time>2009-04-15T15:36:19Z</time>
      </trkpt>
      <trkpt lat="49.11916" lon="6.97117">
        <ele>297.1846924</ele>
        <time>2009-04-15T15:36:28Z</time>
      </trkpt>
      <trkpt lat="49.11911" lon="6.97104">
        <ele>296.7041016</ele>
        <time>2009-04-15T15:36:38Z</time>
      </trkpt>
      <trkpt lat="49.11907" lon="6.97089">
        <ele>295.7426758</ele>
        <time>2009-04-15T15:36:49Z</time>
      </trkpt>
      <trkpt lat="49.11902" lon="6.97074">
        <ele>294.7813721</ele>
        <time>2009-04-15T15:36:58Z</time>
      </trkpt>
      <trkpt lat="49.11897" lon="6.97059">
        <ele>294.3007813</ele>
        <time>2009-04-15T15:37:04Z</time>
      </trkpt>
      <trkpt lat="49.11892" lon="6.97042">
        <ele>295.2619629</ele>
        <time>2009-04-15T15:37:11Z</time>
      </trkpt>
      <trkpt lat="49.1189" lon="6.97028">
        <ele>295.2619629</ele>
        <time>2009-04-15T15:37:17Z</time>
      </trkpt>
      <trkpt lat="49.11891" lon="6.97013">
        <ele>295.2619629</ele>
        <time>2009-04-15T15:37:24Z</time>
      </trkpt>
      <trkpt lat="49.11897" lon="6.97001">
        <ele>295.2619629</ele>
        <time>2009-04-15T15:37:33Z</time>
      </trkpt>
      <trkpt lat="49.11896" lon="6.96986">
        <ele>296.2235107</ele>
        <time>2009-04-15T15:37:42Z</time>
      </trkpt>
      <trkpt lat="49.11893" lon="6.9697">
        <ele>296.7041016</ele>
        <time>2009-04-15T15:37:51Z</time>
      </trkpt>
      <trkpt lat="49.11894" lon="6.96953">
        <ele>296.7041016</ele>
        <time>2009-04-15T15:38:01Z</time>
      </trkpt>
      <trkpt lat="49.11897" lon="6.96937">
        <ele>296.2235107</ele>
        <time>2009-04-15T15:38:09Z</time>
      </trkpt>
      <trkpt lat="49.11897" lon="6.96922">
        <ele>295.7426758</ele>
        <time>2009-04-15T15:38:18Z</time>
      </trkpt>
      <trkpt lat="49.11889" lon="6.96919">
        <ele>295.2619629</ele>
        <time>2009-04-15T15:38:22Z</time>
      </trkpt>
      <trkpt lat="49.1188" lon="6.96918">
        <ele>295.2619629</ele>
        <time>2009-04-15T15:38:25Z</time>
      </trkpt>
      <trkpt lat="49.11869" lon="6.96911">
        <ele>293.8200684</ele>
        <time>2009-04-15T15:38:30Z</time>
      </trkpt>
      <trkpt lat="49.11859" lon="6.96903">
        <ele>293.3393555</ele>
        <time>2009-04-15T15:38:35Z</time>
      </trkpt>
      <trkpt lat="49.1185" lon="6.96897">
        <ele>293.3393555</ele>
        <time>2009-04-15T15:38:41Z</time>
      </trkpt>
      <trkpt lat="49.11839" lon="6.96891">
        <ele>292.8587646</ele>
        <time>2009-04-15T15:38:48Z</time>
      </trkpt>
      <trkpt lat="49.11831" lon="6.96882">
        <ele>291.416748</ele>
        <time>2009-04-15T15:38:56Z</time>
      </trkpt>
      <trkpt lat="49.11822" lon="6.96875">
        <ele>290.4555664</ele>
        <time>2009-04-15T15:39:03Z</time>
      </trkpt>
      <trkpt lat="49.11813" lon="6.96871">
        <ele>290.4555664</ele>
        <time>2009-04-15T15:39:10Z</time>
      </trkpt>
      <trkpt lat="49.11802" lon="6.96865">
        <ele>289.4941406</ele>
        <time>2009-04-15T15:39:30Z</time>
      </trkpt>
      <trkpt lat="49.11793" lon="6.96861">
        <ele>289.0135498</ele>
        <time>2009-04-15T15:39:39Z</time>
      </trkpt>
      <trkpt lat="49.11786" lon="6.96851">
        <ele>288.532959</ele>
        <time>2009-04-15T15:39:46Z</time>
      </trkpt>
      <trkpt lat="49.1178" lon="6.96839">
        <ele>289.0135498</ele>
        <time>2009-04-15T15:39:53Z</time>
      </trkpt>
      <trkpt lat="49.11778" lon="6.96825">
        <ele>289.0135498</ele>
        <time>2009-04-15T15:40:00Z</time>
      </trkpt>
      <trkpt lat="49.11778" lon="6.96809">
        <ele>289.0135498</ele>
        <time>2009-04-15T15:40:08Z</time>
      </trkpt>
      <trkpt lat="49.11778" lon="6.96791">
        <ele>289.9748535</ele>
        <time>2009-04-15T15:40:35Z</time>
      </trkpt>
      <trkpt lat="49.11778" lon="6.96775">
        <ele>289.4941406</ele>
        <time>2009-04-15T15:40:45Z</time>
      </trkpt>
      <trkpt lat="49.11778" lon="6.9676">
        <ele>289.4941406</ele>
        <time>2009-04-15T15:40:53Z</time>
      </trkpt>
      <trkpt lat="49.11777" lon="6.96745">
        <ele>289.4941406</ele>
        <time>2009-04-15T15:41:01Z</time>
      </trkpt>
      <trkpt lat="49.11777" lon="6.9673">
        <ele>289.9748535</ele>
        <time>2009-04-15T15:41:09Z</time>
      </trkpt>
      <trkpt lat="49.11775" lon="6.96717">
        <ele>289.9748535</ele>
        <time>2009-04-15T15:41:17Z</time>
      </trkpt>
      <trkpt lat="49.11767" lon="6.96709">
        <ele>289.4941406</ele>
        <time>2009-04-15T15:41:24Z</time>
      </trkpt>
      <trkpt lat="49.11758" lon="6.96703">
        <ele>289.4941406</ele>
        <time>2009-04-15T15:41:31Z</time>
      </trkpt>
      <trkpt lat="49.1175" lon="6.96693">
        <ele>289.0135498</ele>
        <time>2009-04-15T15:41:38Z</time>
      </trkpt>
      <trkpt lat="49.11743" lon="6.96683">
        <ele>288.532959</ele>
        <time>2009-04-15T15:41:45Z</time>
      </trkpt>
      <trkpt lat="49.11735" lon="6.96673">
        <ele>288.0522461</ele>
        <time>2009-04-15T15:41:52Z</time>
      </trkpt>
      <trkpt lat="49.11727" lon="6.96664">
        <ele>288.532959</ele>
        <time>2009-04-15T15:41:59Z</time>
      </trkpt>
      <trkpt lat="49.11719" lon="6.96655">
        <ele>287.5714111</ele>
        <time>2009-04-15T15:42:06Z</time>
      </trkpt>
      <trkpt lat="49.11711" lon="6.96646">
        <ele>288.0522461</ele>
        <time>2009-04-15T15:42:13Z</time>
      </trkpt>
      <trkpt lat="49.11704" lon="6.96635">
        <ele>288.0522461</ele>
        <time>2009-04-15T15:42:21Z</time>
      </trkpt>
      <trkpt lat="49.11696" lon="6.96626">
        <ele>288.0522461</ele>
        <time>2009-04-15T15:42:29Z</time>
      </trkpt>
      <trkpt lat="49.11687" lon="6.9662">
        <ele>288.532959</ele>
        <time>2009-04-15T15:42:36Z</time>
      </trkpt>
      <trkpt lat="49.11679" lon="6.96612">
        <ele>289.0135498</ele>
        <time>2009-04-15T15:42:43Z</time>
      </trkpt>
      <trkpt lat="49.1167" lon="6.96606">
        <ele>289.0135498</ele>
        <time>2009-04-15T15:42:50Z</time>
      </trkpt>
      <trkpt lat="49.1166" lon="6.966">
        <ele>289.0135498</ele>
        <time>2009-04-15T15:42:57Z</time>
      </trkpt>
      <trkpt lat="49.11651" lon="6.96594">
        <ele>288.532959</ele>
        <time>2009-04-15T15:43:04Z</time>
      </trkpt>
      <trkpt lat="49.11642" lon="6.9659">
        <ele>289.0135498</ele>
        <time>2009-04-15T15:43:11Z</time>
      </trkpt>
      <trkpt lat="49.11633" lon="6.96586">
        <ele>289.0135498</ele>
        <time>2009-04-15T15:43:18Z</time>
      </trkpt>
      <trkpt lat="49.11624" lon="6.96582">
        <ele>289.4941406</ele>
        <time>2009-04-15T15:43:26Z</time>
      </trkpt>
      <trkpt lat="49.11615" lon="6.96579">
        <ele>289.9748535</ele>
        <time>2009-04-15T15:43:33Z</time>
      </trkpt>
      <trkpt lat="49.11606" lon="6.96574">
        <ele>289.9748535</ele>
        <time>2009-04-15T15:43:40Z</time>
      </trkpt>
      <trkpt lat="49.11596" lon="6.96569">
        <ele>289.4941406</ele>
        <time>2009-04-15T15:43:47Z</time>
      </trkpt>
      <trkpt lat="49.11587" lon="6.96562">
        <ele>289.4941406</ele>
        <time>2009-04-15T15:43:54Z</time>
      </trkpt>
      <trkpt lat="49.11577" lon="6.96557">
        <ele>288.532959</ele>
        <time>2009-04-15T15:44:01Z</time>
      </trkpt>
      <trkpt lat="49.11568" lon="6.96549">
        <ele>289.0135498</ele>
        <time>2009-04-15T15:44:08Z</time>
      </trkpt>
      <trkpt lat="49.1156" lon="6.96541">
        <ele>288.0522461</ele>
        <time>2009-04-15T15:44:15Z</time>
      </trkpt>
      <trkpt lat="49.11553" lon="6.96531">
        <ele>287.0908203</ele>
        <time>2009-04-15T15:44:22Z</time>
      </trkpt>
      <trkpt lat="49.11547" lon="6.9652">
        <ele>286.6102295</ele>
        <time>2009-04-15T15:44:29Z</time>
      </trkpt>
      <trkpt lat="49.11541" lon="6.96508">
        <ele>286.6102295</ele>
        <time>2009-04-15T15:44:36Z</time>
      </trkpt>
      <trkpt lat="49.11536" lon="6.96495">
        <ele>286.6102295</ele>
        <time>2009-04-15T15:44:43Z</time>
      </trkpt>
      <trkpt lat="49.11531" lon="6.96482">
        <ele>286.1295166</ele>
        <time>2009-04-15T15:44:51Z</time>
      </trkpt>
      <trkpt lat="49.11525" lon="6.96468">
        <ele>285.6488037</ele>
        <time>2009-04-15T15:44:59Z</time>
      </trkpt>
      <trkpt lat="49.1152" lon="6.96455">
        <ele>285.6488037</ele>
        <time>2009-04-15T15:45:06Z</time>
      </trkpt>
      <trkpt lat="49.11515" lon="6.96443">
        <ele>285.6488037</ele>
        <time>2009-04-15T15:45:13Z</time>
      </trkpt>
      <trkpt lat="49.11509" lon="6.9643">
        <ele>285.1682129</ele>
        <time>2009-04-15T15:45:20Z</time>
      </trkpt>
      <trkpt lat="49.11504" lon="6.96417">
        <ele>284.6876221</ele>
        <time>2009-04-15T15:45:27Z</time>
      </trkpt>
      <trkpt lat="49.11498" lon="6.96405">
        <ele>284.6876221</ele>
        <time>2009-04-15T15:45:34Z</time>
      </trkpt>
      <trkpt lat="49.11493" lon="6.96393">
        <ele>284.2069092</ele>
        <time>2009-04-15T15:45:41Z</time>
      </trkpt>
      <trkpt lat="49.11488" lon="6.9638">
        <ele>283.7261963</ele>
        <time>2009-04-15T15:45:48Z</time>
      </trkpt>
      <trkpt lat="49.11483" lon="6.96368">
        <ele>283.2456055</ele>
        <time>2009-04-15T15:45:55Z</time>
      </trkpt>
      <trkpt lat="49.11478" lon="6.96356">
        <ele>283.7261963</ele>
        <time>2009-04-15T15:46:02Z</time>
      </trkpt>
      <trkpt lat="49.11473" lon="6.96345">
        <ele>282.7650146</ele>
        <time>2009-04-15T15:46:09Z</time>
      </trkpt>
      <trkpt lat="49.11468" lon="6.96333">
        <ele>282.7650146</ele>
        <time>2009-04-15T15:46:16Z</time>
      </trkpt>
      <trkpt lat="49.11464" lon="6.96321">
        <ele>281.8035889</ele>
        <time>2009-04-15T15:46:23Z</time>
      </trkpt>
      <trkpt lat="49.11458" lon="6.9631">
        <ele>281.322998</ele>
        <time>2009-04-15T15:46:30Z</time>
      </trkpt>
      <trkpt lat="49.11452" lon="6.96299">
        <ele>280.3616943</ele>
        <time>2009-04-15T15:46:37Z</time>
      </trkpt>
      <trkpt lat="49.11445" lon="6.9629">
        <ele>280.3616943</ele>
        <time>2009-04-15T15:46:44Z</time>
      </trkpt>
      <trkpt lat="49.11439" lon="6.9628">
        <ele>279.8808594</ele>
        <time>2009-04-15T15:46:51Z</time>
      </trkpt>
      <trkpt lat="49.11431" lon="6.96271">
        <ele>279.8808594</ele>
        <time>2009-04-15T15:46:58Z</time>
      </trkpt>
      <trkpt lat="49.11424" lon="6.96264">
        <ele>280.3616943</ele>
        <time>2009-04-15T15:47:05Z</time>
      </trkpt>
      <trkpt lat="49.11416" lon="6.96255">
        <ele>279.8808594</ele>
        <time>2009-04-15T15:47:12Z</time>
      </trkpt>
      <trkpt lat="49.11408" lon="6.96248">
        <ele>279.8808594</ele>
        <time>2009-04-15T15:47:19Z</time>
      </trkpt>
      <trkpt lat="49.11399" lon="6.9624">
        <ele>279.8808594</ele>
        <time>2009-04-15T15:47:26Z</time>
      </trkpt>
      <trkpt lat="49.11389" lon="6.96238">
        <ele>278.4389648</ele>
        <time>2009-04-15T15:47:33Z</time>
      </trkpt>
      <trkpt lat="49.1138" lon="6.96233">
        <ele>277.4776611</ele>
        <time>2009-04-15T15:47:42Z</time>
      </trkpt>
      <trkpt lat="49.11371" lon="6.96227">
        <ele>276.5163574</ele>
        <time>2009-04-15T15:47:51Z</time>
      </trkpt>
      <trkpt lat="49.11361" lon="6.96223">
        <ele>276.5163574</ele>
        <time>2009-04-15T15:47:59Z</time>
      </trkpt>
      <trkpt lat="49.11351" lon="6.9622">
        <ele>275.0744629</ele>
        <time>2009-04-15T15:48:07Z</time>
      </trkpt>
      <trkpt lat="49.11343" lon="6.96213">
        <ele>275.0744629</ele>
        <time>2009-04-15T15:48:15Z</time>
      </trkpt>
      <trkpt lat="49.11333" lon="6.96211">
        <ele>275.0744629</ele>
        <time>2009-04-15T15:48:22Z</time>
      </trkpt>
      <trkpt lat="49.11325" lon="6.96205">
        <ele>274.59375</ele>
        <time>2009-04-15T15:48:30Z</time>
      </trkpt>
      <trkpt lat="49.11316" lon="6.96201">
        <ele>273.1518555</ele>
        <time>2009-04-15T15:48:38Z</time>
      </trkpt>
      <trkpt lat="49.11308" lon="6.96194">
        <ele>272.6711426</ele>
        <time>2009-04-15T15:48:46Z</time>
      </trkpt>
      <trkpt lat="49.113" lon="6.96186">
        <ele>271.7097168</ele>
        <time>2009-04-15T15:48:54Z</time>
      </trkpt>
      <trkpt lat="49.11293" lon="6.96178">
        <ele>270.7484131</ele>
        <time>2009-04-15T15:49:02Z</time>
      </trkpt>
      <trkpt lat="49.11284" lon="6.96171">
        <ele>270.2677002</ele>
        <time>2009-04-15T15:49:10Z</time>
      </trkpt>
      <trkpt lat="49.11276" lon="6.96161">
        <ele>269.7871094</ele>
        <time>2009-04-15T15:49:18Z</time>
      </trkpt>
      <trkpt lat="49.11268" lon="6.96151">
        <ele>268.8258057</ele>
        <time>2009-04-15T15:49:26Z</time>
      </trkpt>
      <trkpt lat="49.11262" lon="6.9614">
        <ele>268.8258057</ele>
        <time>2009-04-15T15:49:34Z</time>
      </trkpt>
      <trkpt lat="49.11255" lon="6.96131">
        <ele>268.8258057</ele>
        <time>2009-04-15T15:49:41Z</time>
      </trkpt>
      <trkpt lat="49.11248" lon="6.9612">
        <ele>268.8258057</ele>
        <time>2009-04-15T15:49:49Z</time>
      </trkpt>
      <trkpt lat="49.11242" lon="6.96109">
        <ele>268.8258057</ele>
        <time>2009-04-15T15:49:57Z</time>
      </trkpt>
      <trkpt lat="49.11236" lon="6.96098">
        <ele>268.8258057</ele>
        <time>2009-04-15T15:50:05Z</time>
      </trkpt>
      <trkpt lat="49.11229" lon="6.96088">
        <ele>268.3450928</ele>
        <time>2009-04-15T15:50:13Z</time>
      </trkpt>
      <trkpt lat="49.11222" lon="6.96079">
        <ele>268.8258057</ele>
        <time>2009-04-15T15:50:21Z</time>
      </trkpt>
      <trkpt lat="49.11215" lon="6.96068">
        <ele>268.8258057</ele>
        <time>2009-04-15T15:50:29Z</time>
      </trkpt>
      <trkpt lat="49.11207" lon="6.96063">
        <ele>268.8258057</ele>
        <time>2009-04-15T15:50:50Z</time>
      </trkpt>
      <trkpt lat="49.11199" lon="6.96053">
        <ele>266.9031982</ele>
        <time>2009-04-15T15:51:18Z</time>
      </trkpt>
      <trkpt lat="49.11191" lon="6.96045">
        <ele>266.9031982</ele>
        <time>2009-04-15T15:51:26Z</time>
      </trkpt>
      <trkpt lat="49.11181" lon="6.96037">
        <ele>266.9031982</ele>
        <time>2009-04-15T15:51:36Z</time>
      </trkpt>
      <trkpt lat="49.11172" lon="6.9603">
        <ele>266.9031982</ele>
        <time>2009-04-15T15:51:44Z</time>
      </trkpt>
      <trkpt lat="49.11163" lon="6.96023">
        <ele>266.4224854</ele>
        <time>2009-04-15T15:51:52Z</time>
      </trkpt>
      <trkpt lat="49.11154" lon="6.96016">
        <ele>266.4224854</ele>
        <time>2009-04-15T15:52:00Z</time>
      </trkpt>
      <trkpt lat="49.11145" lon="6.96009">
        <ele>264.9805908</ele>
        <time>2009-04-15T15:52:08Z</time>
      </trkpt>
      <trkpt lat="49.11136" lon="6.96002">
        <ele>264.0192871</ele>
        <time>2009-04-15T15:52:15Z</time>
      </trkpt>
      <trkpt lat="49.11127" lon="6.95997">
        <ele>263.5385742</ele>
        <time>2009-04-15T15:52:22Z</time>
      </trkpt>
      <trkpt lat="49.11118" lon="6.95991">
        <ele>263.5385742</ele>
        <time>2009-04-15T15:52:29Z</time>
      </trkpt>
      <trkpt lat="49.1111" lon="6.95986">
        <ele>263.0578613</ele>
        <time>2009-04-15T15:52:35Z</time>
      </trkpt>
      <trkpt lat="49.11101" lon="6.9598">
        <ele>262.5771484</ele>
        <time>2009-04-15T15:52:44Z</time>
      </trkpt>
      <trkpt lat="49.11093" lon="6.95976">
        <ele>262.0965576</ele>
        <time>2009-04-15T15:52:51Z</time>
      </trkpt>
      <trkpt lat="49.11083" lon="6.95974">
        <ele>261.6159668</ele>
        <time>2009-04-15T15:52:59Z</time>
      </trkpt>
      <trkpt lat="49.11075" lon="6.95967">
        <ele>261.1352539</ele>
        <time>2009-04-15T15:53:06Z</time>
      </trkpt>
      <trkpt lat="49.11066" lon="6.95961">
        <ele>260.654541</ele>
        <time>2009-04-15T15:53:13Z</time>
      </trkpt>
      <trkpt lat="49.11058" lon="6.95951">
        <ele>259.6933594</ele>
        <time>2009-04-15T15:53:21Z</time>
      </trkpt>
      <trkpt lat="49.11051" lon="6.95942">
        <ele>258.7319336</ele>
        <time>2009-04-15T15:53:28Z</time>
      </trkpt>
      <trkpt lat="49.11042" lon="6.95937">
        <ele>258.2513428</ele>
        <time>2009-04-15T15:53:35Z</time>
      </trkpt>
      <trkpt lat="49.11034" lon="6.95928">
        <ele>257.770752</ele>
        <time>2009-04-15T15:53:43Z</time>
      </trkpt>
      <trkpt lat="49.11025" lon="6.9592">
        <ele>257.2900391</ele>
        <time>2009-04-15T15:53:50Z</time>
      </trkpt>
      <trkpt lat="49.11016" lon="6.95913">
        <ele>257.2900391</ele>
        <time>2009-04-15T15:53:58Z</time>
      </trkpt>
      <trkpt lat="49.11009" lon="6.95904">
        <ele>257.2900391</ele>
        <time>2009-04-15T15:54:05Z</time>
      </trkpt>
      <trkpt lat="49.11" lon="6.95895">
        <ele>256.8093262</ele>
        <time>2009-04-15T15:54:13Z</time>
      </trkpt>
      <trkpt lat="49.10992" lon="6.95887">
        <ele>256.3287354</ele>
        <time>2009-04-15T15:54:20Z</time>
      </trkpt>
      <trkpt lat="49.10983" lon="6.9588">
        <ele>256.3287354</ele>
        <time>2009-04-15T15:54:27Z</time>
      </trkpt>
      <trkpt lat="49.10975" lon="6.95873">
        <ele>256.8093262</ele>
        <time>2009-04-15T15:54:35Z</time>
      </trkpt>
      <trkpt lat="49.10965" lon="6.95865">
        <ele>256.8093262</ele>
        <time>2009-04-15T15:54:43Z</time>
      </trkpt>
      <trkpt lat="49.10957" lon="6.9586">
        <ele>256.8093262</ele>
        <time>2009-04-15T15:54:50Z</time>
      </trkpt>
      <trkpt lat="49.10948" lon="6.95855">
        <ele>256.8093262</ele>
        <time>2009-04-15T15:54:57Z</time>
      </trkpt>
      <trkpt lat="49.10939" lon="6.9585">
        <ele>256.8093262</ele>
        <time>2009-04-15T15:55:04Z</time>
      </trkpt>
      <trkpt lat="49.1093" lon="6.95845">
        <ele>256.8093262</ele>
        <time>2009-04-15T15:55:12Z</time>
      </trkpt>
      <trkpt lat="49.10921" lon="6.95842">
        <ele>257.2900391</ele>
        <time>2009-04-15T15:55:20Z</time>
      </trkpt>
      <trkpt lat="49.10912" lon="6.9584">
        <ele>257.2900391</ele>
        <time>2009-04-15T15:55:27Z</time>
      </trkpt>
      <trkpt lat="49.10902" lon="6.95837">
        <ele>257.770752</ele>
        <time>2009-04-15T15:55:35Z</time>
      </trkpt>
      <trkpt lat="49.10892" lon="6.95836">
        <ele>257.770752</ele>
        <time>2009-04-15T15:55:42Z</time>
      </trkpt>
      <trkpt lat="49.10882" lon="6.95836">
        <ele>257.770752</ele>
        <time>2009-04-15T15:55:50Z</time>
      </trkpt>
      <trkpt lat="49.10874" lon="6.95834">
        <ele>257.2900391</ele>
        <time>2009-04-15T15:55:59Z</time>
      </trkpt>
      <trkpt lat="49.10865" lon="6.95823">
        <ele>255.8480225</ele>
        <time>2009-04-15T15:59:06Z</time>
      </trkpt>
      <trkpt lat="49.10855" lon="6.95819">
        <ele>255.8480225</ele>
        <time>2009-04-15T15:59:25Z</time>
      </trkpt>
      <trkpt lat="49.10848" lon="6.95812">
        <ele>255.3673096</ele>
        <time>2009-04-15T15:59:32Z</time>
      </trkpt>
      <trkpt lat="49.10847" lon="6.95798">
        <ele>255.8480225</ele>
        <time>2009-04-15T15:59:40Z</time>
      </trkpt>
      <trkpt lat="49.10848" lon="6.95785">
        <ele>256.3287354</ele>
        <time>2009-04-15T15:59:48Z</time>
      </trkpt>
      <trkpt lat="49.1085" lon="6.9577">
        <ele>256.3287354</ele>
        <time>2009-04-15T15:59:56Z</time>
      </trkpt>
      <trkpt lat="49.10853" lon="6.95756">
        <ele>256.3287354</ele>
        <time>2009-04-15T16:00:04Z</time>
      </trkpt>
      <trkpt lat="49.10855" lon="6.95742">
        <ele>257.2900391</ele>
        <time>2009-04-15T16:00:12Z</time>
      </trkpt>
      <trkpt lat="49.10857" lon="6.95726">
        <ele>257.2900391</ele>
        <time>2009-04-15T16:00:21Z</time>
      </trkpt>
      <trkpt lat="49.1086" lon="6.95711">
        <ele>257.770752</ele>
        <time>2009-04-15T16:00:30Z</time>
      </trkpt>
      <trkpt lat="49.10861" lon="6.95696">
        <ele>258.2513428</ele>
        <time>2009-04-15T16:00:38Z</time>
      </trkpt>
      <trkpt lat="49.10862" lon="6.95683">
        <ele>259.2126465</ele>
        <time>2009-04-15T16:00:46Z</time>
      </trkpt>
      <trkpt lat="49.10864" lon="6.95668">
        <ele>259.2126465</ele>
        <time>2009-04-15T16:00:55Z</time>
      </trkpt>
      <trkpt lat="49.10865" lon="6.95654">
        <ele>259.2126465</ele>
        <time>2009-04-15T16:01:03Z</time>
      </trkpt>
      <trkpt lat="49.10866" lon="6.95635">
        <ele>260.654541</ele>
        <time>2009-04-15T16:01:12Z</time>
      </trkpt>
      <trkpt lat="49.10869" lon="6.95622">
        <ele>261.6159668</ele>
        <time>2009-04-15T16:01:20Z</time>
      </trkpt>
      <trkpt lat="49.10869" lon="6.95607">
        <ele>262.5771484</ele>
        <time>2009-04-15T16:01:28Z</time>
      </trkpt>
      <trkpt lat="49.10869" lon="6.95593">
        <ele>263.0578613</ele>
        <time>2009-04-15T16:01:37Z</time>
      </trkpt>
      <trkpt lat="49.1087" lon="6.95578">
        <ele>263.5385742</ele>
        <time>2009-04-15T16:01:45Z</time>
      </trkpt>
      <trkpt lat="49.10873" lon="6.95563">
        <ele>263.5385742</ele>
        <time>2009-04-15T16:01:53Z</time>
      </trkpt>
      <trkpt lat="49.10877" lon="6.9555">
        <ele>263.5385742</ele>
        <time>2009-04-15T16:02:00Z</time>
      </trkpt>
      <trkpt lat="49.1088" lon="6.95537">
        <ele>263.5385742</ele>
        <time>2009-04-15T16:02:07Z</time>
      </trkpt>
      <trkpt lat="49.10883" lon="6.95524">
        <ele>264.0192871</ele>
        <time>2009-04-15T16:02:15Z</time>
      </trkpt>
      <trkpt lat="49.10886" lon="6.95511">
        <ele>263.5385742</ele>
        <time>2009-04-15T16:02:23Z</time>
      </trkpt>
      <trkpt lat="49.1089" lon="6.95497">
        <ele>263.5385742</ele>
        <time>2009-04-15T16:02:31Z</time>
      </trkpt>
      <trkpt lat="49.10896" lon="6.95486">
        <ele>263.0578613</ele>
        <time>2009-04-15T16:02:39Z</time>
      </trkpt>
      <trkpt lat="49.109" lon="6.95473">
        <ele>263.5385742</ele>
        <time>2009-04-15T16:02:47Z</time>
      </trkpt>
      <trkpt lat="49.10903" lon="6.95458">
        <ele>263.5385742</ele>
        <time>2009-04-15T16:02:55Z</time>
      </trkpt>
      <trkpt lat="49.10905" lon="6.95443">
        <ele>263.0578613</ele>
        <time>2009-04-15T16:03:04Z</time>
      </trkpt>
      <trkpt lat="49.10907" lon="6.95428">
        <ele>263.0578613</ele>
        <time>2009-04-15T16:03:13Z</time>
      </trkpt>
      <trkpt lat="49.10908" lon="6.95414">
        <ele>263.5385742</ele>
        <time>2009-04-15T16:03:21Z</time>
      </trkpt>
      <trkpt lat="49.10909" lon="6.95401">
        <ele>263.5385742</ele>
        <time>2009-04-15T16:03:29Z</time>
      </trkpt>
      <trkpt lat="49.10909" lon="6.95387">
        <ele>264.0192871</ele>
        <time>2009-04-15T16:03:37Z</time>
      </trkpt>
      <trkpt lat="49.10908" lon="6.95374">
        <ele>264.4998779</ele>
        <time>2009-04-15T16:03:45Z</time>
      </trkpt>
      <trkpt lat="49.10909" lon="6.9536">
        <ele>264.0192871</ele>
        <time>2009-04-15T16:03:53Z</time>
      </trkpt>
      <trkpt lat="49.1091" lon="6.95345">
        <ele>264.0192871</ele>
        <time>2009-04-15T16:04:01Z</time>
      </trkpt>
      <trkpt lat="49.1091" lon="6.95331">
        <ele>264.4998779</ele>
        <time>2009-04-15T16:04:09Z</time>
      </trkpt>
      <trkpt lat="49.10911" lon="6.95315">
        <ele>264.0192871</ele>
        <time>2009-04-15T16:04:18Z</time>
      </trkpt>
      <trkpt lat="49.10912" lon="6.953">
        <ele>264.4998779</ele>
        <time>2009-04-15T16:04:27Z</time>
      </trkpt>
      <trkpt lat="49.10911" lon="6.95287">
        <ele>264.0192871</ele>
        <time>2009-04-15T16:04:35Z</time>
      </trkpt>
      <trkpt lat="49.10911" lon="6.95272">
        <ele>264.4998779</ele>
        <time>2009-04-15T16:04:44Z</time>
      </trkpt>
      <trkpt lat="49.10911" lon="6.95258">
        <ele>264.4998779</ele>
        <time>2009-04-15T16:04:53Z</time>
      </trkpt>
      <trkpt lat="49.10911" lon="6.95244">
        <ele>264.9805908</ele>
        <time>2009-04-15T16:05:01Z</time>
      </trkpt>
      <trkpt lat="49.10912" lon="6.9523">
        <ele>264.9805908</ele>
        <time>2009-04-15T16:05:10Z</time>
      </trkpt>
      <trkpt lat="49.10912" lon="6.95219">
        <ele>265.9418945</ele>
        <time>2009-04-15T16:05:16Z</time>
      </trkpt>
      <trkpt lat="49.10914" lon="6.95199">
        <ele>265.4613037</ele>
        <time>2009-04-15T16:05:27Z</time>
      </trkpt>
      <trkpt lat="49.10919" lon="6.95174">
        <ele>265.9418945</ele>
        <time>2009-04-15T16:05:43Z</time>
      </trkpt>
      <trkpt lat="49.10922" lon="6.95159">
        <ele>268.3450928</ele>
        <time>2009-04-15T16:05:53Z</time>
      </trkpt>
      <trkpt lat="49.10927" lon="6.95146">
        <ele>267.864502</ele>
        <time>2009-04-15T16:06:02Z</time>
      </trkpt>
      <trkpt lat="49.10931" lon="6.95134">
        <ele>269.3065186</ele>
        <time>2009-04-15T16:06:11Z</time>
      </trkpt>
      <trkpt lat="49.10936" lon="6.95123">
        <ele>269.3065186</ele>
        <time>2009-04-15T16:06:20Z</time>
      </trkpt>
      <trkpt lat="49.10941" lon="6.95113">
        <ele>269.7871094</ele>
        <time>2009-04-15T16:06:29Z</time>
      </trkpt>
      <trkpt lat="49.10946" lon="6.95103">
        <ele>270.2677002</ele>
        <time>2009-04-15T16:06:40Z</time>
      </trkpt>
      <trkpt lat="49.10954" lon="6.9509">
        <ele>271.229126</ele>
        <time>2009-04-15T16:06:51Z</time>
      </trkpt>
      <trkpt lat="49.10957" lon="6.95075">
        <ele>271.229126</ele>
        <time>2009-04-15T16:07:01Z</time>
      </trkpt>
      <trkpt lat="49.1096" lon="6.95059">
        <ele>272.1904297</ele>
        <time>2009-04-15T16:07:10Z</time>
      </trkpt>
      <trkpt lat="49.10963" lon="6.95045">
        <ele>272.6711426</ele>
        <time>2009-04-15T16:07:21Z</time>
      </trkpt>
      <trkpt lat="49.10962" lon="6.95029">
        <ele>272.1904297</ele>
        <time>2009-04-15T16:07:31Z</time>
      </trkpt>
      <trkpt lat="49.1096" lon="6.95012">
        <ele>272.1904297</ele>
        <time>2009-04-15T16:07:40Z</time>
      </trkpt>
      <trkpt lat="49.10959" lon="6.94995">
        <ele>272.6711426</ele>
        <time>2009-04-15T16:07:58Z</time>
      </trkpt>
      <trkpt lat="49.10959" lon="6.94978">
        <ele>272.1904297</ele>
        <time>2009-04-15T16:08:07Z</time>
      </trkpt>
      <trkpt lat="49.1096" lon="6.94963">
        <ele>272.6711426</ele>
        <time>2009-04-15T16:08:16Z</time>
      </trkpt>
      <trkpt lat="49.10962" lon="6.94947">
        <ele>272.6711426</ele>
        <time>2009-04-15T16:08:25Z</time>
      </trkpt>
      <trkpt lat="49.10964" lon="6.94932">
        <ele>273.1518555</ele>
        <time>2009-04-15T16:08:33Z</time>
      </trkpt>
      <trkpt lat="49.10966" lon="6.94916">
        <ele>273.6324463</ele>
        <time>2009-04-15T16:08:42Z</time>
      </trkpt>
      <trkpt lat="49.10968" lon="6.94904">
        <ele>273.6324463</ele>
        <time>2009-04-15T16:08:50Z</time>
      </trkpt>
      <trkpt lat="49.1097" lon="6.94894">
        <ele>273.6324463</ele>
        <time>2009-04-15T16:09:01Z</time>
      </trkpt>
      <trkpt lat="49.10972" lon="6.94879">
        <ele>274.1130371</ele>
        <time>2009-04-15T16:09:10Z</time>
      </trkpt>
      <trkpt lat="49.10974" lon="6.94866">
        <ele>274.59375</ele>
        <time>2009-04-15T16:09:21Z</time>
      </trkpt>
      <trkpt lat="49.10976" lon="6.9485">
        <ele>274.1130371</ele>
        <time>2009-04-15T16:09:31Z</time>
      </trkpt>
      <trkpt lat="49.10975" lon="6.94825">
        <ele>275.5550537</ele>
        <time>2009-04-15T16:10:14Z</time>
      </trkpt>
      <trkpt lat="49.10978" lon="6.94809">
        <ele>275.5550537</ele>
        <time>2009-04-15T16:10:29Z</time>
      </trkpt>
      <trkpt lat="49.10979" lon="6.94795">
        <ele>275.5550537</ele>
        <time>2009-04-15T16:10:38Z</time>
      </trkpt>
      <trkpt lat="49.10982" lon="6.94781">
        <ele>275.5550537</ele>
        <time>2009-04-15T16:10:48Z</time>
      </trkpt>
      <trkpt lat="49.10969" lon="6.94769">
        <ele>275.0744629</ele>
        <time>2009-04-15T16:11:32Z</time>
      </trkpt>
      <trkpt lat="49.10959" lon="6.94766">
        <ele>274.59375</ele>
        <time>2009-04-15T16:11:44Z</time>
      </trkpt>
      <trkpt lat="49.10949" lon="6.94764">
        <ele>274.1130371</ele>
        <time>2009-04-15T16:11:52Z</time>
      </trkpt>
      <trkpt lat="49.1094" lon="6.94759">
        <ele>272.6711426</ele>
        <time>2009-04-15T16:12:02Z</time>
      </trkpt>
      <trkpt lat="49.10935" lon="6.94758">
        <ele>273.1518555</ele>
        <time>2009-04-15T16:12:14Z</time>
      </trkpt>
      <trkpt lat="49.10934" lon="6.94758">
        <ele>272.1904297</ele>
        <time>2009-04-15T16:12:25Z</time>
      </trkpt>
    </trkseg>
  </trk>
</gpx>